     2              OBSERVATION DATA                        RINEX VERSION / TYPE
DAT2RIN 1.01d Dan Johnson 14SEP96 5:26:46 GMT               PGM / RUN BY / DATE
Mojave '96 team Central Washington U                        OBSERVER / AGENCY
14856 TRIMBLE 4000SSI Nav 7.12 Sig 3.04                     REC # / TYPE / VERS
UW-03 TRIMBLE CHOKE                                         ANT # / TYPE
FUNE FUNERAL                                                MARKER NAME
 -2291701.0000 -4601402.0000  3764185.0000                  APPROX POSITION XYZ
        0.9276        0.0000        0.0000                  ANTENNA: DELTA H/E/N
     1     1     0                                          WAVELENGTH FACT L1/2
     5    L1    C1    P1    L2    P2                        # / TYPES OF OBSERV
    30                                                      INTERVAL
  1996     9     7    19    22   30.000000                  TIME OF FIRST OBS
  1996     9     7    23    59    0.000000                  TIME OF LAST OBS
                                                            COMMENT
PANGA GPS Data Analysis Center                              COMMENT
Department of Geology                                       COMMENT
Central Washington University                               COMMENT
Ellensburg, WA 98926                                        COMMENT
                                                            COMMENT
http://www.panga.cwu.edu                                    COMMENT
ftp://panga.cwu.edu                                         COMMENT
                                                            COMMENT
    15                                                      # OF SATELLITES
           1   554   554     0   554   554                  PRN / # OF OBS
           3   419   419     0   419   419                  PRN / # OF OBS
           6    55    55     0    55    55                  PRN / # OF OBS
           9   307   308     0   301   301                  PRN / # OF OBS
          14    97    97     0    94    94                  PRN / # OF OBS
          15   255   255     0   251   251                  PRN / # OF OBS
          17   313   313     0   313   313                  PRN / # OF OBS
          21   554   554     0   551   551                  PRN / # OF OBS
          22    26    26     0    26    26                  PRN / # OF OBS
          23   419   419     0   419   419                  PRN / # OF OBS
          25   292   292     0   288   288                  PRN / # OF OBS
          26    95    95     0    95    95                  PRN / # OF OBS
          28   279     0   280   279   279                  PRN / # OF OBS
          29    92    92     0    89    89                  PRN / # OF OBS
          31   417   417     0   412   412                  PRN / # OF OBS
                                                            END OF HEADER
 96  9  7 19 22 30.0000000  0  9  1  3  6 17 21 22 23 26 28
   -298178.92110  24325371.70300                    -93921.19350  24325378.70340
   -310136.14410  22846703.87500                   -356742.07250  22846709.51240
    383523.01610  23687156.55500                    129154.53350  23687162.49640
    674585.56710  20907383.39100                    521989.85950  20907389.22740
  -1127320.11010  22051310.09400                   -872158.65550  22051315.55540
    315617.93210  24836590.69500                    133270.62350  24836597.63740
    472764.02810  20939178.96100                    367595.93250  20939184.38740
   2150665.46610  23555328.09400                   1675842.69150  23555334.25840
    343327.17210  20748550.85200                    267527.37410  20748555.43400
 96  9  7 19 23  0.0000000  0  9  1  3  6 17 21 22 23 26 28
   -398533.59800  24306274.99200                   -172119.57740  24306282.55540
   -376913.01600  22833996.71100                   -408775.99840  22834002.20740
    505015.16200  23710275.64800                    223823.63440  23710280.88740
    705683.02300  20913300.87500                    546221.63240  20913306.66440
  -1169228.31700  22043335.26600                   -904814.38940  22043340.97340
    385299.29900  24849850.75800                    187567.71140  24849855.85540
    495666.60800  20943537.43800                    385442.09540  20943542.82840
   2242133.34800  23572734.10900                   1747116.33640  23572739.73440
    365049.58500  20752684.48400                    284453.91200  20752689.10900
 96  9  7 19 23 30.0000000  0  9  1  3  6 17 21 22 23 26 28
   -498795.85500  24287196.57800                   -250245.95340  24287203.57840
   -443285.41600  22821366.56300                   -460494.73840  22821371.85940
    626676.23500  23733426.70300                    318624.42140  23733432.76240
    737059.82800  20919271.96100                    570671.08940  20919277.44540
  -1210895.83500  22035406.14800                   -937282.57940  22035412.12540
    455186.54900  24863149.54700                    242025.26040  24863154.71540
    518852.31400  20947949.36700                    403508.87840  20947954.59440
   2333994.25600  23590214.41400                   1818696.22740  23590220.09840
    387383.56100  20756934.43000                    301856.99900  20756939.09800
 96  9  7 19 24  0.0000000  0  9  1  3  6 17 21 22 23 26 28
   -598907.07500  24268145.14800                   -328254.58540  24268151.43040
   -509196.88900  22808824.14100                   -511854.32540  22808829.59040
    748555.86300  23756620.38300                    413595.46540  23756626.81640
    768750.59000  20925302.49200                    595365.18940  20925308.10540
  -1252272.56100  22027532.32800                   -969524.17140  22027537.90640
    525325.12700  24876496.00800                    296678.62440  24876502.31340
    542368.66000  20952424.62500                    421833.30440  20952429.94540
   2426297.26200  23607779.01600                   1890620.63740  23607784.74640
    410374.29900  20761309.46100                    319771.84600  20761314.15200
 96  9  7 19 24 30.0000000  0  9  1  3  6 17 21 22 23 26 28
   -698940.11800  24249109.49200                   -406202.27540  24249116.02040
   -574713.25100  22796356.48400                   -562906.02140  22796362.00440
    870579.59700  23779840.71100                    508678.74440  23779847.62940
    800682.35900  20931378.93800                    620247.08540  20931384.56340
  -1293405.13800  22019705.45300                  -1001575.51440  22019710.90240
    595648.54500  24889878.64800                    351476.02240  24889885.93040
    566154.71900  20956950.82800                    440367.88140  20956956.21940
   2518950.22900  23625410.50800                   1962817.72240  23625415.84040
    433945.37100  20765794.82800                    338138.90100  20765799.60900
 96  9  7 19 25  0.0010000  0  9  1  3  6 17 21 22 23 26 28
   -798883.47900  24230090.57500                   -484080.18740  24230098.10340
   -639822.86000  22783966.52100                   -613640.77140  22783971.63040
    992758.13500  23803089.58300                    603882.76840  23803094.98540
    832879.14100  20937505.75500                    645335.47340  20937511.59140
  -1334251.86600  22011932.35600                  -1033404.11840  22011938.25140
    666178.94100  24903300.39600                    406434.73140  24903306.04440
    590238.11200  20961533.91900                    459134.17240  20961539.31040
   2611962.58200  23643110.41100                   2035294.86340  23643115.79040
    458112.01000  20770393.56700                    356970.03600  20770398.29000
 96  9  7 19 25 30.0010000  0  9  1  3  6 17 21 22 23 26 28
   -898713.77100  24211093.53600                   -561869.92040  24211099.02140
   -704504.63100  22771658.24700                   -664042.13040  22771663.50940
   1115103.69000  23826371.56000                    699216.84340  23826377.34940
    865381.59500  20943690.63000                    670662.05040  20943696.41940
  -1374797.35700  22004216.74700                  -1064997.99440  22004222.63040
    736938.51600  24916765.62200                    461572.00940  24916771.27140
    614633.43100  20966175.98900                    478143.50240  20966181.18140
   2705346.58700  23660880.46600                   2108061.59240  23660886.00940
    482895.14200  20775109.71600                    376281.55200  20775114.37200
 96  9  7 19 26  0.0010000  0  9  1  3  6 17 21 22 23 26 28
   -998431.79200  24192117.79400                   -639572.14740  24192124.34540
   -768739.91700  22759434.91100                   -714095.59940  22759440.74740
   1237628.54100  23849687.52800                    794690.63440  23849693.01340
    898216.09700  20949938.89600                    696247.37040  20949944.72040
  -1415041.57700  21996558.17700                  -1096357.10740  21996563.83740
    807928.92000  24930274.31700                    516889.16840  24930283.48540
    639349.00000  20970879.16100                    497402.38340  20970884.57540
   2799097.62900  23678720.35600                   2181114.32240  23678726.14640
    508302.25900  20779944.58300                    396079.29300  20779949.16500
 96  9  7 19 26 30.0010000  0  9  1  3  6 17 21 22 23 26 28
  -1098062.47200  24173158.80200                   -717206.43340  24173165.61040
   -832550.47400  22747291.73100                   -763818.08640  22747297.26340
   1360310.65900  23873033.41100                    890287.01440  23873040.39940
    931390.80000  20956251.57500                    722097.77740  20956257.49340
  -1455010.50600  21988952.28600                  -1127501.70540  21988958.09940
    879135.07100  24943824.69200                    572374.39340  24943832.09140
    664359.47000  20975638.56000                    516891.05640  20975644.05640
   2893192.31300  23696626.65300                   2254434.83340  23696632.33740
    534318.83700  20784895.38800                    416351.93600  20784899.92700
 96  9  7 19 27  0.0010000  0  9  1  3  6 17 21 22 23 26 28
  -1197606.90600  24154216.16900                   -794773.39440  24154222.52140
   -895928.34000  22735231.34900                   -813203.42340  22735236.96240
   1483153.86300  23896409.48100                    986008.86040  23896416.37640
    964917.25500  20962631.66900                    748222.28540  20962637.47040
  -1494724.45600  21981395.25500                  -1158447.62540  21981401.18540
    950553.45300  24957415.12200                    628025.03840  24957422.69640
    689655.42400  20980452.18500                    536602.18040  20980457.56340
   2987638.03500  23714598.83300                   2328028.87740  23714605.02140
    560954.25400  20789963.98100                    437106.79700  20789968.52400
 96  9  7 19 27 30.0010000  0  9  1  3  6 17 21 22 23 26 28
  -1297077.85100  24135287.19200                   -872283.17240  24135294.52140
   -958876.44100  22723252.45800                   -862253.88640  22723257.77840
   1606147.75300  23919814.57500                   1081848.17240  23919821.65740
    998800.76200  20969079.28600                    774625.00840  20969085.18140
  -1534215.76300  21973880.20000                  -1189220.05940  21973886.08340
   1022172.91700  24971043.50500                    683832.35140  24971050.34940
    715212.30900  20985315.35600                    556516.63340  20985320.92340
   3082411.44700  23732633.86400                   2401878.26540  23732638.52840
    588202.26700  20795149.09100                    458338.99900  20795153.61800
 96  9  7 19 28  0.0010000  0  9  1  3  6 17 21 22 23 26 28
  -1396465.19100  24116374.60600                   -949727.80340  24116381.23940
  -1021391.88500  22711356.53600                   -910967.20340  22711361.96240
   1729279.83200  23943245.98100                   1177795.14640  23943252.59140
   1033027.00700  20975592.65300                    801294.80140  20975598.29040
  -1573478.43400  21966408.96600                  -1219814.33140  21966414.73140
   1093978.84200  24984708.13800                    739784.98340  24984713.11840
    741033.31400  20990228.98100                    576636.88440  20990234.34940
   3177505.74200  23750730.00500                   2475977.69740  23750734.66940
    616063.85600  20800450.90300                    480049.32000  20800455.50900
 96  9  7 19 28 30.0010000  0  9  1  3  6 17 21 22 23 26 28
  -1495781.43100  24097474.92700                  -1027116.96740  24097481.63040
  -1083497.30400  22699538.30200                   -959361.02740  22699544.02140
   1852527.39800  23966698.90300                   1273832.11140  23966705.25540
   1067564.06000  20982164.98100                    828206.77740  20982170.54840
  -1612514.19600  21958980.65300                  -1250231.79340  21958986.44240
   1165955.30500  24998404.86400                    795870.49440  24998410.33740
    767099.99000  20995189.34100                    596948.58140  20995194.75540
   3272906.83200  23768883.78600                   2550316.19140  23768888.45040
    644523.57200  20805866.70000                    502225.70600  20805871.36400
 96  9  7 19 29  0.0010000  0  9  1  3  6 17 21 22 23 26 28
  -1595000.14600  24078594.51300                  -1104430.23440  24078601.37240
  -1145166.40900  22687802.91900                  -1007414.86240  22687808.22840
   1975911.82900  23990178.66100                   1369975.72140  23990185.68540
   1102412.65200  20988796.22400                    855361.49840  20988801.72040
  -1651297.89100  21951600.28600                  -1280452.84240  21951606.19240
   1238115.54500  25012136.00500                    852099.19740  25012144.69240
    793433.14100  21000200.32500                    617467.91540  21000205.61040
   3368628.94200  23787099.25500                   2624904.82440  23787104.38840
    673596.40000  20811399.11400                    524879.85000  20811403.69200
 96  9  7 19 29 30.0010000  0  9  1  3  6 17 21 22 23 26 28
  -1694098.43200  24059736.13800                  -1181649.54840  24059741.98540
  -1206397.92000  22676151.15300                  -1055127.72540  22676156.38040
   2099442.81500  24013686.06700                   1466233.53440  24013692.38440
   1137579.72900  20995488.35600                    882764.40940  20995494.12240
  -1689806.28500  21944272.34900                  -1310459.37240  21944277.99740
   1310451.33100  25025901.34900                    908464.64240  25025908.51340
    820040.33800  21005263.73100                    638200.79140  21005269.18140
   3464691.06700  23805378.85600                   2699758.40440  23805384.15340
    703284.62000  20817048.67700                    548013.50500  20817053.08300
 96  9  7 19 30  0.0010000  0  9  1  3  6 17 21 22 23 26 28
  -1793070.52600  24040902.38800                  -1258770.63940  24040908.69240
  -1267206.62700  22664579.81700                  -1102511.11240  22664585.52440
   2223116.81700  24037220.56000                   1562602.76340  24037225.82140
   1173044.13300  21002237.06700                    910399.00540  21002242.71640
  -1728034.31300  21936997.65300                  -1340247.42940  21937003.52440
   1382951.18700  25039698.11400                    964958.04440  25039704.64240
    846917.53800  21010378.17700                    659144.05840  21010383.63840
   3561107.28800  23823726.83300                   2774887.89140  23823731.39240
    733578.09700  20822813.27100                    571618.80700  20822817.70800
 96  9  7 19 30 30.0010000  0  9  1  3  6 17 21 22 23 26 28
  -1891914.41400  24022093.34900                  -1335791.72640  24022099.46640
  -1327596.41400  22653087.99700                  -1149568.07940  22653093.48140
   2346938.66400  24060782.81000                   1659087.22340  24060789.00940
   1208823.26500  21009045.47400                    938278.82840  21009051.20440
  -1765991.66100  21929774.63000                  -1369824.56840  21929780.48940
   1455616.54000  25053526.66900                   1021580.35040  25053533.23140
    874055.30700  21015542.40300                    680290.36540  21015547.81740
   3657882.82000  23842142.34900                   2850297.36540  23842147.91540
    764469.23000  20828691.56000                    595689.80500  20828696.09100
 96  9  7 19 31  0.0010000  0  9  1  3  6 17 21 22 23 26 28
  -1990613.75500  24003311.03600                  -1412700.23840  24003318.44640
  -1387559.46200  22641676.86400                  -1196292.50340  22641681.99740
   2470907.67500  24084373.65300                   1755686.37540  24084379.41940
   1244935.39400  21015917.57500                    966418.14240  21015923.18840
  -1803682.90100  21922602.16100                  -1399194.34940  21922608.06740
   1528455.98800  25067387.30200                   1078338.26240  25067390.97040
    901465.17200  21020758.23100                    701648.69540  21020763.82140
   3755034.46000  23860630.09100                   2925999.91740  23860636.17340
    795965.56900  20834685.14600                    620232.39600  20834689.82900
 96  9  7 19 31 30.0010000  0  9  1  3  6 17 21 22 23 26 28
  -2089188.17900  23984553.02100                  -1489511.39840  23984559.71240
  -1447107.97800  22630345.15300                  -1242693.93840  22630350.79040
   2594996.95400  24107987.51300                   1852379.16840  24107994.44240
   1281376.46900  21022851.93500                    994813.77040  21022857.48940
  -1841126.00100  21915477.16900                  -1428370.78340  21915482.97040
   1601466.51500  25081280.42700                   1135229.56540  25081288.81040
    929140.67500  21026024.66100                    723214.01940  21026030.35640
   3852551.88600  23879186.78600                   3001987.47940  23879191.52140
    828055.44200  20840791.66100                    645237.47500  20840796.39900
 96  9  7 19 32  0.0010000  0  9  1  3  6 17 21 22 23 26 28
  -2187650.09200  23965816.40300                  -1566234.89340  23965821.53640
  -1506232.73600  22619094.26300                  -1288765.18140  22619100.08740
   2719191.73500  24131620.78600                   1949154.26640  24131628.53640
   1318146.30600  21029849.13800                   1023465.56740  21029854.97440
  -1878341.50100  21908395.64600                  -1457369.85840  21908401.28240
   1674660.02000  25095207.97400                   1192263.41240  25095217.03640
    957082.75400  21031341.76300                    744987.06540  21031347.30640
   3950412.42700  23897809.18500                   3078242.42040  23897813.79040
    860735.14600  20847010.48100                    670702.16700  20847015.07900
 96  9  7 19 32 30.0010000  0  9  1  3  6 17 21 22 23 26 28
  -2286006.02400  23947099.72400                  -1642875.77640  23947105.06740
  -1564917.82900  22607926.59100                  -1334493.81240  22607932.39240
   2843484.40600  24155273.13000                   2046005.59540  24155280.31740
   1355250.89600  21036909.89600                   1052378.21640  21036915.59140
  -1915331.65000  21901356.13000                  -1486193.33740  21901361.86040
   1748028.53300  25109169.95800                   1249433.60940  25109174.24740
    985293.85300  21036710.43500                    766969.73840  21036715.97840
   4048593.87900  23916491.70800                   3154747.41640  23916497.62640
    894007.57500  20853341.94200                    696628.71900  20853346.59500
 96  9  7 19 33  0.0010000  0  9  1  3  6 17 21 22 23 26 28
  -2384268.04100  23928400.31700                  -1719443.55540  23928406.47040
  -1623148.81100  22596845.71600                  -1379868.60040  22596851.48140
   2967870.61700  24178943.09900                   2142929.80440  24178948.84140
   1392666.66200  21044029.91100                   1081533.34040  21044035.81740
  -1952090.90400  21894361.15300                  -1514836.89840  21894366.95440
   1821561.24900  25123162.53600                   1306731.83440  25123175.44240
   1013778.69200  21042130.88000                    789165.71140  21042136.18840
   4147083.00500  23935234.14600                   3231492.15440  23935239.04440
    927874.46800  20859786.55200                    723018.49600  20859791.18100
 96  9  7 19 33 30.0010000  0  9  1  3  6 17 21 22 23 26 28
  -2482443.55300  23909718.61400                  -1795943.83640  23909724.46240
  -1680927.90300  22585850.98900                  -1424891.24540  22585856.82540
   3092348.71300  24202629.52100                   2239925.63740  24202634.39640
   1430363.99700  21051203.52100                   1110907.87140  21051209.15740
  -1988635.29500  21887406.97400                  -1543313.03340  21887412.54040
   1895223.92300  25137180.84900                   1364131.28840  25137186.02840
   1042511.24000  21047598.27100                    811554.70840  21047603.72040
   4245845.49700  23954028.22400                   3308449.91640  23954033.21640
    962319.30600  20866341.27100                    749858.61100  20866345.78600
 96  9  7 19 34  0.0010000  0  9  1  3  6 17 21 22 23 26 28
  -2580495.52200  23891059.89600                  -1872347.85740  23891065.94240
  -1738233.72400  22574945.96600                  -1469545.13340  22574951.82540
   3216941.84600  24226339.58300                   2337011.08440  24226345.45440
   1468349.63500  21058431.91900                   1140507.04940  21058437.43840
  -2024938.71100  21880498.68500                  -1571601.39540  21880504.27440
   1969012.39700  25151222.72400                   1421628.70240  25151228.81740
   1071498.71000  21053114.60600                    834142.34340  21053120.00940
   4344885.44300  23972874.70800                   3385623.85240  23972879.85340
    997358.61700  20873009.03600                    777161.95900  20873013.65300
 96  9  7 19 34 30.0010000  0  9  1  3  6 17 21 22 23 26 28
  -2678425.92800  23872423.60600                  -1948657.22040  23872432.00140
  -1795065.45800  22564131.38000                  -1513829.59240  22564136.64240
   3341653.06500  24250071.29400                   2434188.51140  24250077.38840
   1506621.71400  21065714.48900                   1170329.42840  21065720.20840
  -2060979.81900  21873640.24700                  -1599685.36440  21873645.89640
   2042921.92800  25165285.83300                   1479220.62240  25165288.98540
   1100746.89900  21058680.01300                    856933.13440  21058685.38040
   4444215.79000  23991777.00500                   3463024.07740  23991781.30640
   1032997.17900  20879790.84100                    804932.25300  20879795.47000
 96  9  7 19 35  0.0010000  0  9  1  3  6 17 21 22 23 26 28
  -2776243.77800  23853810.20000                  -2024878.88640  23853817.18840
  -1851444.79100  22553402.81700                  -1557761.53340  22553408.05640
   3466458.35800  24273821.45000                   2531439.31640  24273827.55640
   1545149.17100  21073046.22400                   1200350.80540  21073052.10640
  -2096777.07400  21866828.27100                  -1627579.32140  21866834.09540
   2116937.62100  25179371.73900                   1536895.14240  25179377.83340
   1130235.85600  21064291.84100                    879911.53540  21064297.31340
   4543826.27800  24010732.23100                   3540642.60840  24010738.18540
   1069212.77400  20886682.45800                    833152.17800  20886686.99300
 96  9  7 19 35 30.0010000  0  9  1  3  6  9 17 21 23 26 28
  -2873931.11900  23835221.46600                  -2100998.74640  23835226.75140
  -1907374.74300  22542759.48900                  -1601343.30140  22542764.72840
   3591356.06900  24297588.73900                   2628762.08740  24297594.59940
                  24906476.47400
   1583958.13400  21080431.46600                   1230591.53740  21080437.22040
  -2132322.85300  21860064.09100                  -1655277.31640  21860069.68140
   1159970.43100  21069950.24700                    903081.32440  21069955.59140
   4643733.29700  24029743.60600                   3618492.20940  24029748.59940
   1106008.93600  20893684.46600                    861824.49200  20893689.09100
 96  9  7 19 36  0.0010000  0  9  1  3  6  9 17 21 23 26 28
  -2971508.64300  23816653.16100                  -2177033.07740  23816660.99340
  -1962870.41400  22532199.26300                  -1644586.67240  22532204.71240
   3716333.36000  24321370.66900                   2726146.83340  24321376.89240
    -49224.42500  24896786.36400
   1623064.09800  21087873.15300                   1261063.70640  21087878.97840
  -2167610.85000  21853348.86400                  -1682774.44240  21853354.51340
   1189964.60100  21075657.90300                    926453.40140  21075663.27140
   4743950.84900  24048814.31700                   3696583.76740  24048820.03640
   1143380.27200  20900795.98100                    890945.00300  20900800.63000
 96  9  7 19 36 30.0010000  0  9  1  3  6  9 17 21 23 26 28
  -3068970.78800  23798105.54400                  -2252977.59440  23798112.31740
  -2017919.73100  22521723.48100                  -1687482.23440  22521729.14240
   3841398.05300  24345170.06000                   2823599.76040  24345176.51740
    -99946.26300  24887134.91900
   1662486.25600  21095374.81000                   1291782.25940  21095380.48140
  -2202642.77900  21846682.70800                  -1710072.04440  21846688.47440
   1220232.89000  21081417.82500                    950039.07840  21081423.06340
   4844497.21800  24067947.96600                   3774931.54340  24067953.33340
   1181334.82300  20908018.62200                    920519.95700  20908023.16500
 96  9  7 19 37  0.0010000  0  9  1  3  6  9 17 21 23 26 28
  -3166313.51900  23779580.87200                  -2328828.94940  23779587.66940
  -2072537.18200  22511330.22400                  -1730041.27840  22511335.20440
   3966547.56100  24368985.39600                   2921118.73840  24368990.48140
   -150472.15800  24877519.62200                    -17042.43950  24877525.27140
   1702217.37500  21102935.56700                   1322741.54940  21102941.12240
  -2237447.07800  21840059.80200                  -1737192.26840  21840065.47440
   1250743.16500  21087223.73100                    973813.30840  21087229.15740
   4945349.87800  24087139.41900                   3853517.97840  24087145.32540
   1219857.82200  20915349.34100                    950537.86200  20915353.86800
 96  9  7 19 37 30.0010000  0  9  1  3  6  9 17 21 23 26 28
  -3263530.00800  23761081.40300                  -2404582.04540  23761089.92740
  -2126723.14800  22501018.73100                  -1772264.10240  22501024.19240
   4091806.43100  24392821.30200                   3018722.92940  24392826.71640
   -200789.31400  24867943.58300                    -56250.59740  24867950.50140
   1742285.37800  21110560.17700                   1353963.35940  21110565.88440
  -2272021.99300  21833480.55200                  -1764133.75040  21833485.98940
   1281491.52900  21093075.02800                    997773.06340  21093080.32540
   5046501.47300  24106388.04400                   3932337.39440  24106394.80640
   1258958.45900  20922789.94200                    981005.87300  20922794.45000
 96  9  7 19 38  0.0010000  0  9  1  3  6  9 17 21 23 26 28
  -3360633.49500  23742604.05200                  -2480247.09040  23742611.61440
  -2180479.88700  22490789.06700                  -1814152.46040  22490794.24740
   4217154.77500  24416673.98100                   3116396.80640  24416681.53240
   -250902.39100  24858407.83300                    -95299.65940  24858415.94640
   1782664.01500  21118243.95800                   1385427.22040  21118249.88840
  -2306395.34100  21826939.28600                  -1790918.17440  21826944.73540
   1312449.12000  21098965.88800                   1021895.85840  21098971.19640
   5147918.44400  24125687.04400                   4011363.58240  24125693.36040
   1298625.09900  20930338.16100                   1011914.92800  20930342.94600
 96  9  7 19 38 30.0010000  0  9  1  3  6  9 17 21 23 26 28
  -3457605.23000  23724151.46600                  -2555809.34640  23724157.24340
  -2233791.95800  22480644.37200                  -1855694.32740  22480649.62240
   4342574.80400  24440540.95800                   3214126.57640  24440544.63840
   -300814.03700  24848910.08300                   -134191.78140  24848914.70040
   1823339.39800  21125984.18500                   1417122.29640  21125990.02140
  -2340575.66500  21820435.01300                  -1817552.18740  21820440.91940
   1343584.67200  21104890.93500                   1046157.32040  21104896.41940
   5249581.62700  24145033.18500                   4090581.59840  24145037.68540
   1338860.40300  20937994.66900                   1043267.09100  20937999.42700
 96  9  7 19 39  0.0010000  0  9  1  3  6  9 17 21 23 26 28
  -3554434.21400  23705725.92700                  -2631260.37140  23705732.12640
  -2286650.76800  22470585.40300                  -1896882.99840  22470591.05240
   4468057.56700  24464419.23100                   3311905.26340  24464426.12640
   -350524.99100  24839448.86400                   -172927.50640  24839453.66940
   1864318.26800  21133782.42700                   1449053.86340  21133788.35640
  -2374542.38000  21813971.22400                  -1844019.75140  21813976.87240
   1374902.38400  21110850.42700                   1070560.72440  21110855.99340
   5351492.01300  24164426.08300                   4169992.24540  24164430.38440
   1379670.75800  20945760.71600                   1075067.35000  20945765.45000
 96  9  7 19 39 30.0010000  0  9  1  3  6  9 17 21 23 26 28
  -3651145.34200  23687322.96600                  -2706619.66840  23687329.61040
  -2339056.14900  22460613.40300                  -1937718.36740  22460618.77140
   4593569.13500  24488303.81000                   3409706.28740  24488311.67740
   -400048.10000  24830025.12200                   -211516.88140  24830032.81340
   1905583.10000  21141634.77100                   1481208.27040  21141640.60640
  -2408306.70700  21807545.88000                  -1870329.59940  21807551.61040
   1406407.53400  21116845.63800                   1095110.18440  21116851.09940
   5453629.13000  24183862.75500                   4249579.57040  24183868.45040
   1421040.71600  20953633.09900                   1107303.66200  20953637.84500
 96  9  7 19 40  0.0010000  0  9  1  3  6  9 17 21 23 26 28
  -3747730.27400  23668943.34900                  -2781880.58540  23668949.02140
  -2390989.65000  22450731.01300                  -1978186.02340  22450736.39240
   4719090.50000  24512189.34100                   3507515.00840  24512197.68840
   -449385.14300  24820636.29400                   -249961.33440  24820647.36040
   1947130.41500  21149540.91900                   1513582.78440  21149546.76740
  -2441861.80000  21801160.88800                  -1896476.41340  21801166.73540
   1438117.98000  21122879.90300                   1119819.61140  21122885.44640
   5556011.19800  24203344.65300                   4329357.76840  24203350.31340
   1462972.83800  20961612.56700                   1139978.02600  20961617.19200
 96  9  7 19 40 30.0010000  0  9  1  3  6  9 17 21 23 26 28
  -3844179.13900  23650589.98900                  -2857035.38340  23650594.94640
  -2442463.16900  22440935.62200                  -2018295.25640  22440940.66140
   4844629.61000  24536079.48100                   3605337.58640  24536087.65340
   -498543.19500  24811283.13800                   -288266.25140  24811289.91140
   1988968.94000  21157502.43500                   1546184.21940  21157508.29440
  -2475200.50600  21794816.51300                  -1922454.61840  21794822.30240
   1470049.15700  21128956.43500                   1144701.03440  21128961.82540
   5658638.02300  24222874.31000                   4409326.68740  24222879.79440
   1505460.33900  20969697.71600                   1173085.14700  20969702.38000
 96  9  7 19 41  0.0010000  0  9  1  3  6  9 17 21 23 26 28
  -3940490.02800  23632261.98900                  -2932082.74840  23632268.77440
  -2493478.83200  22431227.64600                  -2058047.71340  22431232.96640
   4970221.29700  24559978.70000                   3703201.13640  24559985.20440
   -547504.71900  24801966.37200                   -326418.02740  24801970.34540
   2031121.84500  21165523.86400                   1579030.62140  21165529.68840
  -2508316.73800  21788514.81000                  -1948259.46440  21788520.71640
   1502227.58100  21135079.59100                   1169775.12940  21135085.01740
   5761517.26800  24242451.36400                   4489492.30540  24242456.57940
   1548504.10800  20977888.77100                   1206625.73000  20977893.48900
 96  9  7 19 41 30.0010000  0  9  1  3  6  9 17 21 23 26 28
  -4036661.47600  23613961.17700                  -3007021.53640  23613968.69240
  -2544032.30300  22421607.35600                  -2097440.01740  22421612.92340
   5095879.37700  24583890.85600                   3801116.37140  24583896.98540
   -596253.29000  24792689.74700                   -364403.86840  24792696.42740
   2073585.89900  21173604.70000                   1612119.48240  21173610.60640
  -2541220.37600  21782253.51300                  -1973898.65040  21782259.25540
   1534644.55900  21141248.31700                   1195035.10340  21141253.77840
   5864649.75600  24262076.84100                   4569855.22540  24262082.77140
   1592105.81100  20986185.88000                   1240601.06000  20986190.64600
 96  9  7 19 42  0.0010000  0  9  1  3  6  9 17 21 23 26 28
  -4132670.44200  23595690.86400                  -3081833.67140  23595697.39240
  -2594127.19100  22412074.91100                  -2136474.97640  22412080.56040
   5221601.08900  24607815.28600                   3899081.21640  24607822.27440
   -644771.84000  24783455.00500                   -402210.51440  24783460.97040
   2116363.89900  21181744.92700                   1645452.97440  21181750.88040
  -2573898.30000  21776034.99700                  -1999361.95340  21776040.85640
   1567287.48600  21147460.31000                   1220471.14140  21147465.80640
   5968048.50000  24281752.95800                   4650425.61240  24281758.40740
   1636268.91300  20994589.81700                   1275013.85500  20994594.61000
 96  9  7 19 42 30.0010000  0  9  1  3  6  9 17 21 23 26 28
  -4228522.32300  23577450.68500                  -3156523.34340  23577456.23940
  -2643762.86800  22402629.56000                  -2175152.12040  22402635.17340
   5347391.81900  24631752.38800                   3997099.82340  24631758.56340
   -693043.84400  24774269.80200                   -439825.06840  24774274.26740
   2159463.68500  21189946.80200                   1679037.21240  21189952.64940
  -2606342.34400  21769861.16100                  -2024643.01640  21769866.96240
   1600146.98700  21153713.27100                   1246075.93840  21153718.70840
   6071711.17400  24301479.44200                   4731201.71040  24301484.70440
   1680997.08800  21003101.31700                   1309866.96000  21003106.07500
 96  9  7 19 43  0.0010000  0  9  1  3  6  9 17 21 23 26 28
  -4324246.27500  23559235.18500                  -3231113.31740  23559240.75140
  -2692936.21700  22393272.02800                  -2213469.00740  22393277.66540
   5473227.36900  24655698.13800                   4095153.39940  24655706.07540
   -741073.62800  24765130.97400                   -477250.78040  24765138.75940
   2202858.13000  21198204.48100                   1712851.04540  21198210.28240
  -2638572.55800  21763727.84100                  -2049757.45440  21763733.66540
   1633201.30900  21160003.24700                   1271832.55040  21160008.66140
   6175622.99800  24321253.07500                   4812171.90840  24321258.98140
   1726279.82100  21011718.29400                   1345152.18400  21011723.07500
 96  9  7 19 43 30.0010000  0  9  1  3  6  9 17 21 23 26 28
  -4419841.39600  23541043.57500                  -3305602.94940  23541049.10640
  -2741641.35300  22384003.96600                  -2251421.05040  22384009.77840
   5599073.40500  24679646.08300                   4193215.11340  24679653.14240
   -788862.13700  24756037.12200                   -514488.56440  24756042.77140
   2246534.15400  21206515.83300                   1746884.29640  21206521.71640
  -2670586.34300  21757635.92700                  -2074703.25040  21757641.81040
   1666453.97100  21166330.86400                   1297743.70940  21166336.33740
   6279773.52400  24341072.75500                   4893328.13740  24341078.55640
   1772116.12200  21020440.66100                   1380868.76700  21020445.51700
 96  9  7 19 44  0.0010000  0  9  1  3  6  9 17 21 23 26 28
  -4515298.94700  23522878.61400                  -3379985.41440  23522884.46240
  -2789873.03600  22374825.65300                  -2289004.18040  22374831.50140
   5724934.92400  24703597.14600                   4291288.89440  24703605.49340
   -836412.08600  24746988.22400                   -551540.44940  24746994.37640
   2290512.04200  21214884.35600                   1781152.76440  21214890.18140
  -2702377.42400  21751586.34100                  -2099475.51640  21751592.15340
   1699927.15800  21172700.66900                   1323826.70140  21172706.29440
   6384154.83900  24360935.67700                   4974664.18240  24360941.26740
   1818508.74900  21029268.95000                   1417018.84500  21029273.79800
 96  9  7 19 44 30.0010000  0  9  1  3  6  9 17 21 23 26 28
  -4610634.60000  23504735.95800                  -3454272.84340  23504741.53640
  -2837621.35400  22365739.45800                  -2326210.66340  22365744.97840
   5850820.12100  24727552.27800                   4389381.06440  24727558.98140
   -883743.03300  24737981.27800                   -588421.69040  24737987.78240
   2334786.46400  21223309.61400                   1815652.30040  21223315.27440
  -2733955.69100  21745577.33300                  -2124081.94340  21745583.11040
   1733637.12400  21179115.55200                   1350094.19440  21179121.00140
   6488738.33800  24380836.99700                   5056157.76440  24380841.90740
   1865448.62400  21038201.27800                   1453595.35300  21038206.06700
 96  9  7 19 45  0.0010000  0  9  1  3  6  9 17 21 23 26 28
  -4705825.39300  23486621.47400                  -3528447.41140  23486627.73140
  -2884869.17800  22356748.41900                  -2363027.14140  22356753.89240
   5976737.24000  24751513.49700                   4487498.15940  24751520.22440
   -930851.23700  24729017.19200                   -625129.39640  24729025.61040
   2379363.20100  21231792.49700                   1850387.40940  21231798.06340
  -2765307.18400  21739611.05200                  -2148511.67040  21739616.71240
   1767600.37000  21185578.43500                   1376559.05440  21185583.86040
   6593527.43700  24400777.89600                   5137811.57740  24400782.37240
   1912940.13600  21047238.66100                   1490601.71100  21047243.25900
 96  9  7 19 45 30.0010000  0  9  1  3  6  9 17 21 23 26 28
  -4800858.26000  23468536.95000                  -3602498.93740  23468543.16140
  -2931629.45100  22347850.32500                  -2399463.71340  22347855.72840
   6102679.51800  24775479.55200                   4585634.84640  24775486.89240
   -977749.00100  24720093.05200                   -661673.02440  24720099.80240
   2424241.73500  21240332.44200                   1885357.67240  21240338.14940
  -2796427.30300  21733688.91100                  -2172761.10340  21733694.77140
   1801802.12200  21192086.65300                   1403209.76740  21192092.29040
   6698521.62000  24420757.61400                   5219625.22640  24420763.31040
   1960972.68400  21056378.91100                   1528029.64800  21056383.62200
 96  9  7 19 46  0.0010000  0  9  1  3  6  9 17 21 23 26 28
  -4895709.93200  23450488.37200                  -3676409.24640  23450494.23140
  -2977877.43300  22339049.19200                  -2435501.10040  22339054.33740
   6228671.15900  24799454.99700                   4683810.03340  24799462.24340
  -1024399.81200  24711215.59100                   -698024.22540  24711220.25540
   2469445.36500  21248934.52100                   1920581.26740  21248940.33340
  -2827300.36700  21727814.16100                  -2196818.03540  21727820.12640
   1836242.23400  21198640.57500                   1430046.21140  21198646.07140
   6803756.99600  24440784.13800                   5301626.76040  24440788.84940
   2009563.34500  21065625.55200                   1565892.48400  21065630.13800
 96  9  7 19 46 30.0010000  0  9  1  3  6  9 17 21 23 26 28
  -4990384.12100  23432472.81000                  -3750181.25240  23432478.75140
  -3023628.69000  22330343.56000                  -2471151.42440  22330349.00940
   6354694.69000  24823436.81000                   4782010.02340  24823444.72440
  -1070801.68600  24702385.32500                   -734181.54440  24702390.70440
   2514942.98500  21257592.18500                   1956033.94240  21257598.02140
  -2857932.42000  21721985.19200                  -2220687.15640  21721990.93540
   1870890.74900  21205233.90300                   1457045.04840  21205239.45840
   6909248.76300  24460857.05200                   5383828.10940  24460860.81340
   2058704.76300  21074976.85600                   1604184.49000  21074981.50500
 96  9  7 19 47  0.0010000  0  9  1  3  6  9 17 21 23 26 28
  -5084875.17100  23414491.53600                  -3823810.56340  23414497.98140
  -3068908.35200  22321726.52800                  -2506434.26640  22321732.35340
   6480731.89900  24847421.45000                   4880220.69640  24847428.02440
  -1116948.86600  24693603.71600                   -770140.38040  24693611.95840
   2560727.55500  21266304.78600                   1991710.21840  21266310.77440
  -2888351.61400  21716196.52800                  -2244390.41140  21716202.09540
   1905712.60400  21211860.23900                   1484178.95440  21211865.72440
   7015003.67000  24480982.57500                   5466234.47840  24480987.87240
   2108388.02200  21084431.22400                   1642898.70100  21084435.98500
 96  9  7 19 47 30.0010000  0  9  1  3  6  9 17 21 23 26 28
  -5179184.49800  23396544.01300                  -3897298.34040  23396550.48140
  -3113721.33900  22313199.25500                  -2541353.46940  22313204.95040
   6606773.12200  24871405.87200                   4978434.46340  24871413.49340
  -1162828.38800  24684873.79400                   -805890.60440  24684880.56740
   2606796.98400  21275071.47400                   2027608.45640  21275077.19240
  -2918584.36300  21710443.52800                  -2267948.39040  21710449.42340
   1940704.45500  21218519.16100                   1511445.32040  21218524.44640
   7121014.86200  24501155.03600                   5548840.54440  24501160.88440
   2158611.06000  21093988.25500                   1682033.51600  21093993.07500
 96  9  7 19 48  0.0010000  0  9  1  3  6  9 17 21 23 26 28
  -5273314.37000  23378632.22400                  -3970646.23440  23378638.09540
  -3158064.92700  22304760.65300                  -2575906.90340  22304766.18540
   6732824.45000  24895393.16100                   5076656.09140  24895401.48540
  -1208432.04800  24676195.73100                   -841425.89140  24676201.15740
   2653166.89000  21283895.27100                   2063740.83940  21283901.06040
  -2948634.01200  21704725.14600                  -2291363.69640  21704730.93540
   1975880.83500  21225212.93500                   1538855.48040  21225218.12640
   7227275.63300  24521376.31700                   5631641.08540  24521382.27140
   2209383.29000  21103650.00500                   1721596.27200  21103654.73100
 96  9  7 19 48 30.0010000  0  9  1  3  6  9 17 21 23 26 28
  -5367270.11600  23360753.28600                  -4043858.45040  23360759.69640
  -3201951.75700  22296409.63800                  -2610104.43040  22296415.23940
   6858887.32000  24919382.31700                   5174886.70140  24919389.29440
  -1253785.76700  24667564.14600                   -876766.42740  24667568.81040
   2699825.54200  21292774.56700                   2100098.21440  21292780.25140
  -2978502.29300  21699041.29400                  -2314637.67240  21699046.84940
   2011243.45000  21231942.37200                   1566410.75540  21231947.72840
   7333747.23100  24541636.91100                   5714605.94040  24541642.78240
   2260696.49400  21113414.64600                   1761580.57200  21113419.30200
 96  9  7 19 49  0.0010000  0  9  1  3  6  9 17 21 23 26 28
  -5461047.89200  23342908.58300                  -4116931.98540  23342913.92740
  -3245361.10300  22288148.92700                  -2643929.88840  22288154.49340
   6984952.30200  24943370.98900                   5273118.95140  24943377.95440
  -1298881.24000  24658983.03600                   -911905.75240  24658988.04040
   2746793.67800  21301712.25500                   2136696.73940  21301717.77440
  -3008182.32600  21693393.35600                  -2337764.95740  21693399.08740
   2046806.77000  21238709.84900                   1594122.42240  21238715.20440
   7440397.04200  24561931.16900                   5797709.62340  24561936.04440
   2312549.71000  21123281.99700                   1801985.64600  21123286.70000
 96  9  7 19 49 30.0010000  0  9  1  3  6  9 17 21 23 26 28
  -5554654.86000  23325093.77800                  -4189872.46040  23325100.24740
  -3288299.34800  22279978.09900                  -2677388.25740  22279983.79440
   7111016.22900  24967360.81700                   5371350.43940  24967368.84940
  -1343727.16300  24650449.68500                   -946850.53940  24650454.24340
   2794064.67400  21310707.55200                   2173531.26840  21310713.18840
  -3037636.53900  21687788.38000                  -2360716.28840  21687794.16940
   2082566.77700  21245514.81700                   1621987.35640  21245520.27840
   7547202.95400  24582256.91900                   5880934.97740  24582262.42740
   2364939.34000  21133251.48900                   1842808.71400  21133256.20800
 96  9  7 19 50  0.0010000  0  8  1  3  9 17 21 23 26 28
  -5648098.02300  23307312.53600                  -4262685.26440  23307318.38440
  -3330776.14200  22271894.98900                  -2710487.05340  22271900.22840
  -1388336.21100  24641960.76300                   -981610.81040  24641966.81040
   2841624.92900  21319757.85600                   2210591.19340  21319763.61040
  -3066848.40700  21682229.95000                  -2383478.77340  21682235.48140
   2118503.58100  21252353.26300                   1649990.05640  21252358.70040
   7654149.77300  24602608.15300                   5964270.12140  24602613.18140
   2417854.67000  21143320.93500                   1884041.41500  21143325.61400
 96  9  7 19 50 30.0010000  0  8  1  3  9 17 21 23 26 28
  -5741347.77400  23289569.51300                  -4335347.32740  23289574.78640
  -3372751.96600  22263907.62200                  -2743195.49140  22263912.74340
  -1432664.73300  24633526.09900                  -1016152.45840  24633533.02840
   2889488.84100  21328866.11400                   2247887.73940  21328871.93840
  -3095787.14300  21676722.92700                  -2406028.42140  21676728.38840
   2154634.94900  21259228.64600                   1678144.36240  21259234.18840
   7761267.36300  24622990.65300                   6047738.30040  24622995.91540
   2471310.89800  21153493.26300                   1925695.60300  21153497.96600
 96  9  7 19 51  0.0010000  0  8  1  3  9 17 21 23 26 28
  -5834418.58100  23271857.63000                  -4407869.99940  23271863.43140
  -3414230.15400  22256014.28600                  -2775516.14940  22256019.20840
  -1476708.86300  24625143.80200                  -1050472.54940  24625150.74340
   2937650.04300  21338030.91100                   2285415.92840  21338036.82940
  -3124472.06000  21671264.22400                  -2428380.30140  21671270.01340
   2190944.60100  21266138.19200                   1706437.58740  21266143.78240
   7868563.18900  24643409.39600                   6131345.36740  24643414.00140
   2525295.81600  21163766.42700                   1967761.74900  21163770.95800
 96  9  7 19 51 30.0010000  0  8  1  3  9 17 21 23 26 28
  -5927312.74600  23254179.49700                  -4480255.05140  23254184.93540
  -3455207.29200  22248216.60600                  -2807446.38940  22248221.71640
  -1520464.52900  24616817.04400                  -1084567.86840  24616824.39640
   2986111.34300  21347252.63000                   2323177.96840  21347258.52440
  -3152907.75200  21665853.10600                  -2450537.97440  21665858.67340
   2227435.37200  21273082.33300                   1734871.94840  21273087.72440
   7976065.10900  24663865.82500                   6215113.07140  24663871.89640
   2579812.80600  21174140.65300                   2010242.49900  21174145.20400
 96  9  7 19 52  0.0010000  0  8  1  3  9 17 21 23 26 28
  -6020037.86900  23236536.70000                  -4552508.31540  23236541.56340
  -3495653.61800  22240519.98900                  -2838962.99840  22240525.64940
  -1563921.90300  24608547.74700                  -1118430.69840  24608553.70040
   3034888.30300  21356534.86400                   2361185.96740  21356540.79440
  -3181126.47000  21660483.33300                  -2472526.58040  21660489.00540
   2264125.29200  21280064.38000                   1763461.48540  21280069.87640
   8083794.75200  24684367.12200                   6299058.21140  24684371.89240
   2634862.36700  21184616.29400                   2053138.23700  21184620.91500
 96  9  7 19 52 30.0010000  0  8  1  3  9 17 21 23 26 28
  -6112589.57800  23218921.95000                  -4624626.50840  23218928.37240
  -3535550.31600  22232927.60600                  -2870051.33440  22232932.88040
  -1607087.25600  24600332.84100                  -1152065.97640  24600338.33740
   3084004.20600  21365880.93500                   2399458.08940  21365886.85340
  -3209136.39900  21655153.10600                  -2494352.49540  21655158.81340
   2301028.21600  21287086.58300                   1792216.99940  21287091.93840
   8191758.21800  24704911.47400                   6383185.55540  24704917.81340
   2690452.43700  21195194.65300                   2096455.15200  21195199.27400
 96  9  7 19 53  0.0010000  0  8  1  3  9 17 21 23 26 28
  -6204966.11100  23201344.89600                  -4696608.17640  23201351.31740
  -3574908.51800  22225438.15300                  -2900720.06640  22225443.59140
  -1649978.11500  24592171.34900                  -1185487.42840  24592179.72040
   3133461.25600  21375292.45800                   2437996.02740  21375298.41140
  -3236952.81700  21649859.70000                  -2516027.61740  21649865.24340
   2338141.69800  21294149.19200                   1821136.58540  21294154.60640
   8299941.01000  24725498.03600                   6467483.79640  24725502.98140
   2746582.31000  21205875.73900                   2140192.69300  21205880.36000
 96  9  7 19 53 30.0010000  0  8  1  3  9 17 21 23 26 28
  -6297155.27100  23183801.36400                  -4768443.84640  23183807.13040
  -3613732.75300  22218050.43500                  -2930972.71740  22218055.72040
  -1692601.88300  24584059.37200                  -1218700.69340  24584065.72440
   3183264.84700  21384769.85600                   2476803.99740  21384775.61040
  -3264574.68600  21644603.89600                  -2537551.15740  21644609.29840
   2375470.32600  21301252.69200                   1850223.81240  21301258.20040
   8408333.59800  24746124.73900                   6551945.51740  24746131.12640
   2803247.21500  21216658.76300                   2184347.13300  21216663.29800
 96  9  7 19 54  0.0010000  0  8  1  3  9 17 21 23 26 28
  -6389149.28100  23166295.88800                  -4840127.43140  23166302.92340
  -3652040.88400  22210760.84100                  -2960823.20740  22210766.00940
  -1734970.64700  24575996.59900                  -1251715.30140  24576004.81740
   3233406.45800  21394311.52100                   2515875.36240  21394317.25140
  -3292008.71800  21639383.11400                  -2558928.31140  21639388.43540
   2412998.07400  21308393.75500                   1879466.20640  21308399.29840
   8516899.04600  24766784.30200                   6636541.93640  24766789.42340
   2860434.87900  21227541.17700                   2228908.92700  21227545.93100
 96  9  7 19 54 30.0010000  0  8  1  3  9 17 21 23 26 28
  -6480900.13800  23148836.06700                  -4911621.53040  23148842.16140
  -3689830.28900  22203569.07500                  -2990269.49640  22203574.41940
  -1777059.55700  24567988.67700                  -1284511.82540  24567994.66540
   3283892.23500  21403918.44200                   2555214.90940  21403924.32540
  -3319227.48400  21634203.41900                  -2580137.73540  21634208.98540
   2450735.16000  21315574.91900                   1908871.72040  21315580.46240
   8625648.07100  24787477.97400                   6721281.43040  24787483.08340
   2918165.80100  21238527.04400                   2273894.04000  21238531.79800
 96  9  7 19 55  0.0010000  0  8  1  3  9 17 21 23 26 28
  -6572401.67800  23131424.20000                  -4982921.37240  23131429.87240
  -3727119.35600  22196473.44200                  -3019325.91140  22196478.82140
  -1818852.25500  24560035.63800                  -1317077.51540  24560042.10640
   3334695.04700  21413585.83300                   2594801.50240  21413591.82140
  -3346232.87600  21629064.50500                  -2601180.89440  21629070.20040
   2488672.30400  21322794.13000                   1938433.11940  21322799.40340
   8734573.69700  24808206.12200                   6806158.50840  24808212.41540
   2976427.42100  21249613.95000                   2319292.67700  21249618.71200
 96  9  7 19 55 30.0010000  0  8  1  3  9 17 21 23 26 28
  -6663649.15600  23114059.19200                  -5054023.28140  23114065.08740
  -3763899.75800  22189474.25500                  -3047985.96540  22189479.37640
  -1860333.15100  24552141.68500                  -1349400.21640  24552147.31040
   3385817.88000  21423314.45000                   2634637.45540  21423320.41540
  -3373010.89400  21623968.99700                  -2622046.87840  21623974.42340
   2526813.13300  21330052.18500                   1968153.23540  21330057.52840
   8843678.96600  24828968.24700                   6891175.51840  24828972.88840
   3035225.33700  21260802.97400                   2365109.20700  21260807.52400
 96  9  7 19 56  0.0010000  0  8  1  3  9 17 21 23 26 28
  -6754639.58400  23096746.07500                  -5124924.86040  23096751.58340
  -3800161.13100  22182574.13800                  -3076241.58040  22182579.83340
  -1901489.00700  24544309.78600                  -1381469.69440  24544316.57140
   3437245.16300  21433100.89600                   2674710.64340  21433106.68540
  -3399556.87200  21618917.25500                  -2642732.04740  21618922.63440
   2565145.50700  21337346.40300                   1998022.60540  21337352.01740
   8952970.97100  24849765.29400                   6976338.10640  24849770.23940
   3094564.89000  21272094.82500                   2411347.79600  21272099.55600
 96  9  7 19 56 30.0010000  0  8  1  3  9 17 21 23 26 28
  -6845374.02900  23079476.56000                  -5195627.00040  23079483.15740
  -3835880.84400  22175776.79400                  -3104075.11540  22175781.96240
  -1942294.12500  24536546.19200                  -1413265.83140  24536550.82140
   3488977.25400  21442945.05200                   2715021.34540  21442950.93540
  -3425858.99900  21613912.28600                  -2663227.20740  21613917.89940
   2603674.69800  21344678.50500                   2028045.34640  21344684.10640
   9062475.88800  24870603.27100                   7061666.58940  24870609.81040
   3154453.31700  21283491.17700                   2458014.07600  21283495.97000
 96  9  7 19 57  0.0010000  0  8  1  3  9 17 21 23 26 28
  -6935860.05800  23062260.23100                  -5266135.50740  23062266.44240
  -3871043.82400  22169085.45000                  -3131474.84740  22169090.72440
  -1982745.48200  24528847.38800                  -1444786.29140  24528854.49340
   3541022.45900  21452848.95000                   2755576.03740  21452854.90340
  -3451900.31100  21608956.79400                  -2683519.13640  21608962.37240
   2642406.16800  21352048.86400                   2058225.70740  21352054.09140
   9172177.00900  24891479.29400                   7147147.94540  24891485.16540
   3214890.17800  21294991.90300                   2505107.71000  21294996.77800
 96  9  7 19 57 30.0010000  0  8  1  3  9 17 21 23 26 28
  -7026095.75700  23045086.84100                  -5336449.00540  23045092.50140
  -3905635.10900  22162503.24700                  -3158429.09540  22162508.33340
  -2022846.41700  24521216.01300                  -1476033.76940  24521222.44640
   3593386.99300  21462813.63800                   2796379.55640  21462819.54440
  -3477673.96200  21604052.12200                  -2703602.50240  21604057.79440
   2681337.90100  21359457.37200                   2088562.11240  21359462.72840
   9282071.23700  24912391.22400                   7232779.77140  24912396.84940
   3275878.11100  21306597.52100                   2552630.75000  21306602.41900
 96  9  7 19 58  0.0010000  0  8  1  3  9 17 21 23 26 28
  -7116058.34400  23027968.25500                  -5406549.68540  23027974.34940
  -3939635.05600  22156033.25500                  -3184922.56040  22156038.14240
  -2062581.28100  24513654.45800                  -1506995.98140  24513661.30240
   3646084.50800  21472841.79400                   2837442.53440  21472847.70040
  -3503160.28200  21599202.40300                  -2723461.96940  21599208.07540
   2720484.54000  21366906.66900                   2119065.97740  21366912.07140
   9392175.22500  24933342.89600                   7318575.06940  24933347.39640
   3337427.44200  21318309.95000                   2600591.24400  21318314.83700
 96  9  7 19 58 30.0010000  0  9  1  3  9 17 21 23 26 28 31
  -7205735.92200  23010904.12200                  -5476428.28340  23010910.28640
  -3973038.79100  22149676.54400                  -3210951.44840  22149681.93540
  -2101942.68600  24506164.91100                  -1537667.16940  24506171.06340
   3699137.40200  21482937.33300                   2878782.42840  21482943.09940
  -3528349.60600  21594408.99700                  -2743090.00840  21594414.68140
   2759870.92500  21374401.61400                   2149756.65940  21374407.02840
   9502477.99200  24954334.28600                   7404525.21740  24954341.54440
   3399541.53400  21330129.89600                   2648991.82000  21330134.67700
    -30093.11010  24632785.52100
 96  9  7 19 59  0.0010000  0  9  1  3  9 17 21 23 26 28 31
  -7295109.48500  22993895.90300                  -5546069.97140  22993901.98540
  -4005855.35900  22143431.56700                  -3236522.79540  22143437.27440
  -2140941.29000  24498743.97400                  -1568055.64340  24498749.85640
   3752558.88300  21493103.04400                   2920409.54240  21493108.93840
  -3553250.96700  21589670.58300                  -2762493.65540  21589676.18540
   2799502.81000  21381943.38000                   2180638.64240  21381948.77140
   9612974.44100  24975361.34900                   7490626.27440  24975365.69640
   3462220.89700  21342057.35600                   2697832.85700  21342062.29000
   -111957.67000  24916999.71600
 96  9  7 19 59 30.0010000  0  9  1  3  9 17 21 23 26 28 31
  -7384172.51000  22976948.86400                  -5615469.69040  22976954.68840
  -4038084.97600  22137298.70000                  -3261636.79040  22137303.97440
  -2179570.16200  24491393.29400                  -1598156.02240  24491399.91540
   3806354.73800  21503340.02800                   2962328.37040  21503345.68840
  -3577874.25100  21584984.85600                  -2781680.62640  21584990.28240
   2839372.56300  21389530.31700                   2211705.97540  21389535.60340
   9723692.68600  24996429.13000                   7576900.20240  24996432.38840
   3525467.94400  21354092.95800                   2747116.24800  21354097.86800
   -193489.01500  24901485.28600
 96  9  7 20  0  0.0010000  0  9  1  3  9 17 21 23 26 28 31
  -7472939.92500  22960056.95000                  -5684639.05640  22960062.76340
  -4069729.11200  22131277.16100                  -3286294.56640  22131282.35340
  -2217829.00400  24484112.56700                  -1627968.06340  24484118.40340
   3860535.28300  21513650.09100                   3004546.95740  21513655.92740
  -3602235.71000  21580348.84100                  -2800663.58140  21580354.17340
   2879484.43400  21397163.29400                   2242961.97440  21397168.59140
   9834631.88100  25017540.13000                   7663346.24940  25017546.56340
   3589280.08300  21366236.03600                   2796839.97000  21366240.87200
   -274689.80700  24886032.74700                    -52708.66550  24886039.87640
 96  9  7 20  0 30.0010000  0  9  1  3  9 17 21 23 26 28 31
  -7561420.98000  22943218.81000                  -5753585.29840  22943224.82140
  -4100797.83000  22125365.06700                  -3310503.95540  22125370.23540
  -2255726.81500  24476900.57500                  -1657498.80040  24476906.86840
   3915092.28500  21524032.27100                   3047058.88840  21524038.13040
  -3626354.63600  21575759.35600                  -2819457.54640  21575764.68840
   2919824.41000  21404839.82500                   2274395.71440  21404845.28640
   9945780.07200  25038691.81700                   7749955.19740  25038698.19240
   3653647.44200  21378484.73100                   2846996.32300  21378489.57900
   -355562.76100  24870642.95800                   -115726.56340  24870648.05640
 96  9  7 20  1  0.0010000  0  9  1  3  9 17 21 23 26 28 31
  -7649634.25100  22926432.41100                  -5822322.86340  22926438.41140
  -4131296.99800  22119561.05200                  -3334269.53740  22119566.72440
  -2293272.02500  24469756.38000                  -1686754.77140  24469762.49740
   3970007.35400  21534482.16900                   3089849.84140  21534488.15740
  -3650248.23800  21571212.45800                  -2838075.92240  21571217.93140
   2960363.29600  21412554.06000                   2305984.45540  21412559.28640
  10057129.35900  25059880.02800                   7836720.89340  25059887.49740
   3718555.56100  21390836.36400                   2897574.05700  21390841.10300
   -436120.14200  24855314.19200                   -178498.46940  24855321.77840
 96  9  7 20  1 30.0010000  0  9  1  3  9 17 21 23 26 28 31
  -7737598.50800  22909693.78600                  -5890866.38540  22909699.63440
  -4161221.16500  22113866.72400                  -3357587.06840  22113871.77440
  -2330450.55500  24462681.86400                  -1715725.01340  24462687.86440
   4025258.50100  21544996.13000                   3132902.66940  21545001.82540
  -3673911.57800  21566709.35600                  -2856514.88240  21566715.04040
   3001095.81100  21420305.19200                   2337724.07340  21420310.48940
  10168667.49200  25081106.21600                   7923633.63740  25081111.87640
   3783997.42800  21403289.68500                   2948567.69600  21403294.27100
   -516382.03600  24840040.06700                   -241040.30340  24840044.15740
 96  9  7 20  2  0.0010000  0  9  1  3  9 17 21 23 26 28 31
  -7825316.92800  22893001.09900                  -5959218.34240  22893006.97040
  -4190577.45900  22108280.54400                  -3380462.10240  22108285.73540
  -2367255.51900  24455677.49700                  -1744404.19340  24455682.77140
   4080845.13600  21555574.27100                   3176216.90740  21555579.96640
  -3697350.91800  21562248.90300                  -2874779.30140  21562254.69240
   3042027.87000  21428094.27800                   2369619.17740  21428099.86840
  10280371.22900  25102362.18500                   8010675.46540  25102366.29840
   3849966.60400  21415843.23100                   2999972.22700  21415847.76300
   -596350.77000  24824822.76300                   -303353.43140  24824829.07940
 96  9  7 20  2 30.0010000  0  9  1  3  9 17 21 23 26 28 31
  -7912780.33800  22876356.23900                  -6027371.60440  22876362.35640
  -4219383.09200  22102798.83300                  -3402908.04840  22102804.23540
  -2403683.29300  24448745.82500                  -1772789.37840  24448752.43540
   4136759.88500  21566214.22400                   3219786.83140  21566220.07140
  -3720561.29600  21557832.27800                  -2892865.30340  21557837.69240
   3083143.26400  21435918.17700                   2401657.14340  21435923.79040
  10392235.12600  25123650.05200                   8097842.10840  25123656.20440
   3916451.10200  21428494.77800                   3051778.31200  21428499.40300
   -676035.25900  24809659.58300                   -365445.22940  24809665.72440
 96  9  7 20  3  0.0010000  0  9  1  3  9 17 21 23 26 28 31
  -7999992.61900  22859761.19200                  -6095329.16440  22859766.99340
  -4247642.03200  22097421.27800                  -3424928.01740  22097426.99740
  -2439734.69400  24441884.75500                  -1800881.36840  24441890.81340
   4193005.26300  21576917.35600                   3263614.37940  21576923.21640
  -3743538.67000  21553459.79400                  -2910769.74940  21553465.44240
   3124448.61300  21443778.51300                   2433843.11940  21443784.03240
  10504264.06300  25144967.31000                   8185137.31640  25144973.69640
   3983449.72900  21441244.19200                   3103985.00500  21441248.88400
   -755435.87800  24794549.64600                   -427315.80740  24794555.97440
 96  9  7 20  3 30.0010000  0  9  1  3  9 17 21 23 26 28 31
  -8086958.39600  22843212.13000                  -6163094.65640  22843218.20040
  -4275362.08200  22092146.19200                  -3446528.05540  22092151.89940
  -2475430.11700  24435092.39600                  -1828695.94640  24435098.99340
   4249573.92800  21587681.88000                   3307693.83940  21587687.51740
  -3766287.61700  21549130.73900                  -2928496.19240  21549136.20040
   3165947.67700  21451675.52100                   2466180.04640  21451681.08740
  10616442.70800  25166314.76300                   8272549.17140  25166320.45840
   4050951.09600  21454089.38000                   3156583.44700  21454093.93800
   -834557.49100  24779493.54400                   -488968.98940  24779498.57140
 96  9  7 20  4  0.0010000  0  9  1  3  9 17 21 23 26 28 31
  -8173685.82400  22826708.43500                  -6230674.42440  22826714.85640
  -4302552.35100  22086972.22400                  -3467715.28740  22086977.54440
  -2510806.40100  24428360.38000                  -1856261.86640  24428366.55640
   4306462.89600  21598507.76300                   3352022.89140  21598513.82140
  -3788824.53800  21544842.41100                  -2946057.42940  21544848.00140
   3207623.10800  21459605.78600                   2498654.40040  21459611.17740
  10728751.22600  25187686.69200                   8360062.32540  25187693.02140
   4118933.99700  21467026.04400                   3209557.10800  21467030.71600
   -913393.63200  24764491.48900                   -550399.70040  24764497.58340
 96  9  7 20  4 30.0010000  0  9  1  3  9 17 21 23 26 28 31
  -8260177.36700  22810249.65300                  -6298070.38340  22810255.51340
  -4329204.22100  22081900.54400                  -3488482.98540  22081906.04040
  -2545878.74300  24421686.63000                  -1883590.97140  24421692.58340
   4363662.02200  21609392.41100                   3396593.62140  21609398.23540
  -3811134.88100  21540596.68500                  -2963442.10740  21540602.18140
   3249462.78200  21467567.84100                   2531256.73340  21467573.60640
  10841182.41600  25209081.23100                   8447670.91040  25209088.73540
   4187393.22000  21480053.38000                   3262901.93300  21480058.24300
   -991944.44000  24749544.40300                   -611608.07440  24749550.73140
 96  9  7 20  5  0.0010000  0  9  1  3  9 17 21 23 26 28 31
  -8346438.02700  22793834.91900                  -6365286.44540  22793840.73140
  -4355313.96900  22076931.98100                  -3508828.24840  22076937.00940
  -2580661.09700  24415068.31000                  -1910694.06640  24415074.90740
   4421154.69800  21620332.57500                   3441393.09540  21620338.39940
  -3833236.72100  21536390.76300                  -2980664.32240  21536396.31740
   3291456.63500  21475558.91100                   2563979.20440  21475564.72440
  10953708.49000  25230493.95000                   8535353.53940  25230499.96240
   4256317.95900  21493169.39600                   3316609.49500  21493174.19200
  -1070205.01500  24734650.62200                   -672590.25940  24734657.24340
 96  9  7 20  5 30.0010000  0  9  1  3  9 17 21 23 26 28 31
  -8432445.08800  22777468.43500                  -6432304.90040  22777474.39940
  -4380862.77800  22072070.37200                  -3528736.41740  22072075.68140
  -2615122.43400  24408509.99700                  -1937547.01540  24408515.58740
   4478959.58800  21631332.59100                   3486435.84040  21631338.32140
  -3855128.12500  21532225.20000                  -2997722.55940  21532230.88440
   3333610.08600  21483580.60600                   2596826.03640  21483586.51340
  11066329.32500  25251925.97400                   8623110.00040  25251930.54440
   4325714.30800  21506375.09900                   3370684.54600  21506379.91100
  -1148156.36700  24719816.88000                   -733331.53640  24719823.91540
 96  9  7 20  6  0.0010000  0  9  1  3  9 17 21 23 26 28 31
  -8518210.26100  22761147.75500                  -6499134.86640  22761153.47440
  -4405880.99500  22067309.72400                  -3548231.13440  22067315.12640
  -2649259.78400  24402013.52800                  -1964147.54340  24402020.39940
   4537066.43600  21642389.94200                   3531713.88240  21642395.93140
  -3876838.77800  21528093.81000                  -3014639.94440  21528099.28240
   3375889.16800  21491626.02800                   2629770.76140  21491631.70040
  11179032.24500  25273371.88000                   8710930.37740  25273378.06740
   4395565.59400  21519667.33300                   3425114.09800  21519672.13000
  -1225789.92400  24705044.41900                   -793825.16240  24705050.17340
 96  9  7 20  6 30.0010000  0  9  1  3  9 17 21 23 26 28 31
  -8603731.40600  22744873.75500                  -6565774.67640  22744879.70840
  -4430383.76800  22062646.83300                  -3567324.20540  22062652.07140
  -2683061.65000  24395581.55200                  -1990486.63040  24395588.50540
   4595465.89500  21653503.25500                   3577219.93440  21653509.12640
  -3898383.33800  21523993.71600                  -3031427.91040  21523999.35340
   3418280.99200  21499693.02800                   2662803.34240  21499698.52440
  11291812.99600  25294833.40300                   8798811.45940  25294839.05240
   4465864.12500  21533044.79400                   3479892.15000  21533049.61800
  -1303130.58300  24690326.43500                   -854090.69040  24690329.18840
 96  9  7 20  7  0.0010000  0  9  1  3  9 17 21 23 26 28 31
  -8689002.18900  22728646.99700                  -6632219.40440  22728652.92740
  -4454371.75500  22058081.98100                  -3586016.14440  22058087.47840
  -2716514.48300  24389215.98100                  -2016553.75440  24389222.05240
   4654155.36200  21664671.56000                   3622951.97440  21664677.34940
  -3919781.62200  21519921.74700                  -3048101.89140  21519927.51340
   3460802.75700  21507784.60600                   2695937.17340  21507789.99740
  11404677.09000  25316310.70000                   8886757.48240  25316314.21640
   4536608.27800  21546506.91900                   3535017.44000  21546511.72400
  -1380179.00200  24675665.22400                   -914128.34340  24675671.08340
 96  9  7 20  7 30.0010000  0  9  1  3  9 17 21 23 26 28 31
  -8774031.58900  22712466.59100                  -6698476.03240  22712472.48540
  -4477840.69100  22053616.10600                  -3604303.63140  22053621.57940
  -2749621.06800  24382916.28600                  -2042351.05240  24382921.99340
   4713132.53600  21675894.86400                   3668908.20040  21675900.68840
  -3941028.53100  21515878.71600                  -3064657.91940  21515884.43540
   3503455.50600  21515901.20000                   2729173.07440  21515906.62640
  11517637.83100  25337806.89600                   8974778.76540  25337811.09140
   4607796.54200  21560053.59100                   3590488.79200  21560058.40300
  -1456936.01700  24661058.23100                   -973939.00940  24661064.53640
 96  9  7 20  8  0.0010000  0  9  1  3  9 17 21 23 26 28 31
  -8858822.65700  22696330.81700                  -6764546.95640  22696336.74740
  -4500798.29900  22049247.25500                  -3622192.68140  22049252.77440
  -2782400.98900  24376678.35600                  -2067893.78440  24376684.18140
   4772375.75300  21687168.18500                   3715071.72940  21687174.11440
  -3962111.44200  21511866.85600                  -3081086.15540  21511872.38840
   3546233.41500  21524041.57500                   2762506.50040  21524047.10640
  11630689.14000  25359319.68500                   9062870.65140  25359326.89640
   4679420.25000  21573683.13800                   3646299.45100  21573688.00100
  -1533415.65900  24646504.48100                  -1033533.44840  24646509.60340
 96  9  7 20  8 30.0010000  0  9  1  3  9 17 21 23 26 28 31
  -8943379.12900  22680240.27800                  -6830435.08340  22680246.00940
  -4523232.57800  22044978.17700                  -3639673.93740  22044983.55640
  -2814851.91300  24370502.38800                  -2093180.20840  24370508.83340
   4831879.28400  21698491.22400                   3761438.10340  21698497.25940
  -3983022.77100  21507887.63800                  -3097380.69340  21507892.92340
   3589155.23200  21532209.38800                   2795952.06140  21532214.83740
  11743828.75700  25380849.70800                   9151031.39840  25380855.22840
   4751472.81200  21587394.32500                   3702444.27700  21587399.11400
  -1609647.70700  24631998.03600                  -1092934.98840  24632003.16940
 96  9  7 20  9  0.0010000  0  9  1  3  9 17 21 23 26 28 31
  -9027720.68200  22664190.56700                  -6896155.72540  22664196.70840
  -4545145.36000  22040808.36400                  -3656748.84340  22040813.50940
  -2846976.42400  24364389.23900                  -2118212.27240  24364394.20840
   4891638.86900  21709863.34900                   3808003.98840  21709869.13840
  -4003772.85700  21503938.90300                  -3113549.59440  21503944.45840
   3632207.56200  21540402.06700                   2829499.32040  21540407.38840
  11857045.44600  25402394.29400                   9239252.12040  25402400.13040
   4823946.90100  21601185.68500                   3758917.56500  21601190.63000
  -1685618.34800  24617541.60600                  -1152132.87040  24617547.19640
 96  9  7 20  9 30.0010000  0  9  1  3  9 17 21 23 26 28 31
  -9111837.62800  22648183.67700                  -6961701.36240  22648189.46640
  -4566540.09900  22036737.23100                  -3673420.07540  22036742.70440
  -2878777.75400  24358337.34900                  -2142992.48240  24358344.04040
   4951662.26100  21721285.38800                   3854775.44240  21721291.38840
  -4024350.81600  21500023.06700                  -3129584.35940  21500028.50540
   3675368.07700  21548615.09100                   2863130.88540  21548620.25940
  11970330.14000  25423951.04400                   9327525.92140  25423955.29840
   4896843.00900  21615057.36400                   3815719.70000  21615062.23900
  -1761323.11600  24603136.34900                  -1211123.58840  24603142.46640
 96  9  7 20 10  0.0010000  0  8  1  3  9 17 21 23 28 31
  -9195723.29900  22632220.81700                  -7027066.78940  22632226.60640
  -4587425.02000  22032762.82500                  -3689694.04740  22032768.28640
  -2910247.86800  24352349.05200                  -2167514.63340  24352356.01740
   5011955.04800  21732758.70800                   3901756.81440  21732764.46240
  -4044760.00700  21496139.20800                  -3145487.62540  21496144.51740
   3718643.60700  21556850.16100                   2896852.06940  21556855.52840
   4970155.64600  21629008.37200                   3872846.40400  21629013.15700
  -1836769.82800  24588778.61400                  -1269913.16240  24588783.03240
 96  9  7 20 10 30.0010000  0  8  1  3  9 17 21 23 28 31
  -9279379.30700  22616301.59100                  -7092253.26340  22616307.34540
  -4607793.33900  22028886.87200                  -3705565.49740  22028892.21640
  -2941383.35900  24346424.05200                  -2191776.03040  24346428.79840
   5072529.30400  21744285.44200                   3948957.51340  21744291.36040
  -4065014.47700  21492285.08300                  -3161270.31940  21492290.53240
   3762030.75300  21565106.34900                   2930660.22040  21565111.83340
   5043888.22100  21643039.27100                   3930300.33100  21643044.02800
  -1911943.84000  24574474.27800                  -1328490.29440  24574480.09140
 96  9  7 20 11  0.0010000  0  8  1  3  9 17 21 23 28 31
  -9362797.36800  22600427.85600                  -7157254.31240  22600433.49340
  -4627649.62400  22025108.14600                  -3721037.90940  22025113.74740
  -2972202.34000  24340559.44200                  -2215790.76940  24340565.59540
   5133384.95200  21755866.01300                   3996377.47340  21755871.80240
  -4085111.90700  21488460.57500                  -3176930.66340  21488465.95440
   3805512.99600  21573380.84900                   2964542.48440  21573386.34540
   5118038.10300  21657149.48900                   3988079.43400  21657154.29800
  -1986829.49200  24560222.85600                  -1386842.73340  24560226.88840
 96  9  7 20 11 30.0010000  0  8  1  3  9 17 21 23 28 31
  -9445959.38900  22584602.66100                  -7222055.86740  22584608.75540
  -4646991.69700  22021427.60600                  -3736109.66140  22021433.27840
  -3002712.13700  24334753.45800                  -2239564.65240  24334758.45040
   5194517.97500  21767499.09900                   4044013.57040  21767504.94640
  -4105035.53000  21484669.25500                  -3192455.56440  21484674.91540
   3849108.63800  21581676.61400                   2998513.10740  21581682.15740
   5192603.82800  21671338.82500                   4046182.56800  21671343.78200
  -2061435.49300  24546025.62200                  -1444977.23740  24546032.30240
 96  9  7 20 12  0.0010000  0  8  1  3  9 17 21 23 28 31
  -9528864.20300  22568825.70000                  -7286657.00040  22568831.65340
  -4665809.72900  22017846.73100                  -3750773.06940  22017852.22840
  -3032902.78300  24329008.72400                  -2263089.81640  24329015.49740
   5255931.46600  21779185.87200                   4091868.21540  21779191.68540
  -4124785.38700  21480911.05200                  -3207845.06040  21480916.47840
   3892825.31900  21589995.80200                   3032578.04840  21590001.39240
   5267583.78500  21685607.09100                   4104608.47900  21685612.05600
  -2135755.90400  24531883.00500                  -1502889.20840  24531888.93540
 96  9  7 20 12 30.0010000  0  8  1  3  9 17 21 23 28 31
  -9611513.92800  22553098.59900                  -7351059.34640  22553104.50540
  -4684109.80700  22014364.38800                  -3765032.87440  22014369.94240
  -3062775.61800  24323323.05200                  -2286367.27840  24323329.57940
   5317606.30400  21790922.55200                   4139926.51740  21790928.42340
  -4144374.80400  21477183.38000                  -3223109.53240  21477188.73540
   3936632.63700  21598332.07500                   3066713.61340  21598337.61840
   5342971.01800  21699952.77800                   4163351.74800  21699957.86400
  -2209786.76000  24517795.20000                  -1560575.56140  24517799.72440
 96  9  7 20 13  0.0010000  0  8  1  3  9 17 21 23 28 31
  -9693897.63300  22537421.55200                  -7415254.40540  22537427.02440
  -4701885.24700  22010981.94200                  -3778883.87640  22010987.39240
  -3092319.71200  24317701.76300                  -2309388.63240  24317707.08340
   5379541.77400  21802708.29400                   4188187.89940  21802714.06040
  -4163797.38500  21473487.23100                  -3238244.00940  21473492.38840
   3980527.47000  21606684.91100                   3100917.37540  21606690.50140
   5418762.32400  21714375.35600                   4222409.87400  21714380.36400
  -2283528.58300  24503762.63000                  -1618036.67740  24503767.17740
 96  9  7 20 13 30.0010000  0  8  1  3  9 17 21 23 28 31
  -9776005.74100  22521797.03600                  -7479234.72140  22521802.77840
  -4719126.59100  22007701.02800                  -3792318.69140  22007706.48940
  -3121506.46700  24312148.08300                  -2332131.53540  24312154.73940
   5441745.09700  21814545.35600                   4236658.01040  21814551.15740
  -4183056.07900  21469822.41100                  -3253250.77640  21469827.48540
   4024520.13800  21615056.54400                   3135197.37540  21615061.98140
   5494963.41600  21728876.12200                   4281787.31600  21728880.95000
  -2356969.16300  24489788.06700                  -1675263.04340  24489792.88440
 96  9  7 20 14  0.0010000  0  8  1  3  9 17 21 23 28 31
  -9857854.20900  22506221.27100                  -7543012.72240  22506227.06040
  -4735841.28500  22004520.55200                  -3805343.13740  22004525.83740
  -3150331.62200  24306662.65300                  -2354592.66140  24306668.40740
   5504220.23900  21826433.80200                   4285339.91640  21826439.62640
  -4202170.71000  21466185.23900                  -3268145.29540  21466190.58340
   4068598.04300  21623444.35600                   3169543.78640  21623449.70040
   5571567.48100  21743453.34900                   4341478.76100  21743458.24300
  -2430104.81300  24475870.24700                  -1732251.83340  24475875.59140
 96  9  7 20 14 30.0010000  0  8  1  3  9 17 21 23 28 31
  -9939448.50300  22490693.88000                  -7606592.65640  22490699.95040
  -4752032.01300  22001439.27800                  -3817959.29840  22001444.36440
  -3178797.54300  24301246.34900                  -2376773.89440  24301252.63040
   5566965.93500  21838373.95000                   4334232.64340  21838379.52840
  -4221140.51600  21462575.09900                  -3282926.95940  21462580.37240
   4112766.88300  21631849.45800                   3203961.05540  21631854.75540
   5648571.55100  21758106.79400                   4401481.89900  21758111.61400
  -2502943.83300  24462009.84900                  -1789009.48340  24462015.34540
 96  9  7 20 15  0.0010000  0  8  1  3  9 17 21 23 28 31
 -10020784.25600  22475217.04400                  -7669971.12940  22475222.91540
  -4767691.77100  21998459.26300                  -3830161.71240  21998464.71240
  -3206902.93300  24295897.71600                  -2398674.17040  24295902.88440
   5629993.55500  21850367.78600                   4383345.05540  21850373.52840
  -4239950.47400  21458995.82500                  -3297584.06440  21459001.26340
   4157047.22800  21640275.53600                   3238465.21440  21640280.88040
   5725977.17500  21772836.59900                   4461797.93600  21772841.45000
  -2575480.07300  24448206.17700                  -1845531.17540  24448211.97840
 96  9  7 20 15 30.0010000  0  8  1  3  9 17 21 23 28 31
 -10101851.67100  22459790.41900                  -7733140.50740  22459796.36040
  -4782815.47300  21995581.31700                  -3841946.42140  21995586.75540
  -3234628.32400  24290621.95000                  -2420278.33740  24290627.37640
   5693307.76400  21862416.11400                   4432680.78240  21862421.89240
  -4258585.50800  21455449.76300                  -3312104.86740  21455455.11840
   4201457.39200  21648726.62200                   3273070.52940  21648732.11840
   5803794.64700  21787644.77100                   4522434.90100  21787649.70400
  -2647704.02800  24434462.34100                  -1901809.57440  24434469.52840
 96  9  7 20 16  0.0010000  0  8  1  3  9 17 21 23 28 31
 -10182664.66300  22444412.17700                  -7796111.63940  22444418.02440
  -4797412.58700  21992803.62200                  -3853320.80640  21992809.04840
  -3261983.62600  24285415.44200                  -2441594.12040  24285421.51340
   5756895.34100  21874516.22400                   4482229.52140  21874522.13040
  -4277040.41200  21451937.89600                  -3326485.30640  21451943.35640
   4245980.07200  21657199.10600                   3307763.51440  21657204.49740
   5882010.21200  21802528.82500                   4583382.06700  21802533.64600
  -2719624.77100  24420777.02800                  -1957851.66140  24420782.97040
 96  9  7 20 16 30.0010000  0  8  1  3  9 17 21 23 28 31
 -10263192.54900  22429088.23100                  -7858860.61440  22429094.14940
  -4811471.52200  21990128.60600                  -3864275.82740  21990134.19640
  -3288947.09000  24280285.04400                  -2462604.59240  24280291.67740
   5820760.83300  21886669.21600                   4531994.81440  21886675.19240
  -4295295.04400  21448464.10600                  -3340709.69740  21448469.67340
   4290625.75200  21665694.84900                   3342552.34440  21665700.25140
   5960636.07800  21817490.81700                   4644648.94400  21817495.66500
  -2791214.82900  24407153.84900                  -2013636.09440  24407160.14240
 96  9  7 20 17  0.0010000  0  8  1  3  9 17 21 23 28 31
 -10343448.13400  22413816.20000                  -7921397.40440  22413821.88440
  -4825013.68300  21987551.26300                  -3874828.16840  21987556.94640
  -3315525.68600  24275227.13800                  -2483315.15840  24275232.43540
   5884891.48700  21898873.22400                   4581966.72540  21898878.97840
  -4313374.80000  21445023.67700                  -3354797.81640  21445029.36040
   4335374.77500  21674210.38000                   3377421.70140  21674215.56040
   6039652.16200  21832527.09900                   4706219.89300  21832532.02100
  -2862471.10200  24393593.88800                  -2069160.45340  24393598.97440
 96  9  7 20 17 30.0010000  0  8  1  3  9 17 21 23 28 31
 -10423434.80000  22398595.19200                  -7983724.65540  22398601.19240
  -4838039.73700  21985072.59900                  -3884978.34840  21985078.15340
  -3341724.16200  24270242.14600                  -2503729.52240  24270247.23140
   5949300.83600  21911129.81000                   4632155.80740  21911135.79840
  -4331279.79600  21441616.22400                  -3368749.76040  21441621.74340
   4380228.56400  21682745.65300                   3412372.70140  21682751.03240
   6119055.60000  21847637.06000                   4768092.67400  21847641.93100
  -2933390.34000  24380098.60600                  -2124422.20240  24380104.39640
 96  9  7 20 18  0.0010000  0  8  1  3  9 17 21 23 28 31
 -10503141.23000  22383426.85600                  -8045833.53040  22383432.84540
  -4850532.21000  21982695.52100                  -3894712.75240  21982700.93540
  -3367542.83000  24265328.89600                  -2523847.90640  24265333.79440
   6014004.48400  21923442.50500                   4682574.21540  21923448.37640
  -4349014.50200  21438241.48900                  -3382569.00940  21438246.97440
   4425195.31400  21691302.20800                   3447411.71540  21691307.72840
   6198852.70500  21862821.95800                   4830272.20100  21862826.88000
  -3003950.86800  24366671.02800                  -2179404.37740  24366674.67340
 96  9  7 20 18 30.0010000  0  8  1  3  9 17 21 23 28 31
 -10582553.36000  22368315.70000                  -8107713.08640  22368321.66540
  -4862483.96300  21980421.09900                  -3904025.81540  21980426.71240
  -3392993.55600  24260485.59900                  -2543679.61340  24260491.50540
   6079005.80700  21935812.06000                   4733224.57440  21935817.69640
  -4366593.78000  21434896.35600                  -3396267.15040  21434901.75940
   4470272.76100  21699880.34100                   3482536.99140  21699885.86040
   6279040.27000  21878081.08300                   4892755.98200  21878086.01700
  -3074155.39300  24353311.56700                  -2234109.16440  24353316.13840
 96  9  7 20 19  0.0010000  0  8  1  3  9 17 21 23 28 31
 -10661674.09000  22353259.22400                  -8169365.57540  22353265.21240
  -4873881.55900  21978251.99700                  -3912907.06340  21978257.43540
  -3418084.27500  24255710.51300                  -2563230.76040  24255716.45440
   6144310.06500  21948238.88800                   4784110.98540  21948244.75940
  -4384009.01600  21431582.23900                  -3409837.46540  21431587.68840
   4515469.17800  21708480.91100                   3517754.96440  21708486.56040
   6359616.37900  21893414.22400                   4955542.52800  21893419.22400
  -3144009.13800  24340018.77800                  -2288540.69340  24340025.16540
 96  9  7 20 19 30.0010000  0  8  1  3  9 17 21 23 28 31
 -10740489.98400  22338261.38000                  -8230780.53040  22338267.32140
  -4884721.61000  21976189.21600                  -3921353.86140  21976194.87640
  -3442819.39100  24251003.49700                  -2582504.82440  24251009.49740
   6209901.75400  21960720.68500                   4835221.36540  21960726.56740
  -4401252.89400  21428300.95000                  -3423274.25140  21428306.24740
   4560777.72400  21717102.96600                   3553060.32140  21717108.54440
   6440577.15000  21908820.59100                   5018628.80500  21908825.57100
  -3213519.95300  24326791.47400                  -2342704.93840  24326795.09540
 96  9  7 20 20  0.0010000  0  8  1  3  9 17 21 23 28 31
 -10818994.21800  22323322.56700                  -8291952.63140  22323328.42740
  -4895000.33200  21974233.39600                  -3929363.25740  21974238.97440
  -3467183.65000  24246367.41900                  -2601489.90740  24246372.86840
   6275770.56800  21973255.13000                   4886547.69540  21973261.04840
  -4418330.89900  21425051.18500                  -3436581.77940  21425056.65740
   4606197.02300  21725745.90300                   3588451.97340  21725751.71640
   6521918.86400  21924299.51300                   5082011.92500  21924304.54400
  -3282684.58900  24313629.91100                  -2396599.44840  24313637.60340
 96  9  7 20 20 30.0010000  0  8  1  3  9 17 21 23 28 31
 -10897181.36600  22308444.02100                  -8352877.65240  22308449.91540
  -4904716.62300  21972384.33300                  -3936934.39740  21972389.64240
  -3491157.27400  24241805.78600                  -2620170.60140  24241812.09140
   6341932.31300  21985845.41900                   4938102.28340  21985851.36040
  -4435220.12000  21421837.14600                  -3449742.20540  21421842.77140
   4651736.20900  21734411.95000                   3623937.05140  21734417.58740
   6603650.18100  21939852.65300                   5145698.62800  21939857.50900
  -3351499.69400  24300535.43500                  -2450221.56940  24300541.95040
 96  9  7 20 21  0.0010000  0  8  1  3  9 17 21 23 28 31
 -10975065.53100  22293622.98900                  -8413566.58640  22293628.93140
  -4913881.73900  21970640.28600                  -3944076.05640  21970645.91140
  -3514728.36400  24237320.24700                  -2638537.65740  24237326.25940
   6408379.78900  21998489.93500                   4989879.52040  21998495.99340
  -4451925.49000  21418658.22400                  -3462759.37740  21418663.72040
   4697391.09200  21743099.49700                   3659512.27540  21743105.00540
   6685767.38900  21955478.95800                   5209686.02300  21955484.09100
  -3419969.46500  24287505.19200                  -2503574.62840  24287510.70040
 96  9  7 20 21 30.0010000  0  8  1  3  9 17 21 23 28 31
 -11052629.66000  22278863.07500                  -8474006.14240  22278868.89940
  -4922490.31100  21969002.32500                  -3950784.03940  21969007.54040
  -3537876.41400  24232915.09100                  -2656575.04640  24232920.91540
   6475125.27100  22011190.99700                   5041888.96840  22011196.91540
  -4468454.44400  21415513.07500                  -3475639.07940  21415518.47840
   4743156.06700  21751808.34100                   3695173.28740  21751814.03640
   6768278.82700  21971180.26300                   5273980.61300  21971185.48100
  -3488089.57100  24274542.77800                  -2556655.21940  24274547.95840
 96  9  7 20 22  0.0010000  0  8  1  3  9 17 21 23 28 31
 -11129901.77500  22264158.70800                  -8534218.15440  22264164.72040
  -4930554.81000  21967467.49700                  -3957068.07440  21967472.75940
  -3560617.06200  24228587.38800                  -2674295.00040  24228592.87240
   6542165.02800  22023948.11400                   5094127.71940  22023954.06740
  -4484830.36000  21412396.59900                  -3488399.52740  21412401.94240
   4789010.93600  21760534.41900                   3730904.34640  21760540.23140
   6851170.17000  21986953.99700                   5338571.23700  21986959.21600
  -3555878.34400  24261643.04400                  -2609477.59440  24261648.21240
 96  9  7 20 22 30.0010000  0  8  1  3  9 17 21 23 28 31
 -11206891.79900  22249507.92700                  -8594210.35340  22249513.59940
  -4938083.91700  21966034.88000                  -3962934.91340  21966040.17740
  -3582972.31300  24224333.26300                  -2691714.62840  24224338.84140
   6609482.92900  22036758.63800                   5146583.20040  22036764.47440
  -4501065.41400  21409307.43500                  -3501050.21640  21409312.63840
   4834932.48200  21769272.88800                   3766687.36240  21769278.54840
   6934429.84600  22002797.79400                   5403448.87200  22002802.86800
  -3623354.11400  24248802.09900                  -2662056.09840  24248806.72840
 96  9  7 20 23  0.0010000  0  8  1  3  9 17 21 23 28 31
 -11283576.75100  22234915.34900                  -8653964.83540  22234921.30240
  -4945055.37400  21964708.07500                  -3968367.22940  21964713.79440
  -3604931.80400  24220153.80200                  -2708825.88140  24220160.15340
   6677077.46800  22049621.46600                   5199254.24840  22049627.38440
  -4517150.40500  21406246.48100                  -3513583.98140  21406251.76740
   4880938.62600  21778027.48900                   3802536.29640  21778033.13840
   7018064.16400  22018712.92700                   5468618.43200  22018717.89200
  -3690498.89100  24236025.33300                  -2714376.64740  24236031.33340
 96  9  7 20 23 30.0010000  0  8  1  3  9 17 21 23 28 31
 -11359952.24900  22220381.56700                  -8713478.18340  22220387.47440
  -4951458.25300  21963489.86400                  -3973356.49040  21963495.36040
  -3626493.74700  24216051.61400                  -2725627.38940  24216057.18140
   6744948.43400  22062536.82500                   5252140.69840  22062542.69640
  -4533068.35900  21403217.16900                  -3525987.57840  21403222.50140
   4927049.52500  21786802.22400                   3838466.86440  21786808.06040
   7102071.96000  22034699.20800                   5534079.02300  22034703.98900
  -3757298.19800  24223313.89600                  -2766428.05440  24223318.93540
 96  9  7 20 24  0.0010000  0  8  1  3  9 17 21 23 28 31
 -11436030.38800  22205904.15300                  -8772759.81640  22205909.96640
  -4957284.56700  21962381.30200                  -3977896.48540  21962386.97440
  -3647655.13900  24212024.88000                  -2742116.74640  24212031.17340
   6813085.42800  22075502.77800                   5305234.43840  22075508.73140
  -4548802.56900  21400223.23900                  -3538247.99940  21400228.79440
   4973274.76700  21795598.68500                   3874486.52440  21795604.01740
   7186450.30100  22050755.93500                   5599828.34300  22050760.80600
  -3823735.22100  24210670.69200                  -2818197.10240  24210676.31740
 96  9  7 20 24 30.0010000  0  8  1  3  9 17 21 23 28 31
 -11511794.99600  22191486.14600                  -8831797.14840  22191491.77140
  -4962540.20500  21961381.04400                  -3981991.79640  21961386.52840
  -3668402.68100  24208076.05200                  -2758283.63940  24208081.50140
   6881478.64700  22088517.63000                   5358527.83040  22088523.71240
  -4564343.84700  21397265.77800                  -3550358.07940  21397271.42740
   5019629.83000  21804420.06000                   3910607.34540  21804425.35640
   7271195.31500  22066882.44200                   5665863.38100  22066887.22800
  -3889790.22300  24198100.88800                  -2869668.52740  24198106.36040
 96  9  7 20 25  0.0010000  0  8  1  3  9 17 21 23 28 31
 -11587242.58700  22177129.64600                  -8890587.46940  22177135.45840
  -4967234.12400  21960487.78600                  -3985649.41840  21960492.95440
  -3688720.24300  24204210.19200                  -2774115.48340  24204215.25540
   6950129.45600  22101581.39600                   5412021.93140  22101587.16140
  -4579693.82200  21394344.74700                  -3562319.11040  21394350.17340
   5066112.91700  21813265.36400                   3946827.90740  21813270.80240
   7356299.44100  22083077.12200                   5732178.23100  22083082.04800
  -3955451.11500  24185606.22400                  -2920832.83740  24185612.49340
 96  9  7 20 25 30.0010000  0  8  1  3  9 17 21 23 28 31
 -11662365.12000  22162834.15300                  -8949124.49140  22162839.89640
  -4971370.37700  21959700.78600                  -3988872.49040  21959706.07140
  -3708598.78900  24200427.24700                  -2789605.26140  24200432.87240
   7019062.35700  22114699.03600                   5465735.85340  22114705.04840
  -4594846.48600  21391461.27100                  -3574126.37940  21391466.74340
   5112715.39900  21822133.33300                   3983141.51740  21822138.98140
   7441774.28400  22099342.38000                   5798781.97300  22099347.47800
  -4020701.45900  24173189.37200                  -2971677.22240  24173194.81040
 96  9  7 20 26  0.0010000  0  8  1  3  9 17 21 23 28 31
 -11737155.07500  22148602.32500                  -9007402.36040  22148607.91540
  -4974963.34700  21959016.99700                  -3991672.22540  21959022.57540
  -3728043.64200  24196727.42700                  -2804757.08240  24196732.88840
   7088283.86700  22127871.24700                   5519674.65940  22127876.88440
  -4609822.02900  21388611.40300                  -3585795.63140  21388616.87640
   5159414.33900  21831019.84100                   4019530.29240  21831025.30240
   7527612.51900  22115676.75500                   5865668.87400  22115681.90300
  -4085543.44300  24160851.37200                  -3022203.41840  24160856.84540
 96  9  7 20 26 30.0010000  0  8  1  3  9 17 21 23 28 31
 -11811601.79300  22134435.52100                  -9065412.76240  22134441.25140
  -4978026.36200  21958434.23900                  -3994058.99040  21958439.59540
  -3747063.64100  24193107.25500                  -2819577.82940  24193113.10340
   7157806.68200  22141101.23100                   5573848.26640  22141107.06740
  -4624631.57100  21385793.41900                  -3597335.52940  21385798.85640
   5206201.25600  21839923.25500                   4055987.62740  21839928.84540
   7613803.72100  22132078.54400                   5932830.81600  22132083.72400
  -4149994.02000  24148586.17700                  -3072424.60640  24148591.31040
 96  9  7 20 27  0.0010000  0  8  1  3  9 17 21 23 28 31
 -11885719.09900  22120331.36400                  -9123166.48140  22120337.15340
  -4980554.43700  21957953.06700                  -3996028.93440  21957958.38840
  -3765683.52900  24189564.49700                  -2834086.80240  24189570.32140
   7227633.78700  22154389.02100                   5628258.97140  22154394.86840
  -4639290.31600  21383003.90300                  -3608757.92140  21383009.36440
   5253051.04800  21848838.53600                   4092493.95040  21848844.11440
   7700334.37000  22148545.01300                   6000257.26000  22148550.12600
  -4214081.98200  24136390.72400                  -3122363.24440  24136396.12640
 96  9  7 20 27 30.0010000  0  8  1  3  9 17 21 23 28 31
 -11959490.55600  22106292.59100                  -9180650.71040  22106298.36840
  -4982531.10100  21957576.90300                  -3997569.19840  21957582.28240
  -3783896.15000  24186098.61400                  -2848278.44340  24186105.21240
   7297779.25100  22167737.35600                   5682917.75340  22167743.18140
  -4653772.08500  21380247.98100                  -3620042.40840  21380253.81740
   5300002.78300  21857773.06700                   4129079.71040  21857778.66940
   7787221.55700  22165079.24700                   6067961.53000  22165084.11000
  -4277787.95300  24124267.59900                  -3172004.24840  24124273.03640
 96  9  7 20 28  0.0010000  0  8  1  3  9 17 21 23 28 31
 -12032913.65900  22092320.89600                  -9237863.48540  22092326.73140
  -4983951.92600  21957306.36400                  -3998676.33840  21957311.89640
  -3801700.43400  24182710.73900                  -2862151.89840  24182716.47040
   7368226.62800  22181142.75500                   5737811.79040  22181148.66140
  -4668078.30200  21377525.56000                  -3631190.10540  21377531.02140
   5347070.67200  21866729.68500                   4165755.98540  21866735.25140
   7874454.04300  22181679.13800                   6135934.86100  22181683.87200
  -4341119.04800  24112216.14600                  -3221353.11340  24112221.60640
 96  9  7 20 28 30.0010000  0  8  1  3  9 17 21 23 28 31
 -12105996.44300  22078413.49700                  -9294811.07840  22078419.41540
  -4984810.36400  21957143.04400                  -3999345.25740  21957148.83340
  -3819094.05600  24179400.72400                  -2875705.35140  24179406.73540
   7438960.75100  22194602.93500                   5792929.26140  22194608.92340
  -4682198.42100  21374838.95000                  -3642192.79640  21374844.41140
   5394266.71800  21875710.88800                   4202532.11140  21875716.30240
   7962030.24600  22198344.16900                   6204176.02200  22198349.02400
  -4404082.38400  24100235.06700                  -3270415.40540  24100240.13040
 96  9  7 20 29  0.0010000  0  8  1  3  9 17 21 23 28 31
 -12178719.51700  22064574.98900                  -9351478.37740  22064580.84940
  -4985086.40700  21957090.62200                  -3999560.35840  21957096.44640
  -3836037.16800  24176176.63800                  -2888907.76040  24176182.45040
   7509992.65400  22208119.76300                   5848278.77640  22208125.81040
  -4696111.67100  21372191.22400                  -3653034.28240  21372196.60340
   5441615.53600  21884721.07500                   4239427.29440  21884726.67740
   8049976.57100  22215079.91900                   6272705.59300  22215084.75900
  -4466634.44400  24088331.49700                  -3319157.24140  24088336.60640
 96  9  7 20 29 30.0010000  0  8  1  3  9 17 21 23 28 31
 -12251110.94100  22050799.34100                  -9407887.25740  22050805.22440
  -4984808.94400  21957143.26300                  -3999344.15640  21957148.72440
  -3852541.62400  24173036.13800                  -2901768.36040  24173042.26740
   7581298.10100  22221688.96600                   5903841.42640  22221694.80240
  -4709837.71900  21369579.14600                  -3663729.90040  21369584.57140
   5489097.45600  21893756.49700                   4276426.18440  21893762.20440
   8138267.85900  22231881.02100                   6341503.96200  22231886.13400
  -4528776.81200  24076505.93500                  -3367579.83840  24076511.34940
 96  9  7 20 30  0.0010000  0  8  1  3  9 17 21 23 28 31
 -12323169.76300  22037086.98900                  -9464036.96540  22037092.68540
  -4983955.61600  21957305.96600                  -3998679.23840  21957311.39240
  -3868595.06000  24169981.25500                  -2914277.52040  24169987.05640
   7652891.66800  22235312.97400                   5959628.59240  22235318.85640
  -4723381.82300  21367001.74700                  -3674283.74240  21367007.32540
   5536681.18300  21902811.36400                   4313504.40440  21902816.81340
   8226905.31100  22248748.20800                   6410572.06600  22248753.39200
  -4590510.12300  24064759.08300                  -3415683.68940  24064765.03640
 96  9  7 20 30 30.0010000  0  8  1  3  9 17 21 23 28 31
 -12394909.07000  22023435.74700                  -9519937.69840  22023441.17340
  -4982535.27300  21957576.24700                  -3997572.48640  21957581.55640
  -3884213.19000  24167008.71600                  -2926447.49140  24167014.69240
   7724768.58800  22248990.58300                   6015636.55640  22248996.40740
  -4736758.04900  21364456.21600                  -3684706.77140  21364461.65340
   5584329.12200  21911878.56700                   4350632.66940  21911883.99340
   8315872.31600  22265678.07500                   6479896.95900  22265683.39900
  -4651843.81800  24053087.14600                  -3463476.13940  24053092.24340
 96  9  7 20 31  0.0010000  0  8  1  3  9 17 21 23 28 31
 -12466314.36000  22009847.74700                  -9575578.16540  22009853.32540
  -4980537.54900  21957956.32500                  -3996015.83240  21957961.58740
  -3899396.93900  24164119.96600                  -2938278.94640  24164125.32140
   7796944.96500  22262724.93500                   6071877.85440  22262730.75940
  -4749969.39500  21361942.36400                  -3695001.32440  21361947.75540
   5632033.48800  21920956.63800                   4387804.89640  21920962.11040
   8405167.97800  22282670.48900                   6549477.95900  22282675.79000
  -4712764.90200  24041493.84100                  -3510947.11640  24041499.05640
 96  9  7 20 31 30.0010000  0  8  1  3  9 17 21 23 28 31
 -12537392.47200  21996321.72400                  -9630963.68340  21996327.40740
  -4977953.74600  21958448.02100                  -3994002.48940  21958453.58740
  -3914170.34900  24161307.79400                  -2949790.68340  24161312.52840
   7869420.30900  22276517.13000                   6128352.12240  22276523.15340
  -4763020.86900  21359458.82500                  -3705171.30340  21359464.34540
   5679793.87400  21930045.05200                   4425020.77440  21930050.65340
   8494782.08500  22299723.56000                   6619307.08800  22299728.82500
  -4773293.78400  24029975.74700                  -3558112.43940  24029981.37240
 96  9  7 20 32  0.0010000  0  8  1  3  9 17 21 23 28 31
 -12608124.92700  21982861.62200                  -9686079.86040  21982867.39940
  -4974790.70100  21959050.01300                  -3991537.78940  21959055.45040
  -3928532.20600  24158575.15300                  -2960981.72440  24158581.17740
   7942188.13000  22290364.44200                   6185054.29840  22290370.57140
  -4775918.79700  21357004.27800                  -3715221.63040  21357009.81040
   5727617.50100  21939145.12200                   4462285.93440  21939150.64240
   8584711.14100  22316836.53600                   6689381.64300  22316841.77400
  -4833449.73800  24018528.38800                  -3604987.18340  24018534.11840
 96  9  7 20 32 30.0010000  0  8  1  3  9 17 21 23 28 31
 -12678473.20100  21969474.95800                  -9740896.67140  21969480.47840
  -4971043.31500  21959762.87200                  -3988617.76040  21959768.45040
  -3942457.69600  24155925.59100                  -2971832.77840  24155930.99340
   8015259.53700  22304269.29400                   6241993.01240  22304275.29440
  -4788635.26100  21354584.63800                  -3725130.56340  21354590.11040
   5775568.50800  21948270.32500                   4499650.34840  21948275.81040
   8674983.89400  22334014.91900                   6759724.00700  22334019.89200
  -4893199.44600  24007158.94200                  -3651545.35940  24007164.33340
 96  9  7 20 33  0.0010000  0  8  1  3  9 17 21 23 28 31
 -12748461.45000  21956156.55200                  -9795432.94240  21956162.21240
  -4966744.80000  21960581.04400                  -3985268.27240  21960586.69240
  -3955960.68400  24153355.95000                  -2982354.56540  24153360.76740
   8088605.31700  22318226.36400                   6299145.53340  22318232.42340
  -4801193.71400  21352194.52100                  -3734916.35940  21352199.91140
   5823640.05300  21957417.94200                   4537108.69540  21957423.64940
   8765578.82000  22351254.37200                   6830317.40400  22351259.34100
  -4952571.20800  23995860.78600                  -3697809.07440  23995866.57540
 96  9  7 20 33 30.0010000  0  8  1  3  9 17 21 23 28 31
 -12818079.75300  21942908.83300                  -9849680.93840  21942914.73940
  -4961908.54600  21961501.41900                  -3981499.77140  21961506.66940
  -3969031.54600  24150868.73100                  -2992539.64740  24150874.48540
   8162219.85600  22332235.20000                   6356507.47140  22332240.84940
  -4813583.78400  21349836.75500                  -3744570.95440  21349842.16940
   5871836.42100  21966589.52800                   4574664.30040  21966595.13040
   8856494.52300  22368555.23900                   6901160.77700  22368560.12200
  -5011562.43400  23984635.39600                  -3743776.23340  23984640.54040
 96  9  7 20 34  0.0010000  0  8  1  3  9 17 21 23 28 31
 -12887314.13400  21929733.84900                  -9903629.77340  21929739.77840
  -4956542.51400  21962522.67700                  -3977318.45840  21962527.81040
  -3981657.89300  24148465.79400                  -3002378.33140  24148471.97040
   8236098.02800  22346293.47400                   6414074.84040  22346299.42740
  -4825803.01200  21347511.70000                  -3754092.42740  21347517.23140
   5920153.12900  21975783.95800                   4612313.67840  21975789.51340
   8947731.91800  22385917.15300                   6972254.81400  22385922.20400
  -5070142.46000  23973487.08300                  -3789423.00840  23973492.43840
 96  9  7 20 34 30.0010000  0  8  1  3  9 17 21 23 28 31
 -12956180.28500  21916629.06700                  -9957291.68240  21916635.00940
  -4950647.09600  21963644.45800                  -3972724.64040  21963649.62640
  -3993848.51500  24146146.14600                  -3011877.59540  24146147.71640
   8310240.14200  22360402.43500                   6471847.88340  22360408.27140
  -4837846.21700  21345220.05200                  -3763476.73940  21345225.54840
   5968569.25000  21984997.30200                   4650040.51540  21985002.63440
   9039281.73800  22403338.35600                   7043592.29600  22403343.65300
  -5128295.96600  23962420.86400                  -3834737.40740  23962427.09940
 96  9  7 20 35  0.0010000  0  8  1  3  9 17 21 23 28 31
 -13024668.13300  21903596.09100                 -10010658.80440  21903601.96240
  -4944191.90500  21964872.76300                  -3967694.62940  21964878.32940
  -4005576.73500  24143914.98100
   8384674.16300  22374566.70000                   6529848.39440  22374572.71240
  -4849691.70100  21342965.80200                  -3772706.98240  21342971.23940
   6017073.80000  21994227.21600                   4687836.25940  21994232.72440
   9131149.27400  22420820.45000                   7115177.34400  22420825.43100
  -5185997.93500  23951440.95800                  -3879699.97040  23951445.91540
 96  9  7 20 35 30.0010000  0  8  1  3  9 17 21 23 28 31
 -13092792.02400  21890632.66900                 -10063742.32940  21890638.65740
  -4937182.94700  21966206.49700                  -3962233.11540  21966212.05240
  -4016851.26200  24141768.41100                      -862.70050  24141774.36440
   8459385.32600  22388783.58300                   6588064.84640  22388789.67740
  -4861357.39200  21340745.81700                  -3781797.12940  21340751.39640
   6065646.72000  22003470.31700                   4725685.28240  22003475.62640
   9223318.33300  22438359.88000                   7186997.34900  22438364.90300
  -5243245.34700  23940546.42700                  -3924308.32840  23940552.63840
 96  9  7 20 36  0.0010000  0  8  1  3  9 17 21 23 28 31
 -13160563.83600  21877736.05200                 -10116551.51040  21877741.84140
  -4929608.40200  21967647.88800                  -3956330.88540  21967653.46640
  -4027657.48300  24139711.97400                     -9283.12540  24139717.15340
   8534384.74300  22403055.69200                   6646505.91240  22403061.68140
  -4872847.60400  21338559.41900                  -3790750.53740  21338564.77440
   6114284.29400  22012725.64600                   4763584.68440  22012731.00140
   9315790.58000  22455956.82500                   7259053.59700  22455961.68500
  -5300035.37700  23929739.88000                  -3968560.28240  23929744.84940
 96  9  7 20 36 30.0010000  0  8  1  3  9 17 21 23 28 31
 -13227995.59200  21864904.01300                 -10169095.70340  21864909.75540
  -4921465.22300  21969197.59100                  -3949985.55940  21969203.47440
  -4037990.98100  24137745.32500                    -17335.20740  24137750.41140
   8609677.45600  22417383.46600                   6705175.51340  22417389.37240
  -4884157.81500  21336407.15300                  -3799563.67840  21336412.54440
   6162980.05600  22021992.30200                   4801529.42240  22021998.03240
   9408558.77500  22473609.87200                   7331340.46600  22473614.95400
  -5356391.89800  23919015.19200                  -4012474.40540  23919021.25140
 96  9  7 20 37  0.0010000  0  8  1  3  9 17 21 23 28 31
 -13295082.25600  21852137.77100                 -10221371.00540  21852143.67740
  -4912754.86500  21970855.06000                  -3943198.27840  21970860.98940
  -4047847.85000  24135869.81700                    -25015.86440  24135875.56040
   8685258.35800  22431766.09100                   6764069.67740  22431771.96240
  -4895303.14900  21334286.29400                  -3808248.35140  21334291.67340
   6211742.21700  22031271.46600                   4839525.90240  22031276.90340
   9501621.66300  22491319.13000                   7403856.95700  22491324.73100
  -5412328.55000  23908371.26300                  -4056061.43240  23908377.56740
 96  9  7 20 37 30.0010000  0  8  1  3  9 17 21 23 28 31
 -13361819.50100  21839438.34900                 -10273374.02840  21839444.24340
  -4903474.95900  21972620.98900                  -3935967.19340  21972626.57940
  -4057243.21600  24134082.48900                    -32336.89940  24134087.41140
   8761132.82700  22446204.60600                   6823192.60040  22446210.39640
  -4906297.94100  21332193.96600                  -3816815.71440  21332199.27440
   6260577.83000  22040564.45000                   4877579.61940  22040569.87640
   9594979.14400  22509084.37200                   7476603.00200  22509089.97000
  -5467860.50600  23897804.16900                  -4099333.06640  23897808.75140
 96  9  7 20 38  0.0010000  0  8  1  3  9 17 21 23 28 31
 -13428200.68300  21826806.34900                 -10325099.59640  21826812.27840
  -4893621.84900  21974495.88000                  -3928289.45240  21974501.56340
  -4066192.78700  24132378.59900                    -39310.58140  24132384.56340
   8837298.32600  22460698.29400                   6882542.30140  22460704.09540
  -4917141.10800  21330130.67700                  -3825264.93340  21330136.00940
   6309494.29800  22049873.01300                   4915696.34140  22049878.62640
   9688624.07800  22526904.02800                   7549573.02300  22526909.63000
  -5522995.60800  23887311.97400                  -4142295.41840  23887317.29440
 96  9  7 20 38 30.0010000  0  8  1  3  9 17 21 23 28 31
 -13494191.91700  21814248.63800                 -10376521.30940  21814254.34540
  -4883183.25600  21976482.32500                  -3920155.49340  21976487.41140
  -4074686.09400  24130763.53600                    -45928.69740  24130769.13840
   8913757.01800  22475248.29400                   6942120.47440  22475254.43540
  -4927819.45700  21328098.56000                  -3833585.72240  21328104.06740
   6358521.44500  22059202.47400                   4953899.30640  22059207.84140
   9782571.65600  22544781.95800                   7622778.88200  22544787.38400
  -5577718.44400  23876898.58300                  -4184936.57840  23876903.93840
 96  9  7 20 39  0.0010000  0  8  1  3  9 17 21 23 28 31
 -13559793.93000  21801765.01300                 -10427639.73940  21801770.69640
  -4872171.52200  21978577.75500                  -3911574.93340  21978583.28640
  -4082732.42300  24129232.38000                    -52198.57540  24129237.65340
   8990487.45900  22489849.45800                   7001910.38440  22489855.36440
  -4938363.68900  21326092.14600                  -3841802.00740  21326097.79440
   6407653.81800  22068552.27100                   4992184.26040  22068557.76740
   9876803.24200  22562713.81000                   7696206.05200  22562719.27100
  -5632034.06400  23866562.72400                  -4227260.42540  23866567.96240
 96  9  7 20 39 30.0010000  0  8  1  3  9 17 21 23 28 31
 -13625000.83700  21789356.54400                 -10478450.28440  21789362.42740
  -4860588.54000  21980782.23100                  -3902549.24340  21980787.78640
  -4090327.72700  24127786.95000                    -58116.96340  24127794.11440
   9067488.67600  22504502.10600                   7061911.29540  22504508.20040
  -4948764.90200  21324112.72400                  -3849906.84940  21324118.13840
   6456896.41500  22077922.89600                   5030555.10340  22077928.50940
   9971318.74600  22580699.41100                   7769854.45400  22580704.67300
  -5685915.13300  23856309.39600                  -4269245.65540  23856315.23140
 96  9  7 20 40  0.0010000  0  8  1  3  9 17 21 23 28 31
 -13689818.97800  21777021.63000                 -10528957.90540  21777027.34940
  -4848466.68900  21983088.64600                  -3893103.65840  21983094.20040
  -4097465.70500  24126428.09900                    -63678.98140  24126434.18140
   9144733.52800  22519201.23900                   7122102.04640  22519207.15740
  -4959019.20500  21322161.26300                  -3857897.21540  21322166.71240
   6506238.03600  22087312.29400                   5069003.10740  22087317.76740
  10066106.72900  22598737.13000                   7843715.17700  22598742.45400
  -5739361.91500  23846138.86400                  -4310892.48640  23846144.65340
 96  9  7 20 40 30.0010000  0  8  1  3  9 17 21 23 28 31
 -13754242.00200  21764762.53600                 -10579157.63540  21764768.16140
  -4835814.79500  21985496.34900                  -3883245.04940  21985501.78640
  -4104134.04300  24125159.31000                    -68875.03940  24125165.79040
   9222229.13300  22533948.45800                   7182488.19240  22533954.52840
  -4969129.03800  21320237.73100                  -3865775.00240  21320243.09940
   6555673.79900  22096719.25500                   5107524.47440  22096724.89240
  10161164.70000  22616826.19200                   7917786.28400  22616831.56000
  -5792372.40000  23836051.14600                  -4352199.34540  23836056.75940
 96  9  7 20 41  0.0010000  0  8  1  3  9 17 21 23 28 31
 -13818270.41200  21752578.45000                 -10629049.87740  21752584.21640
  -4822621.65300  21988006.72400                  -3872964.68540  21988012.36040
  -4110334.84900  24123979.89600                    -73706.82240  24123984.84140
   9299996.80800  22548747.42700                   7243086.34640  22548753.41540
  -4979068.71100  21318345.99700                  -3873520.19740  21318351.39940
   6605199.88300  22106143.81000                   5146116.21740  22106149.23540
  10256499.37300  22634967.93500                   7992073.00100  22634973.08300
  -5844919.52600  23826051.95800                  -4393145.13940  23826057.59540
 96  9  7 20 41 30.0010000  0  8  1  3  9 17 21 23 28 31
 -13881916.14100  21740466.84100                 -10678643.92840  21740472.60640
  -4808907.47300  21990616.20000                  -3862278.32540  21990621.79040
  -4116078.77400  24122886.25500                    -78182.55940  24122891.78640
   9378040.08800  22563598.34900                   7303899.25240  22563604.11440
  -4988815.70100  21316491.29400                  -3881115.24840  21316496.88440
   6654803.54600  22115583.41900                   5184768.41640  22115589.03240
  10352106.84600  22653161.50500                   8066572.27900  22653166.77800
  -5897003.30700  23816141.01300                  -4433729.87740  23816146.88440
 96  9  7 20 42  0.0010000  0  8  1  3  9 17 21 23 28 31
 -13945184.84500  21728427.29400                 -10727944.19340  21728433.13040
  -4794672.17800  21993325.44200                  -3851185.89440  21993330.82140
  -4121363.29400  24121880.46600                    -82300.33540  24121885.01340
   9456354.44300  22578501.31700                   7364923.38040  22578507.17740
  -4998371.41400  21314673.12200                  -3888561.25440  21314678.66540
   6704476.98700  22125035.96600                   5223474.98140  22125041.49740
  10447975.64400  22671404.94200                   8141275.19000  22671410.11800
  -5948641.52700  23806314.70000                  -4473967.43840  23806319.90340
 96  9  7 20 42 30.0010000  0  8  1  3  9 17 21 23 28 31
 -14008075.44900  21716459.77800                 -10776949.83840  21716465.55640
  -4779885.24400  21996139.44200                  -3839663.62040  21996144.95040
  -4126182.55800  24120963.13000                    -86055.57340  24120968.76740
   9534960.88800  22593459.48100                   7426175.11640  22593465.15340
  -5007728.30400  21312892.35600                  -3895852.33340  21312897.97040
   6754224.55000  22134502.17700                   5262239.30340  22134507.82540
  10544110.45100  22689698.48100                   8216185.37200  22689704.18800
  -5999825.50100  23796574.46600                  -4513851.04440  23796579.90340
 96  9  7 20 43  0.0010000  0  8  1  3  9 17 21 23 28 31
 -14070581.86900  21704565.00500                 -10825656.11340  21704570.84140
  -4764532.48600  21999061.18500                  -3827700.44540  21999066.54040
  -4130525.88100  24120136.80200                    -89439.94140  24120143.34140
   9613865.94700  22608474.74700                   7487659.53840  22608480.65340
  -5016871.43400  21311152.57500                  -3902976.84340  21311157.96640
   6804054.96500  22143984.79400                   5301068.19140  22143990.26740
  10640521.67800  22708044.63800                   8291310.94500  22708050.25100
  -6050545.21300  23786922.89600                  -4553372.87740  23786928.68540
 96  9  7 20 43 30.0010000  0  8  1  3  9 17 21 23 28 31
 -14132697.49600  21692744.61400                 -10874057.87540  21692750.48540
  -4748602.10400  22002092.57500                  -3815287.17340  22002097.91940
  -4134372.17700  24119405.08300                    -92437.01140  24119410.68540
   9693060.19100  22623544.93500                   7549369.30740  22623550.89940
  -5025830.37100  21309447.81700                  -3909957.82840  21309453.37240
   6853983.37100  22153485.99700                   5339973.43140  22153491.51740
  10737205.67500  22726442.91100                   8366649.06100  22726448.62200
  -6100819.09900  23777356.19200                  -4592547.30340  23777361.39640
 96  9  7 20 44  0.0010000  0  8  1  3  9 17 21 23 28 31
 -14194421.06300  21680999.14600                 -10922154.13840  21681004.98140
  -4732092.38400  22005234.15300                  -3802422.46340  22005239.59140
  -4137736.95100  24118765.19200                    -95058.89040  24118771.52140
   9772530.31700  22638667.64600                   7611294.03540  22638673.72840
  -5034637.12700  21307771.68500                  -3916820.23240  21307777.33340
   6904005.03700  22163005.02100                   5378951.34140  22163010.35340
  10834151.28700  22744891.29400                   8442191.02900  22744896.99300
  -6150657.13000  23767871.49700                  -4631382.10940  23767877.07540
 96  9  7 20 44 30.0010000  0  8  1  3  9 17 21 23 28 31
 -14255756.91700  21669327.45000                 -10969948.28540  21669333.14640
  -4715024.30700  22008482.20800                  -3789122.67540  22008487.62240
  -4140641.84100  24118212.31700                    -97322.42240  24118218.13040
   9852263.45900  22653840.29400                   7673423.71640  22653846.25940
  -5043315.71500  21306120.40300                  -3923582.76340  21306125.78240
   6954104.36500  22172538.37200                   5417989.77140  22172543.85640
  10931347.43200  22763387.36400                   8517928.23700  22763392.70800
  -6200063.42100  23758469.80200                  -4669880.48840  23758475.41540
 96  9  7 20 45  0.0010000  0  8  1  3  9 17 21 23 28 31
 -14316671.66900  21657735.81700                 -11017414.30340  21657741.34940
  -4697399.66100  22011836.09900                  -3775389.19740  22011841.68840
  -4143069.34100  24117749.98900                    -99213.93640  24117755.31040
   9932272.49600  22669065.70000                   7735768.37640  22669071.59540
  -5051863.14000  21304493.84900                  -3930243.09240  21304499.12240
   7004300.59900  22182090.41100                   5457103.70440  22182095.73140
  11028806.93600  22781933.67700                   8593870.66400  22781938.63400
  -6249002.88600  23749157.47400                  -4708015.12040  23749163.34540
 96  9  7 20 45 30.0010000  0  8  1  3  9 17 21 23 28 31
 -14377174.20600  21646222.52100                 -11064559.11440  21646228.08740
  -4679239.16300  22015291.80200                  -3761238.17440  22015297.13440
  -4145021.60700  24117378.46600                   -100735.14940  24117384.12640
  10012542.61600  22684340.48900                   7798316.49040  22684346.44240
  -5060276.77800  21302892.84100                  -3936799.17040  21302898.06740
   7054587.09200  22191659.75500                   5496287.97540  22191665.26340
  11126516.06500  22800527.16900                   8670007.59800  22800532.04800
  -6297472.32500  23739933.88800                  -4745783.51440  23739939.07940
 96  9  7 20 46  0.0010000  0  8  1  3  9 17 21 23 28 31
 -14437272.78900  21634786.18500                 -11111389.15540  21634791.75140
  -4660562.29900  22018845.98100                  -3746684.78940  22018851.46640
  -4146507.70100  24117095.46600                   -101893.11040  24117100.18840
  10093077.11000  22699665.66900                   7861070.59540  22699671.64640
  -5068522.80300  21301323.75500                  -3943224.63940  21301329.15740
   7104941.98300  22201241.78600                   5535525.53840  22201247.17740
  11224469.37100  22819167.02800                   8746334.81400  22819172.54800
  -6345453.38400  23730803.33300                  -4783171.29440  23730808.97040
 96  9  7 20 46 30.0010000  0  8  1  3  9 17 21 23 28 31
 -14496965.57700  21623426.92700                 -11157902.99440  21623432.55240
  -4641351.79500  22022501.88000                  -3731715.58140  22022507.16540
  -4147497.87000  24116906.67700                   -102664.67740  24116910.76740
  10173888.35300  22715043.63000                   7924040.36440  22715049.59540
  -5076570.52300  21299792.17700                  -3949495.58640  21299797.38040
   7155375.84800  22210839.19200                   5574824.64340  22210844.97040
  11322673.36800  22837854.43500                   8822857.36900  22837859.46600
  -6392943.18400  23721766.31000                  -4820176.32140  23721772.00540
 96  9  7 20 47  0.0010000  0  8  1  3  9 17 21 23 28 31
 -14556265.55300  21612142.50500                 -11204110.74840  21612147.95440
  -4621601.86200  22026259.86400                  -3716326.03940  22026265.05640
  -4147995.26200  24116812.26300                   -103052.23440  24116818.43840
  10254971.48200  22730473.25500                   7987221.97340  22730478.82140
  -5084398.90800  21298302.50500                  -3955595.62140  21298307.89640
   7205890.32300  22220451.86400                   5614186.55940  22220457.44240
  11421118.81100  22856588.11400                   8899568.07000  22856593.69600
  -6439956.45800  23712819.70800                  -4856810.04140  23712825.22840
 96  9  7 20 47 30.0010000  0  8  1  3  9 17 21 23 28 31
 -14615183.62500  21600930.70000                 -11250020.91040  21600936.40740
  -4601289.99800  22030125.21600                  -3700498.63440  22030130.34940
  -4148004.81100  24116810.27100                   -103059.65840  24116816.52840
  10336324.63100  22745954.00500                   8050613.99640  22745960.12240
  -5091989.29300  21296858.19200                  -3961510.20340  21296863.45440
   7256482.49300  22230079.27800                   5653609.01540  22230085.07940
  11519803.10600  22875366.89600                   8976464.86700  22875372.32500
  -6486512.81500  23703960.48900                  -4893087.70740  23703966.70040
 96  9  7 20 48  0.0010000  0  8  1  3  9 17 21 23 28 31
 -14673709.60100  21589793.70800                 -11295625.54140  21589799.40340
  -4580394.18700  22034101.56700                  -3684216.20240  22034106.95840
  -4147532.71900  24116900.16100                   -102691.77340  24116906.86440
  10417964.07700  22761489.80200                   8114229.10740  22761495.82540
  -5099353.85000  21295456.98900                  -3967248.81240  21295462.18140
   7307156.98900  22239722.39600                   5693095.62540  22239727.56340
  11618730.60500  22894192.59900                   9053551.17700  22894197.54800
  -6532616.00600  23695186.74700                  -4929012.25240  23695193.11040
 96  9  7 20 48 30.0010000  0  8  1  3  9 17 21 23 28 31
 -14731841.26600  21578731.44200                 -11340922.92540  21578737.05640
  -4558914.46000  22038188.96600                  -3667478.76640  22038194.39240
  -4146590.98000  24117079.86400                   -101957.94140  24117085.67740
  10499872.62600  22777076.81000                   8178053.90740  22777082.68140
  -5106532.69600  21294090.74700                  -3972842.71140  21294095.85640
   7357910.06300  22249380.15300                   5732643.46240  22249385.91940
  11717884.82800  22913060.71600                   9130814.13700  22913066.53200
  -6578289.87000  23686495.71600                  -4964602.23240  23686500.68540
 96  9  7 20 49  0.0010000  0  8  1  3  9 17 21 23 28 31
 -14789560.84500  21567747.75500                 -11385899.20140  21567753.59140
  -4536840.71100  22042389.38000                  -3650278.45440  22042395.02840
  -4145177.47700  24117348.81700                   -100856.50940  24117354.52440
  10582060.63500  22792716.44200                   8242096.46540  22792722.31340
  -5113535.36300  21292758.22400                  -3978299.32940  21292763.49740
   7408748.91900  22259054.48100                   5772258.14140  22259060.02440
  11817276.89800  22931974.15300                   9208262.42700  22931979.77800
  -6623500.73600  23677892.72400                  -4999831.48740  23677897.59940
 96  9  7 20 49 30.0010000  0  8  1  3  9 17 21 23 28 31
 -14846865.28700  21556843.13000                 -11430551.99240  21556848.86040
  -4514180.50900  22046701.34900                  -3632621.16540  22046707.13840
  -4143288.67400  24117708.05200                    -99384.71540  24117713.20840
  10664525.85100  22808409.22400                   8306355.03340  22808414.98940
  -5120388.25700  21291454.00500                  -3983639.23940  21291459.47840
   7459668.79100  22268744.31700                   5811935.95040  22268749.94240
  11916903.47600  22950932.86400                   9285893.46000  22950938.75100
  -6668227.20900  23669381.16100                  -5034683.26740  23669387.03240
 96  9  7 20 50  0.0010000  0  8  1  3  9 17 21 23 28 31
 -14903737.41100  21546020.70800                 -11474867.91440  21546026.22840
  -4490953.62700  22051121.35600                  -3614522.31540  22051127.04040
  -4140916.42400  24118159.13800                    -97536.20540  24118164.89240
  10747264.01000  22824154.01300                   8370826.28140  22824159.90740
  -5127103.39800  21290176.13800                  -3988871.81240  21290181.52840
   7510672.76100  22278449.96600                   5851679.30040  22278455.33340
  12016763.85600  22969935.43500                   9363706.66900  22969941.43800
  -6712453.69100  23660965.25500                  -5069145.45240  23660971.50140
 96  9  7 20 50 30.0010000  0  8  1  3  9 17 21 23 28 31
 -14960174.56800  21535281.02100                 -11518844.89740  21535286.63440
  -4467165.83200  22055647.86400                  -3595986.38940  22055653.64240
  -4138046.87500  24118705.34900                    -95300.18940  24118711.75940
  10830271.90900  22839949.65300                   8435507.71740  22839955.63040
  -5133677.62200  21288925.06000                  -3993994.57840  21288930.39240
   7561760.62100  22288171.38000                   5891488.01340  22288176.89940
  12116854.05700  22988982.07500                   9441698.97600  22988987.70000
  -6756170.42200  23652646.57500                  -5103210.41940  23652651.75540
 96  9  7 20 51  0.0010000  0  8  1  3  9 17 21 23 28 31
 -15016174.63200  21524624.31700                 -11562481.29240  21524629.86040
  -4442827.66900  22060279.73100                  -3577021.60040  22060285.19240
  -4134666.05600  24119349.05200                    -92665.79540  24119354.66540
  10913558.32700  22855798.77800                   8500406.18740  22855804.69640
  -5140094.02700  21287704.04400                  -3998994.37340  21287709.34140
   7612945.03900  22297911.67700                   5931371.97340  22297917.44240
  12217177.58600  23008073.29400                   9519873.09700  23008078.85600
  -6799361.18800  23644427.62200                  -5136865.56240  23644433.44640
 96  9  7 20 51 30.0010000  0  8  1  3  9 17 21 23 28 31
 -15071720.63000  21514054.21600                 -11605763.86840  21514059.88840
  -4417953.33200  22065013.16100                  -3557639.01240  22065018.48140
  -4130757.58400  24120092.95800                    -89620.19640  24120099.42740
  10997132.94500  22871702.30200                   8565529.24140  22871708.19640
  -5146336.36600  21286516.28600                  -4003858.52240  21286521.64240
   7664232.68200  22307671.31000                   5971336.35940  22307676.94640
  12317732.18000  23027208.30200                   9598227.26100  23027213.86800
  -6842039.17200  23636306.12200                  -5170121.13140  23636311.79440
 96  9  7 20 52  0.0010000  0  8  1  3  9 17 21 23 28 31
 -15126813.62000  21503570.59100                 -11648693.44840  21503576.22840
  -4392556.03800  22069845.95800                  -3537848.92840  22069851.57140
  -4126317.92500  24120937.86400                    -86160.73040  24120943.22040
  11080989.45000  22887659.62200                   8630871.92040  22887665.81040
  -5152409.08900  21285360.56000                  -4008590.51540  21285366.05640
   7715615.70100  22317449.22400                   6011375.06240  22317454.43840
  12418506.52100  23046384.81700                   9676752.66700  23046390.91100
  -6884221.52100  23628279.23100                  -5202990.47340  23628284.70440
 96  9  7 20 52 30.0010000  0  8  1  3  9 17 21 23 28 31
 -15181445.88300  21493174.47400                 -11691264.02040  21493180.09940
  -4366623.52700  22074780.77800                  -3517641.78940  22074786.05240
  -4121336.41500  24121885.43500                    -82279.01640  24121889.97040
  11165150.04900  22903674.91900                   8696451.57040  22903680.82540
  -5158299.35900  21284239.71600                  -4013180.33440  21284245.13040
   7767111.98600  22327248.78600                   6051502.02840  22327254.32940
  12519510.70100  23065605.38800                   9755457.16800  23065611.47000
  -6925891.26100  23620349.50500                  -5235460.39740  23620355.00140
 96  9  7 20 53  0.0010000  0  8  1  3  9 17 21 23 28 31
 -15235613.55500  21482866.45000                 -11733472.57840  21482872.11040
  -4340171.72300  22079814.34100                  -3497030.01240  22079819.90740
  -4115827.35500  24122933.68500                    -77986.22340  24122938.80640
  11249614.11700  22919747.81700                   8762267.67640  22919753.41940
  -5164005.42900  21283153.95800                  -4017626.61740  21283159.47840
   7818720.31000  22337069.32500                   6091716.30340  22337074.75140
  12620743.15600  23084869.86400                   9834339.55500  23084874.93800
  -6967051.37100  23612517.33300                  -5267533.20440  23612522.77140
 96  9  7 20 53 30.0010000  0  8  1  3  9 17 21 23 28 31
 -15289327.59800  21472644.98100                 -11775327.66040  21472650.84140
  -4313195.39000  22084947.86400                  -3476009.51240  22084953.25540
  -4109815.55900  24124078.16900                    -73301.70540  24124083.54840
  11334371.89000  22935876.76300                   8828312.66740  22935882.57540
  -5169538.79700  21282100.84900                  -4021938.32740  21282106.21640
   7870415.36400  22346906.63000                   6131998.15540  22346912.05640
  12722192.50300  23104175.06000                   9913390.93600  23104180.49700
  -7007715.47800  23604779.33300                  -5299219.51240  23604784.38440
 96  9  7 20 54  0.0010000  0  8  1  3  9 17 21 23 28 31
 -15342629.59000  21462501.91100                 -11816861.65940  21462507.53640
  -4285696.05000  22090180.76300                  -3454581.46740  22090186.42340
  -4103343.61400  24125309.58300                    -68258.61040  24125314.92740
  11419397.66300  22952057.00500                   8894566.47940  22952063.01740
  -5174924.68000  21281075.88000                  -4026135.11640  21281081.30640
   7922166.84100  22356754.63800                   6172323.97740  22356760.15740
  12823834.41900  23123516.59100                   9992592.38000  23123521.91100
  -7047898.66500  23597132.61400                  -5330531.09040  23597138.01740
 96  9  7 20 54 30.0010000  0  8  1  3  9 17 21 23 28 31
 -15395506.61800  21452439.95800                 -11858064.51740  21452445.46640
  -4257637.35800  22095520.27100                  -3432717.56940  22095525.63840
  -4096396.50000  24126631.43500                    -62845.28040  24126637.36440
  11504718.80200  22968292.63800                   8961050.45140  22968298.57940
  -5180126.53300  21280086.10600                  -4030188.51740  21280091.35640
   7973981.07800  22366614.68500                   6212698.69240  22366620.05240
  12925686.94600  23142898.26300                  10071957.93100  23142904.32500
  -7087591.20300  23589578.98900                  -5361460.31940  23589584.74340
 96  9  7 20 55  0.0010000  0  8  1  3  9 17 21 23 28 31
 -15447954.93900  21442459.42700                 -11898933.32140  21442465.12240
  -4228996.16600  22100970.48900                  -3410399.77240  22100975.92740
  -4088961.24700  24128045.95000                    -57051.57740  24128051.73940
  11590332.52100  22984584.44200                   9027762.39640  22984589.92740
  -5185119.88300  21279135.82500                  -4034079.43540  21279141.13440
   8025845.73800  22376484.11400                   6253112.69740  22376489.58740
  13027754.09500  23162321.00500                  10151490.69800  23162327.72000
  -7126790.99200  23582119.19200                  -5392005.60740  23582123.88040
 96  9  7 20 55 30.0010000  0  8  1  3  9 17 21 23 28 31
 -15499977.28000  21432559.92700                 -11939470.19040  21432565.56340
  -4199754.74100  22106534.81700                  -3387614.25940  22106540.32540
  -4081022.95100  24129556.41100                    -50865.85440  24129562.16540
  11676235.40400  23000931.56000                   9094699.65340  23000937.60640
  -5189894.98000  21278227.08300                  -4037800.28940  21278232.42740
   8077771.37700  22386365.37200                   6293574.21840  22386370.89240
  13130036.49500  23181785.56700                  10231191.19800  23181790.12200
  -7165490.79400  23574755.23100                  -5422161.27640  23574761.41940
 96  9  7 20 56  0.0010000  0  8  1  3  9 17 21 23 28 31
 -15551570.30600  21422741.94200                 -11979672.52540  21422747.62640
  -4169930.43100  22112210.41100                  -3364374.55340  22112215.79040
  -4072562.78600  24131166.84100                    -44273.51240  24131172.02140
  11762423.42400  23017332.69200                   9161859.12540  23017338.16540
  -5194453.65300  21277359.71600                  -4041352.50340  21277365.02440
   8129778.49000  22396261.71600                   6334099.23240  22396267.63440
  13232531.72100  23201288.59900                  10311057.55100  23201294.48500
  -7203682.23000  23567487.69200                  -5451920.81840  23567493.77440
 96  9  7 20 56 30.0010000  0  8  1  3  9 17 21 23 28 31
 -15602715.42700  21413009.40300                 -12019525.84840  21413014.99340
  -4139549.64800  22117991.76300                  -3340701.23440  22117997.45840
  -4063570.16100  24132878.23900                    -37266.28240  24132883.10340
  11848877.97700  23033784.28600                   9229226.25840  23033790.13440
  -5198796.47300  21276533.29400                  -4044736.51640  21276538.68540
   8181881.65900  22406176.78600                   6374699.10340  22406182.55240
  13335235.07600  23220833.23100                  10391086.08000  23220839.56000
  -7241357.28100  23560318.09900                  -5481277.98940  23560323.81740
 96  9  7 20 57  0.0010000  0  8  1  3  9 17 21 23 28 31
 -15653406.47300  21403363.16100                 -12059025.34840  21403368.59940
  -4108636.30100  22123874.31000                  -3316612.93340  22123879.82940
  -4054054.32100  24134688.54400                    -29851.31740  24134694.38040
  11935572.97100  23050281.77100                   9296780.74740  23050287.97040
  -5202945.56800  21275743.76300                  -4047969.58040  21275749.21240
   8234111.66300  22416115.77800                   6415397.79440  22416121.21640
  13438140.53900  23240415.70800                  10471272.06100  23240421.81700
  -7278504.40700  23553249.31700                  -5510223.77340  23553254.96640
 96  9  7 20 57 30.0010000  0  8  1  3  9 17 21 23 28 31
 -15703653.26800  21393801.52100                 -12098178.67540  21393806.99340
  -4077198.98900  22129856.52100                  -3292116.34040  22129861.98140
  -4044008.66900  24136600.48100                    -22023.53440  24136606.82140
  12022517.37900  23066826.48900                   9364529.60940  23066832.43140
  -5206914.71600  21274988.42700                  -4051062.41540  21274993.84140
   8286490.21800  22426083.15300                   6456212.25640  22426088.94240
  13541246.84500  23260036.19200                  10551614.58400  23260041.97800
  -7315113.13700  23546283.44200                  -5538750.05540  23546289.04440
 96  9  7 20 58  0.0010000  0  8  1  3  9 17 21 23 28 31
 -15753429.38400  21384329.45800                 -12136965.24140  21384334.87240
  -4045225.82600  22135940.77800                  -3267202.20140  22135946.54440
  -4033420.25800  24138614.83300                    -13772.83340  24138620.29440
  12109727.96200  23083422.43500                   9432485.87540  23083428.32940
  -5210703.79800  21274267.42700                  -4054014.94740  21274272.80640
   8339011.86000  22436077.62200                   6497138.20340  22436083.35340
  13644563.43300  23279696.13000                  10632120.95400  23279702.00100
  -7351163.35900  23539422.88800                  -5566841.11640  23539427.25940
 96  9  7 20 58 30.0010000  0  8  1  3  9 17 21 23 28 31
 -15802749.84200  21374943.98100                 -12175396.75040  21374949.57140
  -4012707.57800  22142128.88000                  -3241863.33240  22142134.69240
  -4022308.90400  24140729.23900                     -5114.63840  24140735.06340
  12197195.25300  23100067.19200                   9500642.15740  23100072.43140
  -5214315.85200  21273580.12200                  -4056829.53540  21273585.43140
   8391650.92000  22446094.38000                   6538155.64240  22446099.92340
  13748077.59800  23299394.79400                  10712781.26400  23299400.13000
  -7386668.65100  23532666.70800                  -5594507.56240  23532671.70040
 96  9  7 20 59  0.0010000  0  8  1  3  9 17 21 23 28 31
 -15851624.25600  21365643.55200                 -12213480.68740  21365649.03640
  -3979620.72100  22148425.09900                  -3216081.37940  22148430.75940
  -4010665.48400  24142945.57500                      3958.17540  24142951.73940
  12284947.33600  23116765.99700                   9569020.36040  23116771.84540
  -5217743.79300  21272928.04400                  -4059500.65740  21272933.29440
   8444395.15300  22456131.50500                   6579255.03940  22456137.30640
  13851788.93900  23319130.34900                  10793595.24800  23319136.22800
  -7421631.32200  23526014.04400                  -5621751.19640  23526019.41140
 96  9  7 20 59 30.0010000  0  8  1  3  9 17 21 23 28 31
 -15900056.78900  21356427.02100                 -12251220.30540  21356432.61040
  -3945967.55900  22154828.98900                  -3189858.15440  22154834.56740
  -3998495.91300  24145261.51300                     13440.95040  24145267.57140
  12373005.84800  23133522.91900                   9637637.33140  23133528.93140
  -5220992.89500  21272309.46600                  -4062032.42040  21272314.58740
   8497208.63000  22466181.95800                   6620408.38440  22466187.34940
  13955686.00900  23338901.02100                  10874553.92600  23338907.57900
  -7456067.80000  23519460.20800                  -5648584.81340  23519465.25940
 96  9  7 21  0  0.0010000  0  8  1  3  9 17 21 23 28 31
 -15948019.39700  21347300.17700                 -12288593.74540  21347305.72040
  -3911738.72200  22161342.60600                  -3163186.35240  22161348.07940
  -3985800.80400  24147677.48100                     23333.24640  24147682.41540
  12461371.21700  23150337.89600                   9706493.42040  23150344.09540
  -5224052.21700  21271727.47400                  -4064416.30240  21271732.68840
   8550101.56900  22476247.18500                   6661623.65140  22476252.30640
  14059772.47600  23358708.92700                  10955660.19800  23358714.85600
  -7489985.02000  23513006.43500                  -5675013.81540  23513011.40340
 96  9  7 21  0 30.0010000  0  8  1  3  9 17 21 23 28 31
 -15995515.53300  21338261.99700                 -12325603.70140  21338267.44640
  -3876927.62200  22167967.12200                  -3136060.83540  22167972.64240
  -3972568.81300  24150195.11400                     33643.89740  24150201.82940
  12550058.66200  23167214.49700                   9775600.47540  23167220.21640
  -5226891.07200  21271187.18500                  -4066628.38840  21271192.35340
   8603096.45700  22486331.46600                   6702918.37040  22486337.17340
  14164057.47900  23378552.36400                  11036921.15200  23378559.91500
  -7523385.92100  23506650.13800                  -5701040.48140  23506655.95040
 96  9  7 21  1  0.0010000  0  8  1  3  9 17 21 23 28 31
 -16042547.81200  21329312.10600                 -12362252.21040  21329317.63840
  -3841560.85300  22174697.09100                  -3108502.33340  22174702.56340
  -3958801.49500  24152815.21600                     44371.68440  24152821.31040
  12639062.98400  23184151.41900                   9844954.45340  23184157.30240
  -5229528.61200  21270685.11400                  -4068683.61540  21270690.27140
   8656185.02100  22496433.70000                   6744286.07340  22496439.34940
  14268528.28800  23398434.31700                  11118326.90900  23398439.98900
  -7556277.69400  23500390.75500                  -5726670.43740  23500396.01740
 96  9  7 21  1 30.0010000  0  8  1  3  9 17 21 23 28 31
 -16089122.05300  21320449.10600                 -12398543.81540  21320454.63840
  -3805658.01600  22181529.24700                  -3080526.11740  22181534.73140
  -3944507.15300  24155535.04400                     55510.10240  24155539.81340
  12728343.84300  23201141.31700                   9914523.89040  23201147.37640
  -5231983.57400  21270218.06700                  -4070596.57440  21270223.27140
   8709357.06500  22506552.11400                   6785718.82540  22506557.59940
  14373172.08200  23418345.84100                  11199867.45500  23418353.02800
  -7588666.32500  23494227.60600                  -5751908.33640  23494233.14940
 96  9  7 21  2  0.0010000  0  8  1  3  9 17 21 23 28 31
 -16135240.17500  21311673.24700                 -12434479.99240  21311678.59140
  -3769214.73900  22188464.31000                  -3052128.77140  22188469.80640
  -3929676.35800  24158357.02100                     67066.59740  24158362.73940
  12817878.13800  23218179.15300                   9984290.82540  23218185.68140
  -5234238.99000  21269788.89600                  -4072354.04240  21269794.16940
   8762618.03600  22516687.13800                   6827220.87840  22516692.71640
  14477987.96600  23438293.08300                  11281542.08900  23438298.88800
  -7620533.07900  23488163.51300                  -5776739.56140  23488168.86840
 96  9  7 21  2 30.0010000  0  8  1  3  9 17 21 23 28 31
 -16180880.45900  21302987.99700                 -12470043.83440  21302993.55240
  -3732222.99200  22195503.67700                  -3023304.05340  22195509.04440
  -3914288.81600  24161285.02800                     79056.86040  24161290.26740
  12907686.24700  23235268.95800                  10054271.11640  23235274.88840
  -5236283.63000  21269399.84100                  -4073947.26240  21269405.12640
   8815983.17000  22526842.56700                   6868804.09040  22526848.31040
  14582993.75500  23458274.38800                  11363364.70200  23458280.79800
  -7651834.27300  23482207.47400                  -5801130.11240  23482212.03240
 96  9  7 21  3  0.0010000  0  8  1  3  9 17 21 23 28 31
 -16226047.44700  21294392.97400                 -12505238.86840  21294398.37640
  -3694697.13200  22202644.24700                  -2994063.14040  22202649.68540
  -3898358.91900  24164316.98100                     91469.81840  24164323.29840
  12997735.73200  23252405.22400                  10124439.50740  23252411.17740
  -5238146.65400  21269045.27100                  -4075398.96640  21269050.53240
   8869444.86100  22537015.93500                   6910462.53640  22537021.32540
  14688169.67700  23478287.63000                  11445319.87600  23478294.72800
  -7682569.29200  23476358.61400                  -5825079.45640  23476364.28640
 96  9  7 21  3 30.0010000  0  8  1  3  9 17 21 23 28 31
 -16270748.40100  21285886.81000                 -12540070.76040  21285892.11840
  -3656632.72500  22209887.81700                  -2964402.58140  22209893.39640
  -3881906.58000  24167447.33300                    104289.81240  24167454.01340
  13088020.23800  23269585.97400                  10194791.02140  23269591.39940
  -5239822.92700  21268726.38000                  -4076705.15340  21268731.65340
   8923008.86700  22547208.77800                   6952200.71840  22547214.14640
  14793504.06200  23498333.24700                  11527398.54200  23498339.28200
  -7712749.50900  23470615.73100                  -5848596.51640  23470620.91140
 96  9  7 21  4  0.0010000  0  8  1  3  9 17 21 23 28 31
 -16314964.94500  21277472.82500                 -12574525.18940  21277478.06340
  -3618019.66500  22217235.87200                  -2934314.50140  22217241.21640
  -3864933.30200  24170677.45800                    117515.75940  24170681.77140
  13178575.71500  23286817.65300                  10265353.68640  23286823.09140
  -5241294.93400  21268446.14600                  -4077852.17040  21268451.47840
   8976698.22900  22557425.50500                   6994036.57340  22557430.82540
  14899006.16900  23518410.13800                  11609607.92300  23518415.77400
  -7742359.34300  23464980.70800                  -5871669.09840  23464986.27440
 96  9  7 21  4 30.0010000  0  8  1  3  9 17 21 23 28 31
 -16358699.55900  21269150.34100                 -12608604.09040  21269155.61440
  -3578870.51000  22224685.79400                  -2903808.68240  22224691.53640
  -3847436.62000  24174007.13000                    131149.56040  24174012.94240
  13269413.58400  23304104.09100                  10336136.40040  23304109.96240
  -5242561.17400  21268205.20800                  -4078838.85240  21268210.56340
   9030518.22100  22567667.31000                   7035974.22340  22567673.05240
  15004675.60400  23538517.99700                  11691947.69400  23538524.02800
  -7771414.33200  23459451.84900                  -5894309.34240  23459457.23940
 96  9  7 21  5  0.0010000  0  8  1  3  9 17 21 23 28 31
 -16401968.35200  21260916.35600                 -12642320.01140  21260921.51340
  -3539198.82800  22232235.11400                  -2872895.70240  22232240.77440
  -3829430.58900  24177433.38800                    145180.24740  24177438.66140
  13360521.71400  23321441.34900                  10407129.70340  23321447.30240
  -5243624.70700  21268003.12200                  -4079667.58240  21268008.22040
   9084438.34600  22577927.95000                   7077989.89640  22577933.15340
  15110491.39800  23558653.92700                  11774401.50200  23558660.62600
  -7799953.51900  23454020.97400                  -5916547.67740  23454025.97840
 96  9  7 21  5 30.0010000  0  8  1  3  9 17 21 23 28 31
 -16444752.42300  21252774.77100                 -12675658.23040  21252780.03240
  -3499004.11500  22239883.84100                  -2841575.16140  22239889.32540
  -3810910.39800  24180957.50500                    159611.58440  24180963.65740
  13451928.07000  23338835.21600                  10478355.39740  23338841.49740
  -5244477.23500  21267840.59900                  -4080331.88440  21267845.86040
   9138455.48200  22588207.07500                   7120081.16240  22588212.52440
  15216462.77300  23578818.81700                  11856976.52900  23578825.69600
  -7827967.27000  23448690.20000                  -5938376.55140  23448695.36840
 96  9  7 21  6  0.0010000  0  8  1  3  9 17 21 23 28 31
 -16487054.11000  21244725.12200                 -12708620.56640  21244730.44240
  -3458305.48300  22247628.38800                  -2809861.96240  22247633.83740
  -3791869.03900  24184580.81000                    174449.01340  24184586.71640
  13543622.59500  23356284.22400                  10549805.62440  23356290.32940
  -5245132.19800  21267715.95800                  -4080842.24340  21267721.31340
   9192549.93200  22598501.02100                   7162232.67240  22598506.54040
  15322587.16100  23599014.04400                  11939670.78200  23599021.14600
  -7855441.53500  23443461.91100                  -5959785.07840  23443467.37240
 96  9  7 21  6 30.0010000  0  8  1  3  9 17 21 23 28 31
 -16528875.25500  21236766.81700                 -12741208.45440  21236772.14940
  -3417118.62400  22255465.97400                  -2777768.32940  22255471.83340
  -3772308.15400  24188303.16900                    189691.29340  24188309.07540
  13635581.29200  23373783.04400                  10621461.68940  23373789.44240
  -5245604.96900  21267626.04400                  -4081210.63940  21267631.32940
   9246705.32100  22608806.16900                   7204431.66240  22608811.39640
  15428853.94800  23619236.61400                  12022476.00000  23619242.81700
  -7882385.24000  23438334.95800                  -5980780.16540  23438340.46640
 96  9  7 21  7  0.0010000  0  8  1  3  9 17 21 23 28 31
 -16570197.03200  21228903.65300                 -12773407.22540  21228908.89240
  -3375420.96600  22263400.73100                  -2745276.66740  22263406.60340
  -3752230.77800  24192123.91100                    205336.01140  24192127.81340
  13727805.79900  23391332.67700                  10693324.86640  23391338.78240
  -5245909.87400  21267567.96600                  -4081448.23040  21267573.22840
   9300924.24300  22619123.70800                   7246680.16140  22619129.19240
  15535266.34000  23639486.80200                  12105394.66600  23639491.92300
  -7908772.71900  23433313.55200                  -6001341.82740  23433319.13040
 96  9  7 21  7 30.0010000  0  8  1  3  9 17 21 23 28 31
 -16611028.15600  21221133.58300                 -12805223.66740  21221138.90340
  -3333211.45600  22271432.74700                  -2712386.16240  22271438.60640
  -3731638.16500  24196042.20000                    221382.23440  24196048.85640
  13820286.41800  23408931.34100                  10765387.61540  23408937.88040
  -5246050.78200  21267541.31000                  -4081558.02640  21267546.66540
   9355224.92900  22629456.93500                   7288992.36340  22629462.38440
  15641822.89500  23659764.05200                  12188425.67300  23659769.14900
  -7934589.62300  23428400.47400                  -6021458.88740  23428405.75940
 96  9  7 21  8  0.0010000  0  8  1  3  9 17 21 23 28 31
 -16651373.64400  21213456.07500                 -12836661.69240  21213461.38440
  -3290478.63200  22279564.95800                  -2679087.87640  22279570.72440
  -3710520.49200  24200060.61400                    237837.57740  24200066.18140
  13913007.45300  23426575.61400                  10837637.70940  23426581.45040
  -5246015.42200  21267547.72400                  -4081530.46740  21267553.14940
   9409614.69500  22639806.77800                   7331373.97840  22639812.14640
  15748524.75300  23680068.59100                  12271569.88300  23680073.74300
  -7959839.79900  23423595.63800                  -6041134.34040  23423600.72440
 96  9  7 21  8 30.0010000  0  8  1  3  9 17 21 23 28 31
 -16691220.13000  21205873.64600                 -12867710.87740  21205878.97840
  -3247204.37500  22287799.52800                  -2645367.69340  22287805.06040
  -3688860.50700  24204182.77800                    254715.50640  24204187.91140
  14005979.57300  23444268.01300                  10910083.46940  23444274.29440
  -5245783.54100  21267592.10600                  -4081349.77340  21267597.48540
   9464113.83200  22650177.88800                   7373840.83240  22650183.39640
  15855376.54400  23700401.22400                  12354830.91900  23700407.34100
  -7984534.51600  23418896.53600                  -6060376.97540  23418901.92740
 96  9  7 21  9  0.0010000  0  8  1  3  9 17 21 23 28 31
 -16730585.65700  21198382.75500                 -12898385.29340  21198388.13440
  -3203381.77600  22296138.75500                  -2611220.22840  22296144.21640
  -3666657.64100  24208407.87200                    272016.46440  24208412.72440
  14099208.14900  23462009.20800                  10982729.06540  23462015.25540
  -5245348.90100  21267674.80200                  -4081011.09440  21267680.01740
   9518721.43500  22660569.47400                   7416392.20340  22660575.39240
  15962369.90900  23720761.33300                  12438202.27600  23720768.52400
  -8008685.76200  23414300.60600                  -6079196.11540  23414305.65740
 96  9  7 21  9 30.0010000  0  8  1  3  9 17 21 23 28 31
 -16769490.13800  21190979.41900                 -12928700.45640  21190984.72840
  -3159038.41300  22304576.95000                  -2576666.98140  22304582.70440
  -3643911.10300  24212736.00500                    289741.04740  24212741.87640
  14192690.15100  23479798.18500                  11055572.14640  23479804.52440
  -5244701.20000  21267797.98900                  -4080506.39240  21267803.32140
   9573424.44500  22670978.73100                   7459017.90740  22670984.25140
  16069491.35600  23741145.87200                  12521673.46500  23741153.21600
  -8032319.00100  23409803.50500                  -6097611.63740  23409808.52140
 96  9  7 21 10  0.0010000  0  8  1  3  9 17 21 23 28 31
 -16807894.21300  21183671.31700                 -12958625.69440  21183676.60340
  -3114157.23700  22313117.88000                  -2541694.65740  22313123.36440
  -3620592.96400  24217173.38800                    307911.04540  24217179.38840
  14286462.00600  23497642.61400                  11128641.09240  23497648.63840
  -5243817.51200  21267966.13800                  -4079817.80940  21267971.23540
   9628231.02900  22681408.33300                   7501724.31840  22681413.75940
  16176760.20500  23761557.59900                  12605259.49300  23761564.79000
  -8055416.93800  23405408.02100                  -6115610.03040  23405413.18840
 96  9  7 21 10 30.0010000  0  8  1  3  9 17 21 23 28 31
 -16845817.03200  21176454.87200                 -12988175.92340  21176460.21640
  -3068762.97600  22321755.84100                  -2506322.52140  22321761.45440
  -3596726.61400  24221715.38800                    326508.20640  24221720.72040
  14380524.24100  23515541.66100                  11201936.31040  23515547.89640
  -5242720.55300  21268175.12200                  -4078963.03240  21268180.24340
   9683121.59400  22691853.57500                   7544496.18240  22691859.06040
  16284156.78500  23781995.07500                  12688945.03100  23782001.05200
  -8077991.54400  23401112.10600                  -6133200.62740  23401116.61840
 96  9  7 21 11  0.0010000  0  8  1  3  9 17 21 23 28 31
 -16883260.02400  21169329.65300                 -13017352.25640  21169334.86840
  -3022856.04400  22330491.63800                  -2470550.90440  22330497.39240
  -3572327.05000  24226358.32500                    345520.86240  24226363.28240
  14474874.06900  23533495.41100                  11275455.60540  23533501.01340
  -5241419.70400  21268422.34100                  -4077949.38140  21268427.59140
   9738093.16600  22702314.29400                   7587331.16640  22702319.93140
  16391681.16100  23802456.23900                  12772730.15700  23802463.09100
  -8100021.67400  23396920.44200                  -6150366.97240  23396925.70440
 96  9  7 21 11 30.0010000  0  8  1  3  9 17 21 23 28 31
 -16920214.32800  21162297.13800                 -13046147.79940  21162302.47040
  -2976436.86800  22339324.89600                  -2434380.13440  22339330.48540
  -3547402.77900  24231100.80200                    364942.37940  24231105.77140
  14569507.35100  23551503.13000                  11349195.79040  23551509.63440
  -5239921.93800  21268707.45800                  -4076782.29040  21268712.66140
   9793157.76000  22712792.71600                   7630238.63340  22712798.31740
  16499333.20400  23822941.77100                  12856614.77600  23822949.63400
  -8121491.43900  23392834.57500                  -6167096.65340  23392839.93140
 96  9  7 21 12  0.0020000  0  8  1  3  9 17 21 23 28 31
 -16956691.28100  21155355.82200                 -13074571.37740  21155361.20140
  -2929497.99900  22348257.63500                  -2397804.41140  22348263.11940
  -3521962.30400  24235942.16600                    384766.14440  24235947.51040
  14664407.58900  23569562.60400                  11423143.95640  23569569.21340
  -5238245.88500  21269026.55700                  -4075476.27340  21269032.00640
   9848326.69200  22723291.01800                   7673227.38440  22723296.43240
  16607111.07500  23843451.68200                  12940597.47000  23843458.70900
  -8142380.71400  23388859.47100                  -6183374.02140  23388864.56840
 96  9  7 21 12 30.0020000  0  8  1  3  9 17 21 23 28 31
 -16992710.11600  21148501.67400                 -13102637.98540  21148507.10040
  -2882031.15200  22357289.99400                  -2360817.27940  22357295.61940
  -3496008.36800  24240880.71300                    404989.99740  24240886.39640
  14759556.98900  23587668.53300                  11497286.26140  23587674.24040
  -5236386.75400  21269380.29900                  -4074027.60140  21269385.66640
   9903613.17600  22733811.71300                   7716307.75040  22733817.50240
  16715006.51900  23863983.65800                  13024671.73500  23863989.68900
  -8162670.42400  23384998.30700                  -6199184.17540  23385003.46340
 96  9  7 21 13  0.0020000  0  8  1  3  9 17 21 23 28 31
 -17028262.18100  21141736.47900                 -13130340.87140  21141741.89340
  -2834029.91400  22366424.13500                  -2323413.74940  22366429.63140
  -3469534.74900  24245919.26800                    425618.77840  24245924.15440
  14854950.73600  23605821.52500                  11571618.95940  23605827.94740
  -5234336.03900  21269770.32200                  -4072429.64540  21269775.77140
   9959028.77200  22744357.00200                   7759488.71840  22744362.67440
  16823019.69400  23884538.78300                  13108837.73600  23884545.12700
  -8182354.90500  23381252.42400                  -6214522.72840  23381257.69740
 96  9  7 21 13 30.0020000  0  8  1  3  9 17 21 23 28 31
 -17063359.25900  21135057.59600                 -13157689.22640  21135062.89340
  -2785521.33300  22375654.97100                  -2285614.87040  22375660.68940
  -3442541.26100  24251055.65800                    446652.69440  24251061.35440
  14950578.86000  23624019.53300                  11646134.31740  23624026.06140
  -5232097.85700  21270196.11100                  -4070685.60440  21270201.58440
  10014549.92000  22754922.42400                   7802751.94340  22754928.23640
  16931132.17500  23905112.54100                  13193081.17200  23905118.66600
  -8201454.09200  23377618.04900                  -6229405.22140  23377623.21740
 96  9  7 21 14  0.0020000  0  8  1  3  9 17 21 23 28 31
 -17097977.08700  21128470.03300                 -13184664.13540  21128475.30740
  -2736494.80900  22384984.51800                  -2247412.41340  22384990.34240
  -3414985.26800  24256299.55700                    468124.89440  24256304.35040
  15046465.42600  23642265.96300                  11720851.08040  23642272.25640
  -5229640.76200  21270663.72100                  -4068770.98540  21270669.26440
  10070184.31100  22765509.23600                   7846103.40540  22765514.67440
  17039362.85500  23925708.66600                  13277416.63600  23925712.45500
  -8219955.03000  23374097.77500                  -6243821.54240  23374103.65840
 96  9  7 21 14 30.0020000  0  8  1  3  9 17 21 23 28 31
 -17132102.42100  21121976.14300                 -13211255.28640  21121981.63940
  -2686968.02000  22394409.65000                  -2208820.13240  22394415.24040
  -3386873.85300  24261649.08000                    490029.89340  24261654.35440
  15142619.31100  23660563.90000                  11795776.12540  23660570.33440
  -5226960.15700  21271173.76000                  -4066682.20340  21271179.39640
  10125913.32100  22776114.37700                   7889528.59040  22776119.68640
  17147704.35000  23946325.01800                  13361838.42600  23946330.85700
  -8237892.14000  23370684.15800                  -6257798.51140  23370689.42040
 96  9  7 21 15  0.0020000  0  8  1  3  9 17 21 23 28 31
 -17165706.62200  21115581.40800                 -13237440.35740  21115586.82240
  -2636957.22200  22403926.14300                  -2169850.69740  22403931.48640
  -3358197.71500  24267105.57200                    512374.95940  24267111.97140
  15239051.79500  23678914.45500                  11870918.25440  23678920.31440
  -5224063.54500  21271725.29100                  -4064425.10240  21271730.82240
  10181729.68500  22786735.59600                   7933021.85040  22786741.15040
  17256156.58000  23966961.78300                  13446346.60500  23966968.72500
  -8255275.74300  23367375.97900                  -6271344.16540  23367380.79540
 96  9  7 21 15 30.0020000  0  8  1  3  9 17 21 23 28 31
 -17198788.38700  21109286.30700                 -13263218.33940  21109291.61540
  -2586462.88800  22413534.97100                  -2130504.48840  22413540.44340
  -3328949.26900  24272671.26800                    535165.94040  24272677.11540
  15335769.41300  23697319.18200                  11946282.58040  23697325.05340
  -5220951.68000  21272317.30700                  -4062000.27740  21272322.60440
  10237646.59000  22797376.76800                   7976593.45340  22797381.81840
  17364720.11900  23987619.55700                  13530941.48700  23987626.53700
  -8272117.58200  23364170.99400                  -6284467.68340  23364176.10440
 96  9  7 21 16  0.0020000  0  8  1  3  9 17 21 23 28 31
 -17231356.79900  21103088.82200                 -13288596.30140  21103094.16640
  -2535497.32700  22423233.18900                  -2090791.08740  22423238.88540
  -3299165.31300  24278339.44700                    558374.20340  24278345.55340
  15432749.72800  23715774.20500                  12021851.59140  23715780.20540
  -5217638.50900  21272947.58800                  -4059418.58140  21272953.03740
  10293667.08500  22808036.59600                   8020245.77240  22808041.60040
  17473377.78800  24008297.72900                  13615609.69400  24008305.08000
  -8288445.95100  23361064.05700                  -6297191.08840  23361069.85740
 96  9  7 21 16 30.0020000  0  8  1  3  9 17 21 23 28 31
 -17263394.86100  21096992.18900                 -13313561.00940  21096997.48640
  -2484043.92200  22433024.34600                  -2050697.54440  22433030.26440
  -3268862.47500  24284105.52500                    581986.81540  24284111.46740
  15529998.73300  23734279.68900                  12097630.01240  23734285.95940
  -5214116.26100  21273617.97900                  -4056673.96940  21273623.36940
  10349808.77500  22818719.90000                   8063992.53840  22818725.44340
  17582139.59900  24028995.18200                  13700359.08000  24029001.39300
  -8304241.76500  23358057.82200                  -6309499.49540  23358063.40040
 96  9  7 21 17  0.0020000  0  8  1  3  9 17 21 23 28 31
 -17294903.89900  21090996.17400                 -13338113.49040  21091001.52940
  -2432093.90800  22442910.51000                  -2010217.03040  22442916.15840
  -3238036.62500  24289971.58000                    606006.95040  24289976.92440
  15627502.37700  23752833.87700                  12173606.79740  23752840.87740
  -5210388.94800  21274327.44700                  -4053769.56740  21274332.82640
  10406085.30300  22829429.03300                   8107844.37240  22829434.45940
  17691004.19900  24049711.09600                  13785188.46100  24049716.83400
  -8319486.72000  23355156.86900                  -6321378.68740  23355162.41240
 96  9  7 21 17 30.0020000  0  8  1  3  9 17 21 23 28 31
 -17325908.76300  21085095.99400                 -13362273.10840  21085101.43240
  -2379646.36300  22452890.86100                  -1969348.83840  22452896.34640
  -3206719.14100  24295931.09600                    630410.16440  24295936.86140
  15725233.69400  23771431.41600                  12249761.02640  23771437.49840
  -5206454.43100  21275076.11900                  -4050703.71140  21275081.39340
  10462483.40700  22840161.58000                   8151790.92440  22840167.08840
  17799959.92000  24070443.60400                  13870088.93300  24070451.80700
  -8334180.54700  23352361.13500                  -6332828.43040  23352366.61940
 96  9  7 21 18  0.0020000  0  8  1  3  9 17 21 23 28 31
 -17356417.90800  21079290.17400                 -13386046.45040  21079295.74040
  -2326714.67100  22462963.20500                  -1928103.38240  22462968.92440
  -3174909.33900  24301984.34600                    655197.01540  24301989.84240
  15823183.48600  23790070.54900                  12326085.45640  23790076.18640
  -5202323.84600  21275862.21300                  -4047485.07540  21275867.49840
  10518966.05800  22850909.60400                   8195803.36540  22850914.84240
  17909000.57700  24091193.53300                  13955055.60700  24091200.19300
  -8348300.64500  23349673.78300                  -6343831.08840  23349679.02140
 96  9  7 21 18 30.0020000  0  8  1  3  9 17 21 23 28 31
 -17386425.04200  21073580.06400                 -13409428.61140  21073585.50240
  -2273282.22200  22473131.08000                  -1886467.72840  22473136.54140
  -3142571.50000  24308138.17400                    680395.32540  24308143.28340
  15921363.31400  23808753.17400                  12402589.17340  23808758.85740
  -5197995.46600  21276685.79900                  -4044112.31040  21276691.07240
  10575531.86600  22861673.70500                   8239880.60740  22861679.37740
  18018130.79100  24111961.90800                  14040091.99300  24111968.06800
  -8361814.56800  23347102.22900                  -6354361.42040  23347107.76040
 96  9  7 21 19  0.0020000  0  8  1  3  9 17 21 23 28 31
 -17415938.50600  21067963.98600                 -13432426.09640  21067969.37740
  -2219349.83600  22483394.26800                  -1844442.51940  22483399.97540
  -3109684.38000  24314395.58000                    706021.63440  24314400.70140
  16019778.43400  23827481.83000                  12479276.21940  23827488.15840
  -5193460.78400  21277548.41600                  -4040578.78940  21277553.70140
  10632181.34600  22872453.55700                   8284023.03840  22872459.42840
  18127343.18000  24132743.88500                  14125192.43900  24132750.43200
  -8374721.08800  23344646.08800                  -6364418.44040  23344651.87740
 96  9  7 21 19 30.0020000  0  8  1  3  9 17 21 23 28 31
 -17444956.25100  21062442.01800                 -13455037.30640  21062447.36140
  -2164908.92500  22493754.15000                  -1802021.05240  22493759.81140
  -3076238.33900  24320760.85400                    732083.47840  24320766.76040
  16118445.78500  23846257.74400                  12556159.77040  23846263.68640
  -5188706.90400  21278453.43900                  -4036874.46040  21278458.68940
  10688913.24700  22883249.72100                   8328229.70340  22883255.11140
  18236641.80900  24153542.62700                  14210360.09400  24153549.43200
  -8387009.84000  23342307.68900                  -6373994.09340  23342312.92840
 96  9  7 21 20  0.0020000  0  8  1  3  9 17 21 23 28 31
 -17473482.20100  21057013.64300                 -13477265.29940  21057018.90440
  -2109965.48600  22504209.47100                  -1759208.00840  22504215.00240
  -3042217.07800  24327234.86900                    758593.54640  24327241.04540
  16217371.10900  23865082.75200                  12633244.37440  23865088.84640
  -5183748.79700  21279396.83800                  -4033011.00140  21279402.10040
  10745732.36800  22894062.00200                   8372504.32740  22894067.40440
  18346019.97700  24174357.00200                  14295589.73500  24174363.43600
  -8398691.20700  23340084.52500                  -6383096.46240  23340089.62340
 96  9  7 21 20 30.0020000  0  8  1  3  9 17 21 23 28 31
 -17501525.48100  21051677.08800                 -13499117.18840  21051682.42040
  -2054519.89000  22514760.20500                  -1716003.66840  22514766.02940
  -3007639.68300  24333815.01800                    785536.95440  24333820.95940
  16316558.80600  23883957.54900                  12710533.44240  23883963.65440
  -5178586.84300  21280379.22900                  -4028988.69840  21280384.58440
  10802660.46200  22904894.97100                   8416863.87740  22904900.90040
  18455468.16200  24195184.29900                  14380873.89900  24195191.17000
  -8409785.70200  23337973.60400                  -6391741.49440  23337979.35740
 96  9  7 21 21  0.0020000  0  8  1  3  9 17 21 23 28 31
 -17529102.59100  21046429.40800                 -13520605.82540  21046434.77540
  -1998596.37600  22525402.15800                  -1672426.93540  22525407.63140
  -2972524.43500  24340497.30700                    812899.48440  24340502.90840
  16416005.77800  23902881.51000                  12788024.48740  23902887.28740
  -5173225.07200  21281399.41600                  -4024810.69040  21281404.67840
  10859684.42300  22915746.18200                   8461298.11340  22915752.10040
  18564979.97300  24216023.35400                  14466207.65600  24216030.06400
  -8420313.32800  23335970.01800                  -6399944.84940  23335975.33840
 96  9  7 21 21 30.0020000  0  8  1  3  9 17 21 23 28 31
 -17556204.63100  21041271.94700                 -13541724.27940  21041277.29140
  -1942200.25400  22536134.11100                  -1628481.92340  22536139.83040
  -2936872.72500  24347281.34600                    840680.01740  24347286.90040
  16515714.55000  23921855.65800                  12865719.58140  23921862.17440
  -5167660.94900  21282458.19700                  -4020475.01140  21282463.42440
  10916807.14000  22926616.24400                   8505809.31340  22926621.75240
  18674568.52500  24236877.75200                  14551601.23200  24236884.69300
  -8430271.06100  23334075.37700                  -6407704.13040  23334080.72140
 96  9  7 21 22  0.0020000  0  8  1  3  9 17 21 23 28 31
 -17582838.01300  21036203.88500                 -13562477.54840  21036209.17040
  -1885362.47100  22546949.95500                  -1584192.77740  22546955.88540
  -2900706.07600  24354163.35400                    868861.80540  24354168.27540
  16615662.94200  23940875.69700                  12943601.37540  23940881.77940
  -5161907.58600  21283553.19700                  -4015991.87140  21283558.36540
  10974018.73400  22937503.33000                   8550389.75940  22937509.06140
  18784216.43000  24257743.26000                  14637041.01400  24257749.52900
  -8439688.10700  23332283.30700                  -6415042.08040  23332288.90840
 96  9  7 21 22 30.0020000  0  8  1  3  9 17 21 23 28 31
 -17608987.16200  21031227.86900                 -13582853.49240  21031233.06140
  -1828079.32300  22557850.79100                  -1539556.57840  22557856.33440
  -2864019.83800  24361144.35400                    897448.49040  24361150.86940
  16715857.72500  23959942.19700                  13021675.13840  23959948.26840
  -5155933.99900  21284689.79100                  -4011337.12740  21284694.95940
  11031329.88000  22948409.32200                   8595047.77440  22948415.06440
  18893928.24800  24278620.58800                  14722530.61400  24278627.37300
  -8448556.49000  23330595.74400                  -6421952.51040  23330601.70940
 96  9  7 21 23  0.0020000  0  8  1  3  9 17 21 23 28 31
 -17634631.56100  21026347.74400                 -13602836.12340  21026352.93640
  -1770346.56500  22568836.84600                  -1494570.04040  22568842.55340
  -2826814.73900  24368224.60400                    926439.47340  24368230.83840
  16816278.80700  23979051.54100                  13099925.27840  23979057.72940
  -5149741.20600  21285868.04900                  -4006511.57040  21285873.28740
  11088731.04600  22959332.40000                   8639775.95140  22959338.23640
  19003704.36000  24299510.60400                  14808070.33200  24299517.17800
  -8456877.22200  23329012.33800                  -6428436.20140  23329017.86940
 96  9  7 21 23 30.0020000  0  8  1  3  9 17 21 23 28 31
 -17659761.79800  21021565.62700                 -13622418.10640  21021571.00640
  -1712170.96200  22579907.15800                  -1449238.42440  22579912.85440
  -2789116.66200  24375398.18900                    955814.56040  24375404.31840
  16916898.72300  23998198.99400                  13178330.35340  23998205.80340
  -5143346.23500  21287085.17400                  -4001528.47440  21287090.41240
  11146228.20400  22970273.64300                   8684578.91340  22970279.70140
  19113524.64800  24320408.66600                  14893644.43500  24320415.35700
  -8464662.64900  23327530.90800                  -6434502.76140  23327536.55740
 96  9  7 21 24  0.0020000  0  8  1  3  9 17 21 23 28 31
 -17684357.69500  21016885.25200                 -13641583.72440  21016890.60740
  -1653527.32200  22591066.79900                  -1403542.10040  22591072.67040
  -2750901.38600  24382670.27500                    985592.69140  24382676.00640
  17017741.63500  24017388.81400                  13256909.12840  24017394.20540
  -5136734.23900  21288343.50200                  -3996376.27240  21288348.82240
  11203840.40900  22981236.95500                   8729471.53340  22981242.96740
  19223394.00900  24341316.16600                  14979256.82100  24341323.26000
  -8471894.69500  23326154.34600                  -6440138.12840  23326159.49040
 96  9  7 21 24 30.0020000  0  8  1  3  9 17 21 23 28 31
 -17708425.80500  21012305.22900                 -13660338.08240  21012310.50240
  -1594405.18200  22602317.37700                  -1357472.91840  22602322.94340
  -2712176.37000  24390039.22900                   1015768.03940  24390044.97140
  17118806.73700  24036620.29100                  13335661.09440  24036626.05740
  -5129911.48100  21289641.66600                  -3991059.83540  21289647.01040
  11261551.45100  22992219.06400                   8774441.15040  22992224.53740
  19333304.46000  24362231.54100                  15064901.18200  24362238.48200
  -8478562.17000  23324886.66600                  -6445333.57340  23324891.55340
 96  9  7 21 25  0.0020000  0  8  1  3  9 17 21 23 28 31
 -17731958.71700  21007827.22100                 -13678675.39840  21007832.40040
  -1534806.61700  22613658.54900                  -1311032.50740  22613664.26840
  -2672935.82600  24397506.27500                   1046345.08240  24397512.31140
  17220099.97400  24055895.97900                  13414590.81440  24055901.56840
  -5122892.72000  21290977.30700                  -3985590.66840  21290982.68640
  11319364.48200  23003220.54100                   8819490.26540  23003226.07240
  19443261.34400  24383155.98600                  15150581.77500  24383163.12700
  -8484648.31300  23323728.01000                  -6450076.01040  23323733.04940
 96  9  7 21 25 30.0020000  0  8  1  3  9 17 21 23 28 31
 -17754982.66000  21003445.79100                 -13696616.12040  21003451.07640
  -1474735.25100  22625089.95500                  -1264223.67540  22625095.55740
  -2633168.22700  24405074.39300                   1077332.82340  24405079.90040
  17321639.11000  24075218.18900                  13493712.14940  24075223.92040
  -5115670.60200  21292351.84600                  -3979963.04240  21292357.21340
  11377278.25900  23014241.51000                   8864617.86640  23014246.95940
  19553258.80000  24404087.58800                  15236293.90100  24404095.02900
  -8490149.26300  23322681.40000                  -6454362.47640  23322686.24040
 96  9  7 21 26  0.0020000  0  8  1  3  9 17 21 23 28 31
 -17777521.55400  20999156.76000                 -13714178.88140  20999161.97540
  -1414202.00800  22636608.77500                  -1217054.94740  22636614.97540
  -2592856.09000  24412745.54900                   1108744.86440  24412750.04940
  17423428.86300  24094588.61100                  13573028.76040  24094596.12740
  -5108242.75300  21293765.04100                  -3974175.10240  21293770.26840
  11435276.08500  23025277.99400                   8909810.96840  23025282.91640
  19663293.58300  24425026.87700                  15322035.18900  24425033.83800
  -8495069.73900  23321744.60400                  -6458196.61140  23321750.08840
 96  9  7 21 26 30.0020000  0  8  1  3  9 17 21 23 28 31
 -17799580.39200  20994959.08800                 -13731367.56840  20994964.24440
  -1353210.63600  22648214.98600                  -1169529.22740  22648220.77540
  -2551998.51200  24420520.24400                   1140581.91840  24420525.64640
  17525464.94800  24114005.58800                  13652537.36740  24114011.89340
  -5100615.77600  21295216.63500                  -3968231.99740  21295221.92040
  11493362.05800  23036331.23600                   8955072.74640  23036336.59240
  19773367.72900  24445973.29100                  15407807.10100  24445980.54900
  -8499407.67900  23320919.34600                  -6461576.83040  23320924.12740
 96  9  7 21 27  0.0020000  0  8  1  3  9 17 21 23 28 31
 -17821178.33700  20990849.14300                 -13748197.11440  20990854.35740
  -1291782.36500  22659904.68900                  -1121663.06640  22659910.57240
  -2510601.85300  24428398.08000                   1172839.07340  24428402.73240
  17627735.63600  24133467.21300                  13732228.72740  24133473.68240
  -5092809.86100  21296701.76800                  -3962149.45940  21296706.97140
  11551540.52800  23047402.32200                   9000406.60440  23047408.12340
  19883467.57900  24466924.75200                  15493599.04400  24466931.59200
  -8503184.90300  23320200.34600                  -6464520.11040  23320206.06440
 96  9  7 21 27 30.0020000  0  8  1  3  9 17 21 23 28 31
 -17842324.50300  20986825.04900                 -13764674.63340  20986830.24040
  -1229921.00900  22671676.40000                  -1073459.44240  22671682.43640
  -2468677.25900  24436375.36900                   1205507.60940  24436381.81440
  17730227.80800  24152970.85400                  13812092.71440  24152977.35740
  -5084824.21200  21298221.49400                  -3955926.87340  21298226.81440
  11609807.97600  23058490.26800                   9045809.79240  23058495.55340
  19993585.14600  24487879.18900                  15579404.84900  24487886.45500
  -8506422.41900  23319584.68900                  -6467042.86340  23319590.20940
 96  9  7 21 28  0.0020000  0  8  1  3  9 17 21 23 28 31
 -17862981.34300  20982894.24400                 -13780770.85940  20982899.45940
  -1167624.50400  22683531.14300                  -1024916.73940  22683537.00240
  -2426220.02500  24444454.54100                   1238591.15040  24444459.28740
  17832947.64900  24172517.51000                  13892134.06540  24172523.13540
  -5076653.13700  21299776.31400                  -3949559.79540  21299781.57640
  11668183.65400  23069598.66600                   9091297.33240  23069604.04540
  20103734.27200  24508840.19700                  15665235.12300  24508847.63100
  -8509099.56200  23319075.00200                  -6469128.95340  23319080.43940
 96  9  7 21 28 30.0020000  0  8  1  3  9 17 21 23 28 31
 -17883147.26800  20979056.90000                 -13796484.55240  20979061.95140
  -1104895.04600  22695468.08000                   -976036.67140  22695474.04540
  -2383261.77300  24452629.92400                   1272065.10440  24452634.17840
  17935883.84900  24192106.27500                  13972344.01540  24192113.15840
  -5068304.74200  21301364.99400                  -3943054.55340  21301370.35040
  11726667.17900  23080727.56400                   9136868.87840  23080733.24840
  20213906.69000  24529805.36900                  15751083.64600  24529812.79500
  -8511214.28500  23318672.81400                  -6470776.78540  23318677.79540
 96  9  7 21 29  0.0020000  0  8  1  3  9 17 21 23 28 31
 -17902808.24100  20975315.47100                 -13811804.77740  20975320.67440
  -1041735.81000  22707486.79900                   -926821.71040  22707492.81140
  -2339807.77300  24460898.64300                   1305925.33340  24460903.74040
  18039033.42500  24211734.76800                  14052720.23140  24211741.30740
  -5059757.88600  21302991.35400                  -3936394.66640  21302996.62740
  11785268.44000  23091879.25200                   9182532.18940  23091885.17040
  20324108.31700  24550776.75200                  15836954.90800  24550783.52500
  -8512756.40300  23318379.10400                  -6471978.44940  23318384.02540
 96  9  7 21 29 30.0020000  0  8  1  3  9 17 21 23 28 31
 -17921937.70000  20971675.16600                 -13826710.82940  20971680.45140
   -978149.82900  22719586.81400                   -877274.22140  22719592.74440
  -2295848.76500  24469263.44700                   1340179.12040  24469268.59240
  18142403.09500  24231405.40800                  14133267.95540  24231411.72540
  -5050987.35300  21304660.44700                  -3929560.48240  21304665.63940
  11843984.69300  23103052.53300                   9228285.09940  23103058.34640
  20434347.49400  24571754.74400                  15922855.37700  24571761.65800
  -8513704.63800  23318198.75200                  -6472717.33140  23318204.45940
 96  9  7 21 30  0.0020000  0  8  1  3  9 17 21 23 28 31
 -17940562.72300  20968131.03300                 -13841223.82040  20968136.21340
   -914157.68900  22731764.36900                   -827410.25440  22731770.20540
  -2251408.49800  24477720.40800                   1374807.92640  24477724.77940
  18245971.68000  24251113.90000                  14213970.66840  24251120.13540
  -5042013.17300  21306368.16600                  -3922567.61540  21306373.53340
  11902781.48600  23114240.93900                   9274100.77140  23114246.65840
  20544591.03000  24592733.58000                  16008759.27600  24592740.14300
  -8514078.91900  23318127.73600                  -6473008.97940  23318132.81140
 96  9  7 21 30 30.0020000  0  8  1  3  9 17 21 23 28 31
 -17958704.14700  20964678.66600                 -13855359.97840  20964683.93940
   -849754.38800  22744020.03300                   -777225.88740  22744025.70540
  -2206491.83900  24486267.73600                   1409807.91440  24486274.01840
  18349725.11000  24270856.88500                  14294817.41040  24270863.95540
  -5032833.66800  21308114.89300                  -3915414.75340  21308120.22540
  11961648.84800  23125442.83000                   9319971.40940  23125448.87740
  20654830.76000  24613711.29100                  16094660.20600  24613718.59200
  -8513899.51200  23318161.43200                  -6472869.19340  23318166.96340
 96  9  7 21 31  0.0020000  0  8  1  3  9 17 21 23 28 31
 -17976347.24400  20961321.32200                 -13869107.82840  20961326.50240
   -784927.31400  22756356.32200                   -726711.31240  22756362.06440
  -2161068.15000  24494911.42400                   1445202.98740  24494918.69340
  18453682.72200  24290639.83800                  14375823.21140  24290646.08440
  -5023441.53800  21309902.17400                  -3908096.21440  21309907.57640
  12020587.07700  23136658.80700                   9365897.28540  23136664.72540
  20765074.51900  24634690.04900                  16180564.29700  24634697.59600
  -8513164.08600  23318301.26000                  -6472296.13840  23318306.45140
 96  9  7 21 31 30.0020000  0  8  1  3  9 17 21 23 28 31
 -17993506.18100  20958056.19700                 -13882478.41540  20958061.37740
   -719674.56400  22768773.34600                   -675865.05340  22768778.85440
  -2115144.66200  24503651.04900                   1480987.51940  24503656.51040
  18557844.80600  24310461.15000                  14456988.38340  24310468.39640
  -5013857.96200  21311725.81400                  -3900628.49340  21311731.15840
  12079583.40100  23147885.64300                   9411868.42940  23147890.96340
  20875307.28500  24655666.62700                  16266459.76200  24655674.22900
  -8511883.12600  23318545.40800                  -6471297.98640  23318550.91640
 96  9  7 21 32  0.0020000  0  8  1  3  9 17 21 23 28 31
 -18010195.47700  20954880.40000                 -13895483.04740  20954885.49840
   -653985.02100  22781273.79100                   -624678.43440  22781279.52140
  -2068717.50500  24512485.37700                   1517164.51440  24512489.90040
  18662210.35600  24330321.17400                  14538312.09740  24330327.43240
  -5004090.14400  21313584.65000                  -3893017.20640  21313589.98240
  12138647.74800  23159124.54100                   9457892.58540  23159130.23640
  20985526.44100  24676641.12700                  16352344.60000  24676648.45500
  -8510066.00800  23318891.08000                  -6469882.04540  23318896.38940
 96  9  7 21 32 30.0020000  0  8  1  3  9 17 21 23 28 31
 -18026412.12500  20951794.22100                 -13908119.38240  20951799.33040
   -587873.64700  22793854.51800                   -573163.11240  22793860.50640
  -2021788.61800  24521416.14300                   1553732.48040  24521421.27540
  18766778.04300  24350219.66600                  14619793.28340  24350229.10440
  -4994136.89100  21315478.92400                  -3885261.42640  21315484.12740
  12197788.84100  23170379.33800                   9503976.52740  23170385.13940
  21095735.36900  24697613.11100                  16438221.57700  24697620.52900
  -8507703.10000  23319340.74400                  -6468040.81640  23319346.01840
 96  9  7 21 33  0.0020000  0  8  1  3  9 17 21 23 28 31
 -18042136.66600  20948801.92400                 -13920372.25840  20948807.10440
   -521348.06900  22806513.53300                   -521325.02940  22806519.33440
  -1974352.05200  24530442.46300                   1590696.05140  24530446.99840
  18871562.45800  24370159.86900                  14701443.42240  24370167.23240
  -4983992.74000  21317409.13500                  -3877356.89040  21317414.15040
  12257029.53800  23181652.21300                   9550138.09140  23181658.07240
  21205940.02400  24718584.13500                  16524095.19700  24718591.92400
  -8504765.25600  23319899.87700                  -6465751.60240  23319904.71740
 96  9  7 21 33 30.0020000  0  9  1  3  9 17 21 23 25 28 31
 -18057371.54400  20945902.86100                 -13932243.57540  20945908.06440
   -454434.57900  22819246.67400                   -469184.66740  22819252.52140
  -1926414.72900  24539565.24400                   1628049.78740  24539569.96740
  18976547.34800  24390138.51800                  14783249.71240  24390145.44740
  -4973648.25300  21319377.79100                  -3869296.25040  21319382.86540
  12316378.05300  23192946.05700                   9596383.67240  23192952.02140
    -54250.35810  25353174.08000
  21316133.24000  24739553.30700                  16609959.82500  24739561.21300
  -8501251.18200  23320568.46300                  -6463013.36440  23320573.51440
 96  9  7 21 34  0.0020000  0  9  1  3  9 17 21 23 25 28 31
 -18072119.97200  20943096.35400                 -13943735.84440  20943101.51040
   -387155.09100  22832049.76800                   -416759.12040  22832055.68640
  -1877984.13000  24548781.29900                   1665787.88840  24548786.15040
  19081720.47300  24410152.31400                  14865202.72840  24410158.44340
  -4963099.46300  21321385.02500                  -3861076.41140  21321390.00640
  12375835.96700  23204260.43200                   9642714.49640  23204265.34240
   -150077.42700  25334938.73600
  21426309.25300  24760519.57200                  16695811.06500  24760527.25200
  -8497177.48700  23321343.82200                  -6459839.05240  23321349.21340
 96  9  7 21 34 30.0020000  0  9  1  3  9 17 21 23 25 28 31
 -18086371.05300  20940384.68900                 -13954840.56840  20940389.75240
   -319512.53600  22844921.67400                   -364050.67040  22844927.58040
  -1829060.09400  24558090.97900                   1703910.53040  24558097.62340
  19187089.66600  24430203.43200                  14947308.53040  24430209.18640
  -4952339.15700  21323432.65000                  -3852691.75840  21323437.80740
  12435415.69100  23215598.29900                   9689140.23840  23215603.92440
   -246012.75700  25316682.04100                     -2491.59750  25316688.10040
  21536472.66300  24781483.02500                  16781652.51600  24781490.83400
  -8492528.66000  23322228.50200                  -6456216.60040  23322233.67040
 96  9  7 21 35  0.0020000  0  9  1  3  9 17 21 23 25 28 31
 -18100128.45300  20937766.80700                 -13965560.60440  20937771.70540
   -251500.93000  22857863.90800                   -311054.63640  22857869.97940
  -1779628.20800  24567497.65000                   1742428.85440  24567502.99440
  19292654.06500  24450291.98600                  15029566.45040  24450299.19740
  -4941366.52700  21325520.72900                  -3844141.65540  21325525.85040
  12495112.85600  23226958.01800                   9735657.50040  23226964.05340
   -342053.04400  25298406.45500                    -77327.94340  25298415.67040
  21646617.35000  24802442.94700                  16867479.42300  24802450.54500
  -8487317.52100  23323220.11100                  -6452155.98140  23323225.04540
 96  9  7 21 35 30.0020000  0  9  1  3  9 17 21 23 25 28 31
 -18113400.19500  20935241.01800                 -13975902.20740  20935245.95140
   -183112.21200  22870878.02500                   -257764.76940  22870883.93240
  -1729688.91600  24577000.18200                   1781342.56440  24577005.15040
  19398414.54100  24470416.31400                  15111977.17640  24470423.38540
  -4930177.92400  21327649.93900                  -3835423.26440  21327654.89640
  12554904.49700  23238335.94700                   9782248.36640  23238341.35040
   -438198.79200  25280110.37700                   -152246.48540  25280117.90440
  21756739.27900  24823398.36100                  16953288.56200  24823406.08400
  -8481566.93800  23324314.65000                  -6447675.01640  23324320.25240
 96  9  7 21 36  0.0020000  0  9  1  3  9 17 21 23 25 28 31
 -18126199.67800  20932805.18200                 -13985875.81640  20932810.25640
   -114327.66600  22883967.30700                   -204166.44840  22883973.20140
  -1679258.57500  24586597.37700                   1820638.90340  24586602.24040
  19504374.70600  24490580.24400                  15194543.46640  24490587.02940
  -4918786.29100  21329817.67400                  -3826546.66240  21329822.59640
  12614775.50100  23249729.08000                   9828901.07740  23249734.70540
   -534442.16400  25261795.94700                   -227241.14140  25261804.16640
  21866832.83600  24844349.00200                  17039075.55200  24844356.64300
  -8475277.16500  23325511.18200                  -6442773.90940  23325516.56140
 96  9  7 21 36 30.0020000  0  9  1  3  9 17 21 23 25 28 31
 -18138517.57400  20930461.10400                 -13995474.16740  20930466.44740
    -45126.40500  22897136.15800                   -150243.42340  22897142.26440
  -1628323.29700  24596290.45500                   1860328.72140  24596296.05740
  19610543.11700  24510783.77500                  15277272.03040  24510790.16240
  -4907189.23400  21332024.50200                  -3817509.99440  21332029.57640
  12674713.73900  23261135.45500                   9875606.18240  23261140.77540
   -630755.04800  25243467.79900                   -302289.95840  25243475.65440
  21976897.77100  24865293.54100                  17124840.26000  24865301.47100
  -8468431.35400  23326813.76000                  -6437439.52240  23326818.78740
 96  9  7 21 37  0.0020000  0  9  1  3  9 17 21 23 25 28 31
 -18150354.13000  20928208.90800                 -14004697.44440  20928214.20540
     24486.87200  22910383.03300                    -95999.34240  22910388.69340
  -1576899.37500  24606075.52500                   1900399.28440  24606080.83440
  19716913.67500  24531025.36100                  15360158.12240  24531033.08840
  -4895395.16800  21334268.68200                  -3808319.81340  21334273.75640
  12734699.48800  23272550.28300                   9922348.32740  23272555.89640
   -727143.96400  25225126.19700                   -377397.96740  25225132.78340
  22086922.46500  24886230.75200                  17210573.61600  24886238.75200
  -8461038.70400  23328220.79100                  -6431679.02040  23328226.04140
 96  9  7 21 37 30.0020000  0  9  1  3  9 17 21 23 25 28 31
 -18161702.80100  20926049.32200                 -14013540.55140  20926054.49040
     94500.41800  22923706.17400                    -41443.36340  22923712.15040
  -1525013.86100  24615949.43900                   1940829.50640  24615955.22940
  19823482.71300  24551305.16600                  15443198.84740  24551311.48240
  -4883409.41300  21336549.56400                  -3798980.26640  21336554.73240
  12794742.54200  23283976.22900                   9969135.09040  23283981.91240
   -823604.64900  25206769.31400                   -452561.88740  25206777.07640
  22196905.15200  24907160.01000                  17296274.24500  24907167.77900
  -8453090.15300  23329732.82200                  -6425485.36540  23329737.85040
 96  9  7 21 38  0.0020000  0  9  1  3  9 17 21 23 25 28 31
 -18172556.15100  20923984.04100                 -14021997.69340  20923989.09240
    164917.28100  22937105.79100                     13426.88640  22937111.20540
  -1472647.30400  24625914.95500                   1981634.62740  24625922.18940
  19930246.99700  24571621.64300                  15526391.70840  24571628.19340
  -4871223.34200  21338868.45500                  -3789484.62440  21338873.72940
  12854869.57700  23295417.68200                  10015987.31040  23295423.31840
   -920114.38500  25188404.53300                   -527764.09640  25188411.53340
  22306848.93500  24928081.49400                  17381944.56200  24928089.49000
  -8444567.83800  23331355.01000                  -6418844.59540  23331360.51840
 96  9  7 21 38 30.0020000  0  9  1  3  9 17 21 23 25 28 31
 -18182893.82700  20922016.88500                 -14030053.01140  20922021.90040
    235734.57900  22950582.01800                     68609.16740  22950587.85440
  -1419769.15400  24635976.93200                   2022838.35140  24635981.58440
  20037215.38100  24591977.11100                  15609743.62940  24591983.14640
  -4858814.10100  21341229.81400                  -3779815.08840  21341235.17040
  12915111.84300  23306881.29900                  10062929.31440  23306887.19340
  -1016652.85500  25170033.76800                   -602988.67240  25170040.95540
  22416770.54500  24948999.01000                  17467597.61400  24949006.92800
  -8435467.23100  23333086.82200                  -6411753.20940  23333092.41240
 96  9  7 21 39  0.0020000  0  9  1  3  9 17 21 23 25 28 31
 -18192745.57600  20920141.82200                 -14037729.68240  20920146.81440
    306909.68800  22964126.36900                    124070.26440  22964131.98240
  -1366412.05000  24646130.40800                   2064415.28340  24646136.03340
  20144356.02800  24612365.48600                  15693229.74640  24612372.58040
  -4846205.14900  21343629.30700                  -3769989.92740  21343634.40440
  12975465.59500  23318366.33800                  10109958.20140  23318372.33840
  -1113238.79600  25151653.60400                   -678250.30740  25151660.95540
  22526646.79200  24969907.91600                  17553215.29900  24969916.20100
  -8425814.75100  23334923.27500                  -6404231.80340  23334928.35040
 96  9  7 21 39 30.0020000  0  9  1  3  9 17 21 23 25 28 31
 -18202129.28900  20918356.29900                 -14045041.65940  20918361.37340
    378427.07100  22977735.73600                    179798.06940  22977741.22140
  -1312571.93900  24656375.71300                   2106368.59340  24656379.94340
  20251650.56000  24632782.32200                  15776835.79240  24632788.41640
  -4833395.23300  21346066.92400                  -3760008.17940  21346072.16240
  13035928.09500  23329871.90000                  10157071.80940  23329877.26840
  -1209871.67200  25133264.92400                   -753548.45440  25133272.61540
  22636469.32600  24990806.43900                  17638791.13300  24990814.87300
  -8415628.13600  23336862.25200                  -6396294.19340  23336867.64340
 96  9  7 21 40  0.0020000  0  9  1  3  9 17 21 23 25 28 31
 -18211047.48600  20916659.10400                 -14051990.88940  20916664.27140
    450293.66800  22991411.42400                    235797.98440  22991417.35440
  -1258240.27700  24666714.66600                   2148704.94140  24666721.40440
  20359088.05800  24653227.86900                  15860553.17640  24653234.40840
  -4820381.67800  21348543.26000                  -3749867.74440  21348548.62740
  13096484.27800  23341395.51800                  10204258.42240  23341401.41240
  -1306550.86300  25114867.33800                   -828882.69040  25114873.72540
  22746232.98900  25011694.01800                  17724321.09000  25011702.33400
  -8404916.98500  23338900.40000                  -6387947.85540  23338905.96740
 96  9  7 21 40 30.0020000  0  9  1  3  9 17 21 23 25 28 31
 -18219491.63700  20915052.33000                 -14058570.73540  20915057.48640
    522502.46300  23005151.90000                    292064.54540  23005157.87740
  -1203436.37800  24677143.65000                   2191409.26040  24677148.85440
  20466665.01800  24673699.36900                  15944379.28640  24673706.34640
  -4807162.05700  21351058.87700                  -3739566.74440  21351064.03340
  13157131.49200  23352936.54100                  10251515.97140  23352941.95540
  -1403288.25100  25096459.05700                   -904262.31940  25096466.52540
  22855938.41000  25032570.36900                  17809805.63200  25032578.60400
  -8393676.04300  23341039.96300                  -6379188.67640  23341044.48640
 96  9  7 21 41  0.0020000  0  9  1  3  9 17 21 23 25 28 31
 -18227445.36500  20913538.68200                 -14064768.43740  20913543.73240
    595061.92400  23018959.71300                    348604.34840  23018965.76040
  -1148168.59800  24687660.65000                   2234475.01440  24687666.00640
  20574390.01300  24694199.25200                  16028320.75440  24694204.01040
  -4793720.12900  21353616.83800                  -3729092.52040  21353622.02940
  13217865.89600  23364493.83800                  10298841.47440  23364499.45140
  -1500082.48900  25078039.24400                   -979686.22540  25078047.21740
  22965590.28900  25053436.46300                  17895248.48500  25053445.23200
  -8381879.11500  23343284.95500                  -6369996.28740  23343289.92440
 96  9  7 21 41 30.0020000  0  9  1  3  9 17 21 23 25 28 31
 -18234914.49100  20912117.47100                 -14070588.52640  20912122.56840
    667967.30100  23032832.90000                    405413.70340  23032838.68940
  -1092442.77800  24698264.79900                   2277897.73840  24698271.09240
  20682263.95100  24714726.22900                  16112378.24940  24714732.11140
  -4780060.59600  21356216.10400                  -3718448.73340  21356221.44740
  13278666.27700  23376063.79900                  10346218.38340  23376069.34240
  -1596951.24200  25059605.46300                  -1055168.18540  25059612.74440
  23075177.35900  25074290.16600                  17980640.87600  25074298.80700
  -8369537.86900  23345632.93900                  -6360379.74340  23345637.94340
 96  9  7 21 42  0.0020000  0  9  1  3  9 17 21 23 25 28 31
 -18241896.00600  20910788.87700                 -14076028.66440  20910793.93940
    741222.54600  23046773.06400                    462495.67440  23046778.64340
  -1036254.85300  24708957.33800                   2321680.49140  24708963.03340
  20790308.81300  24735286.20500                  16196568.94040  24735290.97540
  -4766184.09100  21358856.79100                  -3707635.87040  21358861.92440
  13339541.85400  23387647.67400                  10393653.87540  23387653.39340
  -1693888.88100  25041158.81400                  -1130703.87440  25041164.88540
                  25095132.75200
  -8356639.01400  23348087.24400                  -6350328.70340  23348092.21340
 96  9  7 21 42 30.0020000  0  8  1  3  9 17 21 23 25 31
 -18248400.74600  20909551.11100                 -14081097.28140  20909556.15040
    814814.38100  23060777.92400                    519839.91940  23060783.42040
   -979612.88300  24719735.73600                   2365817.05940  24719740.92840
  20898538.36000  24755882.12700                  16280903.56440  24755889.74840
  -4752108.22400  21361535.47100                  -3696667.66040  21361540.67440
  13400495.55500  23399247.03300                  10441150.23440  23399252.47140
  -1790900.67800  25022697.68200                  -1206297.29940  25022704.77540
  -8343186.24500  23350647.24400                  -6339846.02640  23350652.13140
 96  9  7 21 43  0.0020000  0  8  1  3  9 17 21 23 25 31
 -18254432.69000  20908403.29100                 -14085797.49140  20908408.41240
    888752.24700  23074847.39300                    577453.81440  23074853.40440
   -922498.39600  24730604.38500                   2410321.82240  24730608.72140
  21006977.21900  24776517.26000                  16365401.31740  24776523.97540
  -4737845.03400  21364249.65000                  -3685553.49140  21364254.78340
  13461529.61500  23410861.57200                  10488709.22840  23410867.44340
  -1887969.75100  25004226.33800                  -1281935.34040  25004232.71340
  -8329182.32500  23353312.33800                  -6328933.91140  23353317.29540
 96  9  7 21 43 30.0020000  0  8  1  3  9 17 21 23 25 31
 -18260000.27900  20907343.67400                 -14090135.86440  20907348.71340
    963037.63100  23088983.54100                    635338.49740  23088989.10740
   -864895.56600  24741565.53300                   2455207.14540  24741570.38540
  21115627.99400  24797193.26000                  16450064.14140  24797201.43240
  -4723420.14700  21366994.43900                  -3674313.32440  21366999.65440
  13522649.55100  23422492.17400                  10536335.13140  23422497.34240
  -1985082.04600  24985746.97900                  -1357607.17740  24985753.48240
  -8314646.85600  23356077.97900
 96  9  7 21 44  0.0020000  0  8  1  3  9 17 21 23 25 31
 -18265082.13200  20906376.71300                 -14094095.73940  20906381.64640
   1037683.65900  23103187.93200                    693504.19440  23103194.02540
   -806800.57100  24752620.36100                   2500475.93240  24752627.56140
  21224486.44600  24817908.45500                  16534888.82440  24817915.66640
  -4708826.18400  21369771.56400                  -3662941.39840  21369776.76840
  13583872.57500  23434142.84600                  10584041.35740  23434148.13140
  -2082224.42900  24967260.30700                  -1433302.37840  24967267.35440
  -8299563.56600  23358948.53300
 96  9  7 21 44 30.0020000  0  8  1  3  9 17 21 23 25 31
 -18269701.10100  20905497.94700                 -14097694.92740  20905503.16240
   1112661.69700  23117455.71300                    751928.59940  23117461.59640
   -748244.51400  24763763.24400                   2546103.99240  24763770.44340
  21333511.05100  24838654.55700                  16619842.98140  24838663.31440
  -4694091.74100  21372575.41600                  -3651460.01140  21372580.68940
  13645177.05000  23445808.16600                  10631811.05440  23445814.33040
  -2179416.62300  24948765.65800                  -1509036.30340  24948772.79940
  -8283960.92400  23361917.38500                     10558.53150  23361922.79940
 96  9  7 21 45  0.0020000  0  8  1  3  9 17 21 23 25 31
 -18273870.03300  20904704.40800                 -14100943.43840  20904709.64640
   1187953.53800  23131783.66600                    810597.53140  23131789.46740
   -689237.91200  24774992.33800                   2592083.10040  24774998.83040
  21442671.40400  24859426.68200                  16704902.91440  24859433.89340
  -4679201.52200  21375409.10400                  -3639857.24840  21375414.49440
  13706544.93200  23457486.02500                  10679630.15540  23457491.36940
  -2276666.26000  24930258.37700                  -1584815.12840  24930264.47140
  -8267853.18700  23364982.62700                     23110.00040  23364988.62740
 96  9  7 21 45 30.0020000  0  8  1  3  9 17 21 23 25 31
 -18277566.51700  20904000.81400                 -14103823.81040  20904005.97140
   1263577.46000  23146174.11900                    869525.23140  23146180.10740
   -629776.48800  24786307.40800                   2638416.64740  24786313.03340
  21551972.73400  24880226.63500                  16790072.68940  24880233.64640
  -4664114.19000  21378279.85400                  -3628100.88740  21378285.12740
  13767995.23500  23469179.47100                  10727513.49140  23469185.74040
  -2373946.92000  24911747.77500                  -1660618.05040  24911754.60740
  -8251227.92800  23368146.26800                     36064.73640  23368151.40040
 96  9  7 21 46  0.0020000  0  8  1  3  9 17 21 23 25 31
 -18280789.27600  20903387.65000                 -14106335.04340  20903392.68940
   1339534.29300  23160628.81400                    928712.33140  23160634.74440
   -569862.70700  24797708.96300                   2685102.71540  24797714.36540
  21661411.28300  24901051.84600                  16875349.39540  24901059.01040
  -4648801.20100  21381194.02500                  -3616168.68640  21381199.29940
  13829542.98800  23480891.71300                  10775472.76940  23480897.30340
  -2471258.95600  24893229.90000                  -1736445.49840  24893237.15840
  -8234068.30000  23371411.97100                     49435.86840  23371417.22140
 96  9  7 21 46 30.0020000  0  8  1  3  9 17 21 23 25 31
 -18283543.37500  20902863.65800                 -14108481.08540  20902868.75640
   1415827.54500  23175147.14300                    988161.59240  23175153.02540
   -509476.72600  24809200.65000                   2732156.68640  24809205.39640
  21771009.21400  24921907.97900                  16960750.27340  24921915.90440
  -4633238.52400  21384155.51000                  -3604041.92740  21384160.97140
  13891192.26300  23492623.24400                  10823511.14240  23492629.06840
  -2568573.61300  24874709.65800                  -1812274.85540  24874719.54140
  -8216371.35700  23374779.60400                     63225.68640  23374784.46740
 96  9  7 21 47  0.0020000  0  8  1  3  9 17 21 23 25 31
 -18285825.35800  20902429.37700                 -14110259.24540  20902434.49840
   1492463.44700  23189730.10400                   1047877.84940  23189735.96340
   -448622.03500  24820780.36900                   2779575.91540  24820784.13140
  21880767.70100  24942794.51000                  17046276.25540  24942802.60040
  -4617419.66400  21387165.60400                  -3591715.54340  21387170.86540
  13952932.54700  23504372.08800                  10871620.43240  23504378.07640
  -2665891.88400  24856191.95500                  -1888107.21440  24856199.08440
  -8198140.48800  23378248.72100                     77431.56240  23378254.28740
 96  9  7 21 47 30.0020000  0  8  1  3  9 17 21 23 25 31
 -18287639.48300  20902083.97900                 -14111672.83940  20902089.17040
   1569430.76000  23204376.43900                   1107852.33540  23204382.45140
   -387314.23400  24832446.44700                   2827348.23340  24832453.79940
  21990680.93700  24963710.37700                  17131922.86540  24963717.18640
  -4601382.55500  21390217.45500                  -3579219.09440  21390222.62340
  14014770.89100  23516139.84600                  10919806.12440  23516145.30740
  -2763227.22500  24837669.86900                  -1963952.77040  24837676.65440
  -8179379.15200  23381818.73600                     92050.76240  23381824.09240
 96  9  7 21 48  0.0020000  0  8  1  3  9 17 21 23 25 31
 -18288981.31700  20901828.81400                 -14112718.41440  20901834.00640
   1646724.91700  23219084.77500                   1168081.51140  23219090.65840
   -325541.05300  24844202.25200
  22100746.22100  24984655.01000                  17217687.89340  24984661.53740
  -4585129.25300  21393310.29100                  -3566554.18540  21393315.36540
  14076713.19800  23527927.18200                  10968072.83040  23527932.79540
  -2860581.66300  24819143.82200                  -2039813.09340  24819151.93640
  -8160079.64600  23385491.61100                    107089.33440  23385496.99040
 96  9  7 21 48 30.0020000  0  8  1  3  9 17 21 23 25 31
 -18289846.49500  20901664.05700                 -14113392.56940  20901669.23640
   1724350.71600  23233856.68900                   1228569.10140  23233862.70140
   -263318.69200  24856042.62700
  22210972.73100  25005630.48600                  17303578.61940  25005637.51040
  -4568674.11200  21396441.75200                  -3553732.00240  21396447.20140
  14138735.89200  23539729.73600                  11016402.17840  23539735.46740
  -2957944.65100  24800615.79100                  -2115680.40040  24800621.68640
  -8140256.75900  23389263.71300                    122535.73240  23389269.25640
 96  9  7 21 49  0.0020000  0  8  1  3  9 17 21 23 25 31
 -18290221.53300  20901592.49400                 -14113684.79940  20901597.62740
   1802313.12500  23248692.34600                   1289318.99640  23248698.32240
   -200659.79500  24867965.31400
  22321348.58500  25026634.29900                  17389585.64940  25026641.81440
  -4552037.64700  21399607.31400                  -3540768.52440  21399612.50640
  14200851.65800  23551550.23600                  11064804.06040  23551555.94340
  -3055333.85300  24782083.18200                  -2191567.71340  24782090.19340
  -8119901.32200  23393137.15800                    138397.09440  23393142.64340
 96  9  7 21 49 30.0020000  0  8  1  3  9 17 21 23 25 31
 -18290103.78100  20901615.08800                 -14113593.03540  20901620.16240
   1880590.69800  23263588.45500                   1350314.46140  23263594.12740
   -137556.05800  24879974.24400                     24627.86250  24879979.76440
  22431870.48000  25047666.34600                  17475706.49340  25047679.12340
  -4535209.16700  21402809.79100                  -3527655.42340  21402815.01840
  14263063.95400  23563388.83800                  11113281.14140  23563394.31140
  -3152745.58400  24763545.55700                  -2267473.10040  24763551.66240
  -8099010.75900  23397112.44700                    154675.43240  23397117.43940
 96  9  7 21 50  0.0020000  0  8  1  3  9 17 21 23 25 31
 -18289491.16200  20901731.55700                 -14113115.66140  20901736.66640
   1959189.95100  23278545.33800                   1411560.58440  23278551.32640
    -73998.02600  24892068.80700                     74153.59440  24892074.39640
  22542547.32300  25068727.41600                  17561948.00340  25068736.12740
  -4518149.31600  21406056.10400                  -3514362.03640  21406061.34240
  14325362.88700  23575244.04900                  11161825.74540  23575249.24040
  -3250144.79300  24745011.31400                  -2343368.21140  24745017.97140
  -8077574.91900  23401192.04100                    171378.67340  23401196.83440
 96  9  7 21 50 30.0020000  0  8  1  3  9 17 21 23 25 31
 -18288406.67000  20901938.05700                 -14112270.59340  20901943.18940
   2038083.55600  23293558.60400                   1473036.08940  23293564.63940
     -9996.89000  24904247.58800                    124024.59840  24904253.43640
  22653371.35200  25089817.08800                  17648304.33740  25089824.81440
  -4500869.95600  21409344.30700                  -3500897.60140  21409349.73240
  14387732.46900  23587112.02500                  11210425.40040  23587117.76840
  -3347535.90000  24726477.65800                  -2419257.33040  24726484.24440
  -8055602.56200  23405373.07200                    188499.96740  23405377.85440
 96  9  7 21 51  0.0020000  0  8  1  3  9 17 21 23 25 31
 -18286864.79800  20902231.62700                 -14111069.12340  20902236.67840
   2117236.27200  23308620.70500                   1534713.48740  23308626.45940
     54461.55800  24916514.08000                    174251.93240  24916519.51840
  22764325.13400  25110929.90000                  17734761.71740  25110935.57240
  -4483365.90700  21412674.96300                  -3487258.08540  21412680.42440
  14450185.75900  23598996.58800                  11259090.25840  23599002.31840
  -3444929.22300  24707944.66600                  -2495148.12340  24707951.90040
  -8033097.04900  23409655.68200                    206036.70840  23409660.83840
 96  9  7 21 51 30.0020000  0  8  1  3  9 17 21 23 25 31
 -18284877.38800  20902609.71300                 -14109520.48140  20902614.74040
   2196646.85300  23323731.98600                   1596591.80740  23323738.05740
    119388.41300  24928868.90000                    224844.28040  24928874.84240
  22875426.46500  25132072.57200                  17821334.12340  25132082.10440
  -4465619.40500  21416052.13500                  -3473429.64440  21416057.71340
  14512727.16600  23610897.93900                  11307823.80240  23610903.67040
  -3542292.36100  24689416.79900                  -2571015.34540  24689423.42040
  -8010062.75400  23414038.89300                    223985.48940  23414044.57640
 96  9  7 21 52  0.0020000  0  9  1  3  9 15 17 21 23 25 31
 -18282473.99600  20903067.13500                 -14107647.70240  20903072.10440
   2276319.45100  23338893.16600                   1658674.31540  23338898.96740
    184758.29500  24941308.68900                    275781.85640  24941313.86940
    -80462.41510  25090023.68900
  22986665.53000  25153240.35400                  17908013.77740  25153248.02140
  -4447668.73100  21419468.31400                  -3459442.11040  21419473.55340
  14575344.51500  23622813.31400                  11356616.52740  23622819.51440
  -3639641.58400  24670892.14300                  -2646871.72840  24670898.18940
  -7986521.24200  23418518.29900                    242329.51040  23418523.93640
 96  9  7 21 52 30.0020000  0  9  1  3  9 15 17 21 23 25 31
 -18279630.11100  20903608.23600                 -14105431.67640  20903613.29940
   2356276.45800  23354108.44700                   1720978.43840  23354114.45940
    250592.86100  24953837.20500                    327081.51840  24953843.77940
   -185378.22200  25070058.61900
  23098064.18000  25174439.27500                  17994817.77440  25174448.44340
  -4429514.09000  21422923.13500                  -3445295.63240  21422928.45540
  14638072.94800  23634750.68200                  11405495.80240  23634755.85040
  -3736985.65900  24652368.07200                  -2722724.17540  24652374.22540
  -7962455.33500  23423098.15000                    261082.14740  23423103.51840
 96  9  7 21 53  0.0020000  0  9  1  3  9 15 17 21 23 25 31
 -18276341.18800  20904234.10400                 -14102868.87640  20904239.09640
   2436530.00700  23369380.38500                   1783513.62740  23369386.42040
    316862.48200  24966447.18900                    378720.17240  24966455.05740
   -290254.76200  25050102.08000                    -19062.56450  25050105.77140
  23209605.37900  25195664.06400                  18081732.86040  25195675.24840
  -4411168.81000  21426413.79900                  -3431000.61340  21426418.94340
  14700907.94300  23646707.83000                  11454458.12540  23646713.45540
  -3834336.96200  24633842.79100                  -2798582.13140  24633849.34240
  -7937876.38500  23427775.80700                    280234.56240  23427781.02140
 96  9  7 21 53 30.0020000  0  9  1  3  9 15 17 21 23 25 31
 -18272586.93700  20904948.37700                 -14099943.47740  20904953.51040
   2517108.60800  23384713.66600                   1846302.09940  23384719.88940
    383559.13100  24979139.21300                    430691.54940  24979143.90040
   -395078.88900  25030154.71300                   -100743.66940  25030160.76040
  23321301.97600  25216919.90000                  18168768.99640  25216928.10740
  -4392618.95000  21429943.65800                  -3416546.17940  21429949.14340
  14763856.43600  23658686.43900                  11503508.84740  23658691.47940
  -3931675.88400  24615319.06400                  -2874430.58440  24615324.99440
  -7912761.72300  23432554.79100                    299804.41240  23432560.56840
 96  9  7 21 54  0.0020000  0  9  1  3  9 15 17 21 23 25 31
 -18268359.30300  20905752.70500                 -14096649.21140  20905757.92040
   2597986.27200  23400104.42400                   1909323.60740  23400110.28340
    450657.85100  24991907.29900                    482976.24840  24991914.55740
   -499862.97000  25010214.86100                   -182393.58240  25010219.51440
  23433132.65800  25238201.73600                  18255909.63140  25238212.42840
  -4373870.58500  21433511.29900                  -3401937.06540  21433516.76040
  14826905.85200  23670684.50200                  11552638.25540  23670689.93940
  -4029022.22500  24596795.04900                  -2950284.75840  24596800.88540
  -7887118.44800  23437434.51800                    319786.17640  23437439.26440
 96  9  7 21 54 30.0020000  0  9  1  3  9 15 17 21 23 25 31
 -18263653.48400  20906648.39300                 -14092982.33240  20906653.60740
   2679134.86700  23415546.63500                   1972556.22940  23415552.56440
    518145.54900  25004750.15800                    535564.08140  25004755.58440
   -604620.58200  24990279.95500                   -264022.79340  24990284.85440
  23545073.23800  25259503.20500                  18343135.94740  25259509.95540
  -4354923.13300  21437117.03300                  -3387172.81740  21437122.42440
  14890041.76700  23682698.65800                  11601835.03240  23682704.47140
  -4126374.93700  24578269.92400                  -3026143.88940  24578275.80740
  -7860964.41200  23442411.21300                    340165.92540  23442416.34640
 96  9  7 21 55  0.0020000  0  9  1  3  9 15 17 21 23 25 31
 -18258442.91200  20907640.08800                 -14088922.13540  20907645.20940
   2760575.21300  23431044.27500                   2036016.19040  23431050.18240
    586047.15300  25017671.32200                    588474.44140  25017676.97140
   -709326.99200  24970354.86100                   -345612.16340  24970361.30740
  23657137.84200  25280827.68200                  18430458.88240  25280835.49040
  -4335749.93100  21440765.63500                  -3372232.66040  21440771.07240
  14953285.84700  23694733.40800                  11651116.09940  23694739.16240
  -4223689.37400  24559750.01000                  -3101973.22740  24559756.74840
  -7834288.64500  23447487.63500                    360952.22240  23447492.96740
 96  9  7 21 55 30.0020000  0  9  1  3  9 15 17 21 23 25 31
 -18252741.47000  20908724.76800                 -14084479.44640  20908729.72540
   2842286.88200  23446593.26000                   2099687.58540  23446599.44740
    654378.23000  25030673.77500                    641719.39440  25030679.29540
   -813987.28900  24950438.38500                   -427165.60440  24950444.09240
  23769330.67600  25302178.04100                  18517881.70140  25302186.72940
  -4316359.31300  21444455.58800                  -3357123.08840  21444460.97940
  15016635.07800  23706788.31400                  11700479.10940  23706793.99840
  -4320955.63200  24541242.15000                  -3177764.99340  24541248.32640
  -7807095.70500  23452662.06400                    382141.50840  23452667.50240
 96  9  7 21 56  0.0020000  0  9  1  3  9 15 17 21 23 25 31
 -18246564.83300  20909900.21300                 -14079666.47540  20909905.34640
   2924257.04600  23462191.61100                   2163560.38140  23462197.61140
    723136.30600  25043758.68200                    695297.12740  25043764.58840
   -918614.06500  24930529.47100                   -508692.88740  24930536.65840
  23881631.12400  25323547.54100                  18605388.40540  25323555.37340
  -4296779.84900  21448181.36900                  -3341866.36440  21448186.63140
  15080072.30000  23718860.40000                  11749910.67640  23718866.29540
  -4418182.32700  24522739.76800                  -3253525.90640  24522745.60440
  -7779415.80300  23457929.54100                    403710.25040  23457934.83840
 96  9  7 21 56 30.0020000  0  9  1  3  9 15 17 21 23 25 31
 -18239929.47700  20911162.93900                 -14074496.05840  20911168.03740
   3006498.34700  23477841.11100                   2227644.48840  23477846.53740
    792343.13600  25056927.90800                    749224.52540  25056933.26440
  -1023198.46100  24910627.23600                   -590187.19640  24910636.56840
  23994043.72900  25344939.12700                  18692982.53540  25344947.40440
  -4277016.15500  21451942.37700                  -3326466.08240  21451947.48640
  15143594.62100  23730947.97900                  11799408.57740  23730953.93240
  -4515363.26300  24504246.51000                  -3329251.18740  24504252.80340
  -7751253.65000  23463289.17400                    425654.78040  23463294.51840
 96  9  7 21 57  0.0020000  0  9  1  3  9 15 17 21 23 25 31
 -18232863.80100  20912507.55700                 -14068990.32740  20912512.53740
   3089000.53900  23493541.53300                   2291931.84740  23493547.08840
    861990.82000  25070181.35400                    803495.43040  25070185.37340
  -1127738.82800  24890732.99400                   -671647.17040  24890738.54940
  24106566.04400  25366351.93200                  18780662.09640  25366358.01440
  -4257076.31900  21455736.78300                  -3310928.55240  21455741.92840
  15207194.74800  23743050.90800                  11848967.06540  23743056.62740
  -4612509.27600  24485760.83800                  -3404949.26640  24485766.86140
  -7722603.70100  23468740.86100                    447979.39340  23468745.60740
 96  9  7 21 57 30.0020000  0  9  1  3  9 15 17 21 23 25 31
 -18225355.83000  20913936.24400                 -14063139.95240  20913941.29540
   3171764.44600  23509290.69700                   2356423.14840  23509296.28740
    932086.78400  25083519.97100                    858115.62040  25083525.46740
  -1232215.64600  24870852.28300                   -753057.64940  24870862.97540
  24219219.53900  25387788.89300                  18868443.84040  25387797.24040
  -4236941.37500  21459568.38500                  -3295238.99140  21459573.48240
  15270884.27100  23755170.81400                  11898595.22840  23755176.26440
  -4709604.10800  24467283.16600                  -3480607.43340  24467289.86940
  -7693437.80100  23474291.31400                    470706.05140  23474296.54140
 96  9  7 21 58  0.0020000  0  9  1  3  9 15 17 21 23 25 31
 -18217410.12900  20915448.18200                 -14056948.48740  20915453.40840
   3254776.28200  23525087.46300                   2421107.65740  23525093.45140
   1002621.24800  25096943.01000                    913077.49840  25096948.83440
  -1336632.06800  24850982.27500                   -834421.04640  24850989.72140
  24331991.01500  25409249.35400                  18956317.63240  25409258.02940
  -4216600.67100  21463438.97900                  -3279389.09740  21463444.10040
  15334656.30600  23767306.47100                  11948287.69240  23767312.67040
  -4806666.86100  24448813.31400                  -3556240.64840  24448819.76040
  -7663773.20900  23479935.69700                    493821.30540  23479941.15840
 96  9  7 21 58 30.0020000  0  9  1  3  9 15 17 21 23 25 31
 -18209046.22900  20917039.94700                 -14050431.16040  20917044.99840
   3338017.42800  23540927.87700                   2485970.83740  23540933.29140
   1073584.38300  25110446.65000                    968373.44340  25110452.35740
  -1440991.51200  24831123.29900                   -915740.04640  24831130.45140
  24444876.64900  25430730.36900                  19044280.27540  25430738.60040
  -4196046.89900  21467350.16600                  -3263373.17640  21467355.34640
  15398512.31400  23779458.01800                  11998045.60340  23779463.70140
  -4903708.97000  24430347.02500                  -3631857.71140  24430352.82640
  -7633609.97500  23485675.43200                    517325.09840  23485680.82240
 96  9  7 21 59  0.0020000  0  8  1  3  9 15 21 23 25 31
 -18200263.21200  20918711.22900                 -14043587.24340  20918716.15040
   3421465.78900  23556807.73600                   2550995.48640  23556814.04140
   1144950.30100  25124027.15800                   1023983.16840  25124032.11540
  -1545303.05600  24811273.83800                   -997021.74140  24811278.73640
  -4175284.11500  21471301.39300                  -3247194.39440  21471306.64340
  15462452.08600  23791624.97100                  12047868.75940  23791630.60740
  -5000739.08300  24411882.49400                  -3707465.46940  24411888.79940
  -7602951.95200  23491509.88500                    541214.45140  23491515.70940
 96  9  7 21 59 30.0020000  0  8  1  3  9 15 21 23 25 31
 -18191039.64200  20920466.50200                 -14036400.03740  20920471.51840
   3505141.63200  23572730.67400                   2616197.40440  23572736.95540
   1216726.82900  25137685.83800                   1079912.92840  25137692.60040
  -1649558.57300  24791433.89300                  -1078259.71240  24791439.21340
  -4154287.74000  21475296.97100                  -3230833.58540  21475301.95140
  15526489.21100  23803811.10400                  12097767.76940  23803816.35440
  -5097748.14200  24393422.30700                  -3783056.82240  24393428.93940
  -7571802.54600  23497437.25200                    565486.69740  23497442.67840
 96  9  7 22  0  0.0020000  0  8  1  3  9 15 21 23 25 31
 -18181399.31900  20922300.71300                 -14028888.09540  20922305.82240
   3589046.53400  23588697.48600                   2681577.78040  23588703.80340
   1288895.80900  25151419.37700                   1136148.45040  25151426.26040
  -1753772.28700  24771603.47900                  -1159465.17440  24771608.06140
  -4133063.05300  21479335.75200                  -3214294.87640  21479341.00240
  15590605.96400  23816011.86900                  12147728.85340  23816017.54140
  -5194748.79400  24374963.46300                  -3858641.67240  24374968.33840
  -7540184.00600  23503454.01000                    590124.49140  23503459.31840
 96  9  7 22  0 30.0020000  0  8  1  3  9 15 21 23 25 31
 -18171323.15200  20924218.28300                 -14021036.53140  20924223.36940
   3673206.29700  23604712.46300                   2747156.76840  23604718.86140
   1361459.48800  25165227.86900                   1192691.54340  25165232.75640
  -1857922.50000  24751784.15000                  -1240621.12240  24751790.08040
  -4111603.27700  21483419.40000                  -3197572.97740  21483424.68640
  15654817.25500  23828230.72900                  12197763.57540  23828236.54140
  -5291712.20200  24356511.24400                  -3934197.44740  24356517.26840
  -7508068.09600  23509565.43900                    615149.86040  23509570.68940
 96  9  7 22  1  0.0020000  0  8  1  3  9 15 21 23 25 31
 -18160790.67300  20926222.58000                 -14012829.39540  20926227.68940
   3757632.12100  23620778.26800                   2812943.05840  23620784.85440
   1434411.35400  25179109.60400                   1249537.11440  25179116.67440
  -1961997.14300  24731979.33800                  -1321718.20540  24731984.97540
  -4089902.44900  21487548.95500                  -3180663.24540  21487554.43940
  15719121.40900  23840467.76000                  12247870.67840  23840473.43240
  -5388622.38700  24338070.76000                  -4009711.77740  24338076.58440
  -7475451.86700  23515772.08000                    640565.08840  23515777.57640
 96  9  7 22  1 30.0020000  0  8  1  3  9 15 21 23 25 31
 -18149798.33100  20928314.36900                 -14004263.92640  20928319.35040
   3842324.29000  23636894.32200                   2878936.91140  23636900.63940
   1507752.95400  25193066.08800                   1306686.42240  25193072.11140
  -2065992.10800  24712188.93900                  -1402753.19840  24712194.76440
  -4067964.60500  21491723.65000                  -3163568.82540  21491728.91240
  15783515.92000  23852721.16600                  12298048.19940  23852727.26040
  -5485470.64900  24319640.03300                  -4085177.88240  24319645.91640
  -7442335.98900  23522073.97900                    666369.64740  23522079.60440
 96  9  7 22  2  0.0020000  0  8  1  3  9 15 21 23 25 31
 -18138373.59600  20930488.25200                 -13995361.52640  20930493.10440
   3927223.29200  23653050.54900                   2945091.91840  23653056.22140
   1581454.63300  25207091.56400                   1364116.26740  25207096.25240
  -2169928.83600  24692410.66600                  -1483742.81140  24692415.79940
  -4045839.77100  21495933.86900                  -3146328.70240  21495939.13140
  15847973.09600  23864987.52500                  12348274.52740  23864993.29140
  -5582278.61400  24301218.61900                  -4160612.55340  24301224.52540
  -7408746.94600  23528465.70500                    692542.89940  23528471.23640
 96  9  7 22  2 30.0020000  0  8  1  3  9 15 21 23 25 31
 -18126497.58100  20932748.33800                 -13986107.48640  20932753.17840
   4012312.97300  23669242.18200                   3011395.51040  23669248.11140
   1655529.22200  25221186.33800                   1421836.65540  25221190.93240
  -2273797.53400  24672645.18200                  -1564679.42840  24672651.26440
  -4023535.18800  21500178.15000                  -3128948.51540  21500183.42440
  15912505.12900  23877267.33800                  12398559.19140  23877273.01040
  -5679036.79800  24282806.58000                  -4236008.47640  24282812.29940
  -7374682.13400  23534947.65000                    719086.88740  23534953.19340
 96  9  7 22  3  0.0020000  0  8  1  3  9 15 21 23 25 31
 -18114150.95600  20935097.88500                 -13976486.73640  20935102.84240
   4097605.32300  23685473.12700                   3077857.02040  23685479.17440
   1729999.64500  25235358.36900                   1479865.49140  25235362.90440
  -2377579.02800  24652897.18900                  -1645548.07840  24652904.54140
  -4001024.32100  21504461.87700                  -3111407.59140  21504467.10440
  15977133.15800  23889565.84600                  12448918.66240  23889571.92840
  -5775721.13800  24264407.29100                  -4311346.80440  24264413.88940
  -7340123.52400  23541524.27500                    746015.64940  23541529.56140
 96  9  7 22  3 30.0020000  0  8  1  3  9 15 21 23 25 31
 -18101345.02100  20937534.61100                 -13966508.07740  20937539.62740
   4183091.01600  23701740.90000                   3144469.19640  23701746.92440
   1804875.77200  25249606.81400                   1538210.55140  25249613.36540
  -2481275.94400  24633163.54100                  -1726350.79040  24633169.51840
  -3978311.21400  21508784.13500                  -3093709.06840  21508789.38540
  16041860.60100  23901882.65000                  12499355.59640  23901887.77140
  -5872334.15400  24246023.07200                  -4386629.63240  24246028.63940
  -7305071.94500  23548194.41600                    773328.55240  23548200.02940
 96  9  7 22  4  0.0020000  0  8  1  3  9 15 21 23 25 31
 -18088108.45500  20940053.32200                 -13956193.86540  20940058.50240
   4268765.16700  23718044.02500                   3211228.25640  23718049.94340
   1880146.52500  25263930.41600                   1596863.06140  25263934.31840
  -2584900.76900  24613444.61900                  -1807097.37540  24613450.99440
  -3955399.90300  21513143.84600                  -3075856.10240  21513149.23640
  16106671.91800  23914216.23600                  12549857.87840  23914222.11940
  -5968890.04500  24227648.79100                  -4461867.90440  24227654.28740
  -7269540.06800  23554956.01800                    801015.72540  23554961.09240
 96  9  7 22  4 30.0020000  0  8  1  3  9 15 21 23 25 31
 -18074444.43400  20942653.47100                 -13945546.56840  20942658.60440
   4354670.63600  23734391.31400                   3278167.51240  23734397.22140
   1955822.42100  25278331.36900                   1655831.27640  25278336.57240
  -2688441.47600  24593740.77500                  -1887778.38940  24593746.50640
  -3932257.23600  21517547.82200                  -3057822.85540  21517553.11940
  16171585.37300  23926568.90000                  12600439.76140  23926575.15840
  -6065365.90200  24209289.34600                  -4537043.80240  24209296.53340
  -7233509.65200  23561812.37700                    829091.34140  23561817.58040
 96  9  7 22  5  0.0020000  0  8  1  3  9 15 21 23 25 31
 -18060366.90100  20945332.41600                 -13934577.05640  20945337.57240
   4440822.26200  23750785.77500                   3345298.60440  23750791.58840
   2031894.41300  25292807.47900                   1715108.09940  25292812.03740
  -2791893.46700  24574055.11900                  -1968390.28940  24574060.45140
  -3908873.86800  21521997.39300                  -3039602.04940  21522002.76040
  16236605.48300  23938941.36900                  12651104.76240  23938947.93240
  -6161750.73300  24190948.64300                  -4612148.79140  24190954.86540
  -7196978.78200  23568763.96300                    857556.93040  23568769.11940
 96  9  7 22  5 30.0020000  0  8  1  3  9 15 21 23 25 31
 -18045890.55400  20948087.30700                 -13923296.77740  20948092.32240
   4527205.44000  23767223.15800                   3412610.10740  23767229.14640
   2108356.18600  25307357.65800                   1774688.68540  25307363.81140
  -2895265.99000  24554384.29900                  -2048940.24040  24554390.34640
  -3885264.86900  21526490.29100                  -3021205.42640  21526495.75240
  16301718.96700  23951332.42400                  12701842.48840  23951338.37740
  -6258055.11900  24172621.79100                  -4687191.03940  24172627.51040
  -7159972.19400  23575806.20500                    886393.22840  23575811.71340
 96  9  7 22  6  0.0020000  0  8  1  3  9 15 21 23 25 31
 -18030999.92500  20950920.79900                 -13911693.68440  20950925.74440
   4613838.15000  23783709.15000                   3480116.06240  23783715.09240
   2185205.33200  25321981.67400                   1834571.15340  25321986.57240
  -2998540.28600  24534731.51000                  -2129413.69540  24534736.24440
  -3861415.92500  21531028.33800                  -3002621.83640  21531033.85740
  16366936.60300  23963743.24400                  12752661.39940  23963748.99840
  -6354262.12200  24154314.26000                  -4762157.47240  24154320.07240
  -7122481.88200  23582940.29100                    915606.41340  23582945.86940
 96  9  7 22  6 30.0020000  0  8  1  3  9 15 21 23 25 31
 -18015691.67600  20953833.83800                 -13899765.16940  20953838.80740
   4700694.34400  23800237.90000                   3547796.15340  23800244.00640
   2262424.56600  25336675.68200                   1894741.97140  25336682.67040
  -3101722.50500  24515096.65800                  -2209815.37240  24515102.40040
  -3837354.52200  21535607.24400                  -2983872.68640  21535612.58840
  16432247.61500  23976171.54100                  12803553.06540  23976177.44740
  -6450378.55000  24136024.70500                  -4837053.28540  24136031.47940
  -7084529.38700  23590162.62700                    945179.78140  23590167.42040
 96  9  7 22  7  0.0020000  0  8  1  3  9 15 21 23 25 31
 -17999960.05200  20956827.34600                 -13887506.75540  20956832.37340
   4787737.84100  23816801.43200                   3615622.21740  23816806.96340
   2339994.46500  25351437.02500                   1955186.01340  25351442.43940
  -3204820.40600  24495477.92400                  -2290151.33540  24495483.31440
  -3813112.73500  21540220.14300                  -2964982.98040  21540225.42840
  16497623.44600  23988611.93900                  12854495.25040  23988617.52940
  -6546430.72200  24117746.72900                  -4911899.01340  24117752.50640
  -7046134.94400  23597468.58000                    975097.51340  23597473.94740
 96  9  7 22  7 30.0020000  0  8  1  3  9 15 21 23 25 31
 -17983780.97500  20959906.35400                 -13874899.68140  20959911.45140
   4874972.62400  23833401.90000                   3683597.29840  23833406.72940
   2417931.99800  25366268.41600                   2015916.52940  25366273.52540
  -3307809.88700  24475879.14300                  -2370402.88940  24475884.94340
  -3788681.48100  21544869.29900                  -2945945.64140  21544874.87740
  16563083.21900  24001068.87700                  12905502.84440  24001074.90040
  -6642413.37200  24099480.45500                  -4986690.57240  24099487.29940
  -7007275.77400  23604863.28300                   1005377.34440  23604868.55740
 96  9  7 22  8  0.0020000  0  8  1  3  9 15 21 23 25 31
 -17967164.34200  20963068.21300                 -13861951.65340  20963073.27540
   4962386.00900  23850036.46300                   3751711.57540  23850042.58040
   2496223.90600  25381166.88500                   2076923.20240  25381170.11940
  -3410697.39100  24456300.43200                  -2450574.88240  24456306.80740
  -3764077.08600  21549551.40000                  -2926773.39140  21549556.83840
  16628628.13000  24013541.55700                  12956576.76840  24013546.84240
  -6738334.71300  24081226.73600                  -5061434.41140  24081232.80740
  -6967955.11400  23612345.99400                   1036016.80940  23612351.44340
 96  9  7 22  8 30.0020000  0  8  1  3  9 15 21 23 25 31
 -17950104.82400  20966314.42400                 -13848658.51740  20966319.63940
   5049979.57000  23866704.65000                   3819966.23540  23866710.59240
   2574888.67200  25396135.99400                   2138220.38340  25396140.88140
  -3513473.63500  24436742.90800                  -2530660.23540  24436748.79140
  -3739285.23100  21554269.15000                  -2907455.06740  21554274.48240
  16694272.59900  24026033.45500                  13007728.26840  24026039.19740
  -6834179.89200  24062989.17400                  -5136118.84040  24062995.23240
  -6928163.40500  23619917.98600                   1067023.30540  23619922.80340
 96  9  7 22  9  0.0020000  0  8  1  3  9 15 21 23 25 31
 -17932616.36300  20969642.36900                 -13835031.13940  20969647.51440
   5137754.86600  23883407.85400                   3888362.51840  23883414.62740
   2653924.25400  25411175.97900                   2199806.53940  25411180.90040
  -3616140.20600  24417205.65000                  -2610660.12540  24417213.49440
  -3714295.34300  21559024.68200                  -2887982.42840  21559030.04940
  16760023.89900  24038544.90000                  13058963.02440  24038549.67040
  -6929949.34100  24044764.60400                  -5210744.26440  24044770.51040
  -6887904.37700  23627579.11100                   1098393.96240  23627584.37340
 96  9  7 22  9 30.0020000  0  7  1  3 15 21 23 25 31
 -17914714.25700  20973049.18200                 -13821081.44240  20973054.23240
   5225707.34300  23900144.71300                   3956896.87940  23900150.02140
  -3718699.17700  24397689.23600                  -2690576.18140  24397694.25240
  -3689091.40400  21563820.93200                  -2868343.00640  21563826.19340
  16825889.42900  24051078.99400                  13110286.78340  24051084.73640
  -7025626.48100  24026557.79900                  -5285297.80540  24026563.89340
  -6847191.94900  23635326.13500                   1130117.90440  23635331.81840
 96  9  7 22 10  0.0020000  0  7  1  3 15 21 23 25 31
 -17896405.69600  20976533.10400                 -13806815.02640  20976538.34240
   5313835.98400  23916915.08000                   4025568.47240  23916921.11540
  -3821151.46500  24378192.82200                  -2770409.09940  24378198.90440
  -3663656.30700  21568660.87700                  -2848523.45240  21568665.99840
  16891858.02500  24063631.98600                  13161690.83540  24063636.77940
  -7121181.65300  24008374.26000                  -5359756.26940  24008380.16640
  -6806037.23200  23643157.72900                   1162186.49140  23643162.72140
 96  9  7 22 10 30.0020000  0  7  1  3 15 21 23 25 31
 -17877677.85300  20980096.95500                 -13792221.89840  20980101.91240
   5402148.02300  23933720.11900                   4094382.99440  23933725.76840
  -3923478.85000  24358720.73600                  -2850144.68140  24358727.25240
  -3637967.64000  21573549.31400                  -2828506.32340  21573554.51840
  16957932.45200  24076206.04100                  13213177.38040  24076211.79540
  -7216593.14400  23990218.01000                  -5434102.80840  23990223.67040
  -6764434.49100  23651074.36100                   1194604.17540  23651080.33840
 96  9  7 22 11  0.0020000  0  7  1  3 15 21 23 25 31
 -17858526.41600  20983741.47100                 -13777298.69440  20983746.47540
   5490628.45900  23950557.18900                   4163328.73140  23950563.49440
  -4025676.72000  24339272.90000                  -2929779.32540  24339280.46340
  -3612015.45800  21578487.86100                  -2808283.84440  21578493.22940
  17024108.36000  24088798.76800                  13264743.01340  24088803.27940
  -7311854.45500  23972089.99400                  -5508332.30240  23972096.06440
  -6722384.23800  23659076.65800                   1227370.59040  23659082.27140
 96  9  7 22 11 30.0020000  0  7  1  3 15 21 23 25 31
 -17838954.18800  20987465.87700                 -13762047.59840  20987470.81140
   5579261.62900  23967423.97100                   4232393.46640  23967429.74840
  -4127749.85300  24319849.43200                  -3009316.81440  24319853.92040
  -3585802.86200  21583476.06400                  -2787858.45540  21583481.29140
  17090362.18500  24101406.66600                  13316369.33340  24101412.18640
  -7406965.09800  23953991.07200                  -5582444.41940  23953996.87340
  -6679883.67100  23667164.42400                   1260487.86840  23667169.82640
 96  9  7 22 12  0.0020000  0  7  1  3 15 21 23 25 31
 -17818977.42300  20991267.32200                 -13746481.27840  20991272.16240
   5668029.13200  23984315.94700                   4301562.89040  23984321.76040
  -4229714.42900  24300446.10400                  -3088769.69840  24300450.87340
  -3559356.98500  21588508.40000                  -2767251.28240  21588513.86140
  17156679.03700  24114026.30700                  13368044.76440  24114032.68240
  -7501965.39700  23935913.47100                  -5656470.57040  23935919.41240
  -6636944.81200  23675335.34600                   1293946.71340  23675341.12340
 96  9  7 22 12 30.0020000  0  7  1  3 15 21 23 25 31
 -17798559.82300  20995152.52500                 -13730571.45340  20995157.51840
   5756953.79700  24001237.71300                   4370854.77440  24001243.99440
  -4331543.95800  24281068.29100                  -3168117.33940  24281073.75240
  -3532661.22700  21593588.40800                  -2746449.39740  21593593.72940
  17223096.58800  24126665.09600                  13419798.68340  24126671.23640
  -7596860.81900  23917855.53300                  -5730414.96440  23917860.53740
  -6593543.55600  23683594.18200                   1327765.83340  23683600.18240
 96  9  7 22 13  0.0020000  0  7  1  3 15 21 23 25 31
 -17777703.33800  20999121.34600                 -13714319.64140  20999126.38540
   5846037.62500  24018189.11900                   4440270.67540  24018195.30740
  -4433240.60100  24261716.43200                  -3247361.45640  24261721.57640
  -3505720.07400  21598715.05700                  -2725456.29740  21598720.37740
  17289613.87600  24139322.43900                  13471630.30340  24139328.82640
  -7691665.11500  23899814.55700                  -5804288.38440  23899820.96740
  -6549672.88100  23691942.23600                   1361950.75940  23691947.73240
 96  9  7 22 13 30.0020000  0  7  1  3 15 21 23 25 31
 -17756431.61100  21003169.25200                 -13697744.26440  21003174.33840
   5935284.86800  24035172.12700                   4509813.86740  24035178.58440
  -4534811.65600  24242387.78300                  -3326507.67540  24242392.31840
  -3478566.52500  21603882.36100                  -2704297.69240  21603887.65840
  17356228.25300  24151999.27500                  13523537.57640  24152005.47540
    -34722.66310  23881787.34600
  -6505356.68000  23700375.22100                   1396482.83840  23700381.10440
 96  9  7 22 14  0.0020000  0  7  1  3 15 21 23 25 31
 -17734746.93700  21007295.74400                 -13680847.10840  21007300.85440
   6024707.15500  24052189.61100                   4579493.52640  24052195.68240
  -4636246.47900  24223085.44700                  -3405547.79940  24223090.95540
  -3451202.72100  21609089.61900                  -2682975.25140  21609094.99840
  17422963.80600  24164698.63500                  13575539.28240  24164704.23640
   -129373.97600  23863775.60400
  -6460605.13800  23708891.54900                   1431354.14540  23708897.47940
 96  9  7 22 14 30.0020000  0  7  1  3 15 21 23 25 31
 -17712653.02000  21011500.28300                 -13663631.06940  21011505.35740
   6114315.09400  24069241.28300                   4649317.84240  24069247.75240
  -4737535.68100  24203811.16600                  -3484474.37640  24203817.00240
  -3423624.52000  21614337.59600                  -2661485.75140  21614342.75240
  17489821.22400  24177421.82200                  13627635.94940  24177427.45940
   -223910.53400  23845785.66600                    -39273.68550  23845791.57240
  -6415413.49600  23717491.51000                   1466568.39240  23717497.38140
 96  9  7 22 15  0.0020000  0  7  1  3 15 21 23 25 31
 -17690166.74200  21015779.08800                 -13646109.28640  21015784.10440
   6204110.42800  24086328.72100                   4719288.15340  24086334.95540
  -4838672.73400  24184564.72900                  -3563282.42840  24184571.50240
  -3395833.19900  21619626.01800                  -2639830.18340  21619631.17440
  17556798.93700  24190167.26800                  13679826.32740  24190173.11540
   -318303.56200  23827822.83000                   -112826.66740  23827828.12740
  -6369776.77800  23726175.75200                   1502129.45740  23726181.72940
 96  9  7 22 15 30.0020000  0  7  1  3 15 21 23 25 31
 -17667313.74600  21020128.02500                 -13628301.75240  21020133.18240
   6294068.15900  24103447.66600                   4789385.03540  24103453.72540
  -4939667.73600  24165345.43900                  -3641979.78240  24165351.39340
  -3367839.24500  21624952.98600                  -2618016.71840  21624958.45940
  17623882.83000  24202932.05700                  13732099.47940  24202938.95140
   -412546.81500  23809889.41600                   -186262.85140  23809895.69740
  -6323721.69300  23734939.76000                   1538016.52740  23734944.86940
 96  9  7 22 16  0.0020000  0  7  1  3 15 21 23 25 31
 -17644067.33700  21024551.40800                 -13610187.66140  21024556.50640
   6384178.63700  24120595.00200                   4859600.95240  24120601.43640
  -5040510.38100  24146155.90000                  -3720558.42540  24146164.18940
  -3339613.50900  21630324.31400                  -2596022.64640  21630329.68240
  17691079.34100  24215719.22900                  13784460.33440  24215724.83040
   -506623.59900  23791987.01800                   -259569.42640  23791992.13940
  -6277224.15300  23743788.04100                   1574248.36240  23743793.15040
 96  9  7 22 16 30.0020000  0  7  1  3 15 21 23 25 31
 -17620421.33100  21029051.11100                 -13591762.19740  21029056.23240
   6474429.58100  24137769.41600                   4929926.28640  24137775.39340
  -5141198.14100  24126996.13500                  -3799016.38340  24127001.57240
  -3311150.93000  21635740.72100                  -2573844.01840  21635745.81840
  17758381.34000  24228526.35400                  13836903.41540  24228532.74040
   -600542.78700  23774114.88500                   -332753.14340  23774120.29940
  -6230272.21900  23752722.69700                   1610834.25640  23752728.24040
 96  9  7 22 17  0.0020000  0  7  1  3 15 21 23 25 31
 -17596373.27700  21033627.43200                 -13573023.44840  21033632.42440
   6564801.01900  24154966.37700                   5000345.55440  24154972.78740
  -5241733.10900  24107864.62700                  -3877355.25040  24107870.35740
  -3282441.69000  21641203.68900                  -2551473.18640  21641208.82240
  17825784.95400  24241353.40000                  13889425.69840  24241359.41240
   -694312.57300  23756271.04900                   -405820.36240  23756276.80340
  -6182878.93100  23761741.08000                   1647764.05340  23761746.61140
 96  9  7 22 17 30.0020000  0  7  1  3 15 21 23 25 31
 -17571892.08700  21038286.08000                 -13553947.19440  21038291.02540
   6655296.72300  24172187.01800                   5070861.64740  24172193.56840
  -5342105.34000  24088764.59600                  -3955567.32940  24088770.30340
  -3253466.28500  21646717.58800                  -2528894.95540  21646722.86140
  17893294.63900  24254199.93200                  13942030.59140  24254204.80740
   -787923.66100  23738456.55700                   -478764.01540  23738462.65040
  -6135039.73200  23770844.68200                   1685041.33140  23770849.85040
 96  9  7 22 18  0.0020000  0  7  1  3 15 21 23 25 31
 -17546973.25900  21043027.68200                 -13534529.92240  21043032.70940
   6745906.56800  24189429.38500                   5141466.66940  24189435.52540
  -5442327.31800  24069692.89300                  -4033662.35240  24069699.33840
  -3224249.48500  21652277.14300                  -2506128.62340  21652282.58040
  17960895.43500  24267063.97100                  13994706.52340  24267069.42040
   -881397.72700  23720669.08000                   -551600.88640  23720674.82240
  -6086768.09300  23780030.04900                   1722655.58040  23780035.17040
 96  9  7 22 18 30.0020000  0  7  1  3 15 21 23 25 31
 -17521619.08200  21047852.54900                 -13514773.42140  21047857.74040
   6836650.99000  24206697.58000                   5212176.55840  24206704.40040
  -5542383.65800  24050653.04100                  -4111628.27640  24050658.43240
  -3194787.45900  21657883.69700                  -2483171.20540  21657889.19340
  18028592.38000  24279946.19700                  14047457.36940  24279953.46740
   -974717.07700  23702911.52500                   -624317.17240  23702916.64640
  -6038071.32400  23789297.33000                   1760601.07840  23789302.95540
 96  9  7 22 19  0.0020000  0  7  1  3 15 21 23 25 31
 -17495828.48500  21052760.35400                 -13494676.84940  21052765.40440
   6927529.02500  24223991.47100                   5282990.58740  24223997.13140
  -5642269.19200  24031645.53300                  -4189461.11440  24031651.31140
  -3165074.79800  21663537.87700                  -2460018.48640  21663543.38540
  18096386.09900  24292846.76000                  14100283.55640  24292853.21740
  -1067863.28500  23685186.26000                   -696898.53340  23685192.20140
  -5988956.89600  23798643.37700                   1798872.02340  23798649.34240
 96  9  7 22 19 30.0020000  0  7  1  3 15 21 23 25 31
 -17469613.09600  21057748.97100                 -13474249.27040  21057753.96340
   7018534.75100  24241309.18200                   5353904.07940  24241314.97140
  -5741987.38500  24012669.46300                  -4267163.56440  24012674.93640
  -3135136.53000  21669234.95500                  -2436689.97540  21669240.28740
  18164277.15100  24305766.12700                  14153185.64940  24305771.42440
  -1160841.08500  23667492.87700                   -769348.69940  23667498.77140
  -5939429.52600  23808067.70500                   1837464.76340  23808073.44740
 96  9  7 22 20  0.0020000  0  7  1  3 15 21 23 25 31
 -17443007.07400  21062811.97100                 -13453517.30240  21062817.17440
   7109656.18000  24258649.17400                   5424907.72340  24258655.33840
  -5841537.86300  23993725.88500                  -4344735.31040  23993731.01840
  -3104976.08900  21674974.07200                  -2413188.33840  21674979.13540
  18232272.13500  24318704.87700                  14206168.72840  24318711.59240
  -1253664.11700  23649830.06400                   -841678.25640  23649835.74840
  -5889503.97200  23817568.14300                   1876367.78140  23817573.89640
 96  9  7 22 20 30.0020000  0  7  1  3 15 21 23 25 31
 -17416037.76600  21067943.97900                 -13432502.25640  21067949.10040
   7200884.46100  24276009.14300                   5495994.62340  24276014.80340
  -5940921.31200  23974813.72900                  -4422176.94040  23974819.37740
  -3074580.74000  21680758.17400                  -2389503.65640  21680763.64640
  18300377.36100  24331665.18900                  14259237.68440  24331670.55740
  -1346320.19900  23632197.85400                   -913877.73140  23632203.91240
  -5839185.97800  23827143.18200                   1915576.58440  23827149.47540
 96  9  7 22 21  0.0020000  0  7  1  3 15 21 23 25 31
 -17388702.94600  21073145.70500                 -13411202.39140  21073150.87340
   7292215.82700  24293389.33800                   5567161.85440  24293395.68940
  -6040127.93300  23955934.94700                  -4499480.74840  23955940.88940
  -3043944.06600  21686588.32200                  -2365630.93140  21686593.56140
  18368609.50800  24344649.18200                  14312405.55740  24344655.17040
  -1438796.76400  23614600.33000                   -985937.31140  23614605.55740
  -5788455.66500  23836797.51000                   1955106.67740  23836802.64340
 96  9  7 22 21 30.0020000  0  7  1  3 15 21 23 25 31
 -17361008.73300  21078415.86100                 -13389622.48640  21078420.90040
   7383658.56600  24310789.70500                   5638415.88640  24310796.36140
  -6139163.85200  23937089.52500                  -4576651.57640  23937094.88140
  -3013079.25700  21692461.75200                  -2341580.44040  21692467.20140
  18436957.25000  24357655.96300                  14365663.47740  24357661.83440
  -1531112.17800  23597032.97100                  -1057871.33340  23597038.53740
  -5737323.85400  23846527.44700                   1994949.59340  23846533.00240
 96  9  7 22 22  0.0020000  0  7  1  3 15 21 23 25 31
 -17332943.94800  21083756.26000                 -13367753.81640  21083761.36940
   7475222.48800  24328214.23600                   5709764.31440  24328220.20140
  -6238021.19100  23918277.56400                  -4653683.21540  23918283.07240
  -2981975.49500  21698380.39300                  -2317343.74740  21698386.00640
  18505422.80900  24370684.64300                  14419013.21840  24370689.98640
  -1623254.13300  23579498.93900                  -1129670.18740  23579504.30740
  -5685782.99600  23856335.67400                   2035111.28340  23856340.93640
 96  9  7 22 22 30.0020000  0  7  1  3 15 21 23 25 31
 -17304471.17800  21089174.51800                 -13345567.24040  21089179.61540
   7566918.28500  24345663.57200                   5781215.51840  24345669.63140
  -6336680.68300  23899503.09600                  -4730560.71840  23899508.51040
  -2950634.45800  21704344.58800                  -2292922.16640  21704350.31840
  18574016.45000  24383736.97100                  14472462.77340  24383743.52140
  -1715191.88100  23562003.65000                  -1201309.92940  23562009.34640
  -5633806.50100  23866226.47100                   2075612.43040  23866231.54540
 96  9  7 22 23  0.0020000  0  7  1  3 15 21 23 25 31
 -17275598.23400  21094668.89300                 -13323068.84040  21094673.92040
   7658716.59100  24363132.02500                   5852746.58140  24363137.76840
  -6435162.30200  23880762.83000                  -4807299.62240  23880767.95140
  -2919091.88100  21710346.91600                  -2268343.54040  21710352.33040
  18642701.80400  24396806.99400                  14525983.77540  24396812.44340
  -1806958.88800  23544540.76800                  -1272816.62140  23544546.38140
  -5581427.25900  23876194.16600                   2116427.38940  23876199.80340
 96  9  7 22 23 30.0020000  0  7  1  3 15 21 23 25 31
 -17246322.67200  21100239.74400                 -13300256.71440  21100244.81840
   7750615.57700  24380619.68900                   5924356.08640  24380625.64340
  -6533461.25200  23862056.66600                  -4883896.17540  23862062.84240
  -2887345.51400  21716388.21300                  -2243606.12140  21716393.56840
  18711475.67200  24409894.77500                  14579573.78940  24409901.50240
  -1898553.91700  23527110.93900                  -1344189.31340  23527116.14340
  -5528655.61400  23886235.85400                   2157548.13540  23886241.10440
 96  9  7 22 24  0.0020000  0  7  1  3 15 21 23 25 31
 -17216653.19400  21105885.65800                 -13277137.64240  21105890.81440
   7842591.53300  24398122.68900                   5996025.59540  24398130.27540
  -6631565.01200  23843387.97100                  -4960340.60640  23843394.12340
  -2855381.56800  21722470.41600                  -2218699.15440  21722475.95940
  18780348.56900  24423001.24400                  14633240.92040  24423008.23240
  -1989955.98700  23509717.31400                  -1415411.65340  23509723.45540
  -5475481.51100  23896354.68200                   2198982.48440  23896360.07240
 96  9  7 22 24 30.0020000  0  7  1  3 15 21 23 25 31
 -17186604.80800  21111603.58800                 -13253723.31040  21111608.67440
   7934631.60200  24415636.98600                   6067745.06940  24415643.39640
  -6729476.19700  23824756.61900                  -5036635.01540  23824762.13940
  -2823195.26100  21728595.38500                  -2193618.91740  21728601.03340
  18849298.66200  24436122.03300                  14686968.20140  24436128.16240
  -2081176.86300  23492358.70500                  -1486492.78840  23492363.75640
  -5421923.39900  23906546.53300                   2240716.06140  23906552.74440
 96  9  7 22 25  0.0020000  0  7  1  3 15 21 23 25 31
 -17156193.85200  21117390.61900                 -13230026.45840  21117395.77540
   8026748.96800  24433166.36900                   6139524.70340  24433172.40440
  -6827194.31900  23806161.47900                  -5112778.97940  23806167.37340
  -2790765.49300  21734766.65000                  -2168348.97140  21734772.08840
  18918333.98200  24449258.84600                  14740761.93940  24449265.05740
  -2172213.47100  23475034.74400                  -1557430.33340  23475039.51440
  -5367986.02300  23916810.43900                   2282745.15440  23916816.06440
 96  9  7 22 25 30.0020000  0  7  1  3 15 21 23 25 31
 -17125428.25600  21123245.18900                 -13206053.26740  21123250.36940
   8118938.72400  24450708.91600                   6211360.82140  24450716.20940
  -6924716.27200  23787603.44700                  -5188770.09840  23787606.85740
  -2758082.51500  21740986.01800                  -2142881.71640  21740991.33840
  18987455.11100  24462412.29900                  14794622.52240  24462418.90840
  -2263061.92000  23457747.50200                  -1628221.27540  23457752.97540
  -5313658.11800  23927148.61100                   2325078.55640  23927154.29540
 96  9  7 22 26  0.0020000  0  7  1  3 15 21 23 25 31
 -17094292.26100  21129170.14300                 -13181791.45540  21129175.20540
   8211214.31900  24468269.11900                   6283263.76440  24468274.18240
  -7022030.72300  23769085.22100                  -5264599.49440  23769090.23640
  -2725128.06900  21747257.29900                  -2117202.93340  21747262.46740
  19056673.92100  24475584.38500                  14848559.21940  24475590.78340
  -2353708.55300  23440498.32200                  -1698854.95540  23440503.60740
  -5258934.67000  23937562.10400                   2367720.17740  23937567.45940
 96  9  7 22 26 30.0020000  0  7  1  3 15 21 23 25 31
 -17062773.50800  21135167.75200                 -13157231.38940  21135172.89640
   8303600.76300  24485849.91600                   6355253.17640  24485856.27940
  -7119130.94400  23750607.23600                  -5340261.98640  23750613.24840
  -2691895.66500  21753581.04100                  -2091307.56140  21753586.10440
  19126011.04100  24488778.51800                  14902588.11840  24488785.06840
  -2444148.32500  23423287.65000                  -1769327.47040  23423292.92440
  -5203816.99300  23948050.74400                   2410668.98140  23948056.90840
 96  9  7 22 27  0.0020000  0  7  1  3 15 21 23 25 31
 -17030880.05400  21141237.03300                 -13132379.34540  21141242.15440
   8396080.72300  24503448.24400                   6427315.36240  24503454.06840
  -7216021.92100  23732169.76800                  -5415761.40540  23732174.58440
  -2658397.04600  21759955.65000                  -2065204.74540  21759960.77140
  19195478.04300  24501998.01800                  14956718.20740  24502004.13540
  -2534383.20400  23406116.09600                  -1839640.33740  23406121.38140
  -5148316.37300  23958612.19700                   2453916.17840  23958617.62340
 96  9  7 22 27 30.0020000  0  7  1  3 15 21 23 25 31
 -16998602.78200  21147379.15800                 -13107228.22440  21147384.15040
   8488634.89200  24521060.83000                   6499435.44240  24521066.27940
  -7312698.63600  23713772.65000                  -5491093.87540  23713778.69740
  -2624646.60500  21766378.26000                  -2038905.71040  21766383.54540
  19265065.62100  24515240.24400                  15010942.25740  24515244.99040
  -2624415.72800  23388983.56400                  -1909795.51040  23388988.60440
  -5092441.32500  23969245.29100                   2497455.15040  23969251.09240
 96  9  7 22 28  0.0020000  0  7  1  3 15 21 23 25 31
 -16965950.67000  21153592.83000                 -13081785.02440  21153597.72940
   8581267.90100  24538688.79900                   6571616.96840  24538695.16240
  -7409160.20700  23695416.83800                  -5566258.69840  23695422.58040
  -2590653.41700  21772846.56400                  -2012417.51740  21772852.07240
  19334786.71200  24528507.53300                  15065270.32840  24528513.92040
  -2714245.45700  23371889.85400                  -1979792.64940  23371895.29140
  -5036203.56900  23979946.63500                   2541276.76040  23979951.82640
 96  9  7 22 28 30.0020000  0  7  1  3 15 21 23 25 31
 -16932927.16000  21159876.97100                 -13056052.42440  21159881.88140
   8673974.25600  24556330.12700                   6643855.55340  24556335.18940
  -7505400.91900  23677102.72900                  -5641251.42940  23677108.77540
  -2556428.69300  21779359.29900                  -1985748.91940  21779364.61940
  19404650.43900  24541801.43200                  15119709.56940  24541807.30340
  -2803870.71400  23354834.89300                  -2049630.47340  23354840.31840
  -4979598.22500  23990718.51800                   2585384.78140  23990724.20140
 96  9  7 22 29  0.0020000  0  7  1  3 15 21 23 25 31
 -16899542.75200  21166229.80700                 -13030038.59540  21166234.78740
   8766717.49400  24573978.85400                   6716122.94340  24573984.97140
  -7601436.78300  23658827.62700                  -5716084.52740  23658833.24040
  -2521993.31400  21785912.18200                  -1958916.16240  21785917.72540
  19474625.45700  24555117.72100                  15174235.47840  24555124.89640
  -2893306.02200  23337815.82200                  -2119320.27540  23337820.76840
  -4922633.46100  24001558.46300                   2629772.87840  24001564.10040
 96  9  7 22 29 30.0020000  0  7  1  3 15 21 23 25 31
 -16865792.17900  21172652.29100                 -13003739.45140  21172657.47140
   8859501.05000  24591634.11100                   6788421.77040  24591640.02940
  -7697264.39300  23640592.29900                  -5790755.36140  23640598.41640
  -2487343.28500  21792505.90800                  -1931916.14940  21792511.46340
  19544709.80400  24568453.64300                  15228846.62640  24568459.95940
  -2982548.84700  23320833.33800                  -2188860.09940  23320838.55340
  -4865293.53600  24012469.82200                   2674453.31240  24012475.75240
 96  9  7 22 30  0.0020000  0  7  1  3 15 21 23 25 31
 -16831656.77600  21179148.07200                 -12977140.43340  21179153.06440
   8952352.01300  24609303.31400                   6860773.06840  24609309.94740
  -7792862.85900  23622400.40800                  -5865247.63240  23622406.02140
  -2452445.00000  21799147.07200                  -1904722.69040  21799152.41640
  19614928.59500  24581816.47900                  15283562.52040  24581822.57240
  -3071573.52900  23303892.18900                  -2258229.92540  23303898.21340
  -4807560.86300  24023455.64300                   2719439.80040  24023461.51440
 96  9  7 22 30 30.0020000  0  7  1  3 15 21 23 25 31
 -16797132.68800  21185717.77500                 -12950238.54740  21185722.88540
   9045253.70400  24626981.97900                   6933163.92940  24626987.56840
  -7888232.44000  23604252.24400                  -5939561.57140  23604258.06840
  -2417298.96500  21805834.96300                  -1877336.18040  21805840.33040
  19685267.65400  24595201.94700                  15338372.13940  24595207.17440
  -3160382.02900  23286992.01800                  -2327431.31040  23286997.58440
  -4749443.79000  24034515.11900                   2764725.80140  24034520.51040
 96  9  7 22 31  0.0020000  0  7  1  3 15 21 23 25 31
 -16762217.23700  21192362.09600                 -12923031.70140  21192367.24040
   9138213.00000  24644671.65800                   7005599.67640  24644678.05740
  -7983357.11700  23586150.38500                  -6013684.65340  23586156.08040
  -2381887.40500  21812573.56400                  -1849742.76440  21812578.87340
  19755727.22800  24608610.10400                  15393275.70540  24608616.81840
  -3248962.68000  23270135.66600                  -2396455.13840  23270141.44340
  -4690933.83000  24045649.51000                   2810317.94940  24045656.06140
 96  9  7 22 31 30.0020000  0  7  1  3 15 21 23 25 31
 -16726943.19600  21199074.46300                 -12895545.43140  21199079.61940
   9231229.70900  24662372.68900                   7078080.17840  24662378.90040
  -8078246.42400  23568093.93900                  -6087624.32940  23568099.86940
  -2346227.99000  21819359.47100                  -1821956.21540  21819364.85040
  19826293.05000  24622037.53300                  15448261.97240  24622043.39340
  -3337316.92200  23253322.25200                  -2465302.54740  23253327.52540
  -4632065.71900  24056851.74400                   2856189.15940  24056857.08840
 96  9  7 22 32  0.0020000  0  7  1  3 15 21 23 25 31
 -16691338.13800  21205849.86100                 -12867801.23540  21205855.08840
   9324293.05200  24680081.95500                   7150596.96240  24680088.52940
  -8172904.06300  23550080.64300                  -6161383.49540  23550085.86940
  -2310340.91200  21826188.65000                  -1793992.26240  21826194.12340
  19896959.25200  24635485.11100                  15503326.51940  24635488.75640
  -3425439.30200  23236553.18900                  -2533969.28340  23236558.81440
  -4572863.17500  24068117.74400                   2902320.98240  24068122.08040
 96  9  7 22 32 30.0020000  0  7  1  3 15 21 23 25 31
 -16655401.98900  21212688.29900                 -12839799.04440  21212693.35040
   9417402.96900  24697800.33800                   7223150.15440  24697806.88940
  -8267318.39400  23532114.63500                  -6234953.06340  23532119.87340
  -2274222.41400  21833061.58800                  -1765847.97940  21833067.14340
  19967724.17400  24648951.17400                  15558467.91940  24648959.05340
  -3513320.93900  23219829.93200                  -2602448.43840  23219835.07640
  -4513313.04700  24079449.91600                   2948723.63440  24079454.82640
 96  9  7 22 33  0.0020000  0  7  1  3 15 21 23 25 31
 -16619140.20900  21219588.63500                 -12811543.11040  21219593.55740
   9510568.29700  24715528.98600                   7295746.40240  24715537.07640
  -8361492.02500  23514193.58000                  -6308335.07840  23514198.58440
  -2237868.33900  21839979.58000                  -1737520.14940  21839985.42840
  20038574.41700  24662433.79900                  15613675.83540  24662438.19340
  -3600954.50600  23203154.28300                  -2670734.28040  23203159.02940
  -4453411.94300  24090848.80700                   2995399.79440  24090854.77140
 96  9  7 22 33 30.0020000  0  7  1  3 15 21 23 25 31
 -16582532.73900  21226554.69700                 -12783017.80340  21226559.61940
   9603798.86500  24733270.21300                   7368393.53840  24733277.49440
  -8455416.32900  23496320.46300                  -6381522.83140  23496326.40440
  -2201265.02100  21846944.63500
  20109517.39400  24675933.76800                  15668956.12540  24675940.30740
  -3688332.44400  23186526.29100                  -2738820.94440  23186531.55340
  -4393159.40600  24102314.49400                   3042349.77840  24102320.63540
 96  9  7 22 34  0.0020000  0  7  1  3 15 21 23 25 31
 -16545566.25800  21233589.04900                 -12754212.76640  21233594.19340
   9697074.79700  24751020.08800                   7441075.98040  24751025.57240
  -8549091.66900  23478494.56400                  -6454516.55240  23478500.10740
  -2164398.07800  21853960.44700                     10555.38950  21853966.03740
  20180543.81600  24689450.07200                  15724301.29340  24689455.36940
  -3775481.74500  23169942.24400                  -2806729.43340  23169947.52940
  -4332554.77300  24113847.18900                   3089574.12040  24113852.18240
 96  9  7 22 34 30.0020000  0  7  1  3 15 21 23 25 31
 -16508245.87300  21240691.13500                 -12725131.94540  21240696.19740
   9790384.63800  24768776.48600                   7513784.96840  24768782.70940
  -8642526.22800  23460714.33800                  -6527322.68140  23460721.01840
  -2127259.41400  21861027.83000                     39494.59240  21861033.13940
  20251634.60800  24702978.34600                  15779696.67340  24702984.35740
  -3862425.02000  23153397.59600                  -2874477.39540  23153402.86940
  -4271608.85700  24125444.26800                   3137064.41040  24125449.83440
 96  9  7 22 35  0.0020000  0  7  1  3 15 21 23 25 31
 -16470566.09900  21247861.23600                 -12695771.08640  21247866.15840
   9883740.58700  24786541.29900                   7586529.75740  24786547.12340
  -8735700.34200  23442984.36900                  -6599925.86240  23442990.58040
  -2089838.32300  21868148.86900                     68653.88540  21868154.31840
  20322826.80200  24716525.69700                  15835171.06240  24716531.48640
  -3949137.63000  23136896.71300                  -2942045.61540  23136902.11540
  -4210320.71400  24137106.88500                   3184821.39740  24137112.76840
 96  9  7 22 35 30.0020000  0  7  1  3 15 21 23 25 31
 -16432541.61400  21255097.25200                 -12666141.62140  21255102.29140
   9977117.47700  24804310.22100                   7659290.85640  24804315.23640
  -8828617.72500  23425302.79100                  -6672329.00140  23425307.97140
  -2052152.38900  21875320.11100                     98019.53440  21875325.39640
  20394134.81000  24730095.34600                  15890735.70740  24730101.67440
  -4035623.93300  23120439.29900                  -3009437.49940  23120444.95940
  -4148712.59200  24148829.82200                   3232827.70740  24148835.85740
 96  9  7 22 36  0.0020000  0  7  1  3 15 21 23 25 31
 -16394211.64100  21262391.33800                 -12636274.11640  21262396.23640
  10070497.47900  24822079.04900                   7732054.40840  24822081.88540
  -8921295.13700  23407666.61900                  -6744545.16940  23407671.82240
  -2014233.60400  21882535.97900                    127566.62540  21882541.21740
  20465542.41900  24743683.29100                  15946377.99140  24743690.20940
  -4121889.32500  23104023.27500                  -3076657.23740  23104028.74840
  -4086796.53600  24160613.21300                   3281073.92340  24160618.76840
 96  9  7 22 36 30.0020000  0  7  1  3 15 21 23 25 31
 -16355542.64000  21269749.61900                 -12606142.43340  21269754.44740
  10163921.24300  24839858.75200                   7804852.15640  24839863.26440
  -9013701.08900  23390082.22100                  -6816549.77640  23390087.77540
  -1976067.79100  21889798.58000                    157306.21440  21889803.71340
  20537095.89200  24757299.92400                  16002133.84440  24757307.01840
  -4207864.65100  23087662.47100                  -3143650.96240  23087667.81440
  -4024537.51900  24172460.33000                   3329587.42040  24172465.79140
 96  9  7 22 37  0.0020000  0  7  1  3 15 21 23 25 31
 -16316530.71700  21277173.28300                 -12575743.53540  21277178.22940
  10257361.36200  24857639.54900                   7877662.54140  24857645.86540
  -9105853.76500  23372546.26800                  -6888357.04540  23372552.50240
  -1937685.09400  21897102.62700                    187214.79240  21897107.81840
  20608780.03200  24770940.84600                  16057991.59540  24770946.68240
  -4293559.22900  23071355.79900                  -3210425.90040  23071360.82640
  -3961952.96600  24184369.98600                   3378354.55940  24184375.33040
 96  9  7 22 37 30.0020000  0  7  1  3 15 21 23 25 31
 -16277154.39800  21284666.43900                 -12545060.69140  21284671.44340
  10350817.85400  24875423.16600                   7950485.57140  24875428.63940
  -9197742.09000  23355060.69700                  -6959958.31440  23355066.14640
  -1899069.44200  21904450.86900                    217304.90440  21904456.09640
  20680589.71400  24784606.43900                  16113947.09840  24784613.13140
  -4378966.86900  23055103.08000                  -3276977.25940  23055108.09640
  -3899023.81100  24196345.25200                   3427390.24640  24196351.52140
 96  9  7 22 38  0.0020000  0  7  1  3 15 21 23 25 31
 -16237411.51700  21292229.22900                 -12514092.21640  21292234.29140
  10444294.70300  24893212.40000                   8023324.61940  24893219.03340
  -9289358.64000  23337626.67400                  -7031347.79840  23337632.54540
  -1860205.48700  21911846.56400                    247588.49340  21911851.83840
  20752518.34100  24798293.15800                  16169995.33240  24798298.79540
  -4464083.07700  23038905.79900                  -3343301.54040  23038910.70940
  -3835740.88700  24208387.09600                   3476701.56840  24208393.15440
 96  9  7 22 38 30.0020000  0  7  1  3 15 21 23 25 31
 -16197308.68300  21299860.48600                 -12482843.25740  21299865.35040
  10537762.20000  24910997.54100                   8096156.50140  24911005.97140
  -9380705.65600  23320243.83000                  -7102527.26940  23320249.84240
  -1821086.10800  21919290.81400                    278071.11640  21919296.04140
  20824569.54200  24812004.54900                  16226139.09040  24812011.90040
  -4548921.47200  23022761.75200                  -3409409.33340  23022767.04940
  -3772123.82300  24220493.83800                   3526273.28040  24220499.65040
 96  9  7 22 39  0.0020000  0  7  1  3 15 21 23 25 31
 -16156872.80300  21307555.47900                 -12451334.78240  21307560.37740
  10631204.96800  24928778.58000                   8168968.84640  24928788.01840
  -9471778.56100  23302913.00200                  -7173493.15540  23302918.79140
  -1781701.53000  21926785.33000                    308760.38940  21926790.76840
  20896735.50300  24825737.01800                  16282372.26940  24825744.35740
  -4633510.59100  23006664.81400                  -3475322.88940  23006669.59640
  -3708182.69700  24232661.18900                   3576097.49140  24232667.54140
 96  9  7 22 39 30.0020000  0  7  1  3 15 21 23 25 31
 -16116136.99000  21315307.02500                 -12419592.59540  21315312.04140
  10724621.21700  24946556.36100                   8241760.62440  24946563.44340
  -9562581.27700  23285633.23600                  -7244248.48840  23285638.27540
  -1742061.92200  21934328.59600                    339648.38240  21934334.20940
  20969005.01100  24839489.22900                  16338686.09040  24839495.02940
  -4717859.66600  22990613.65000                  -3541049.40940  22990619.17040
  -3643936.15300  24244886.83000                   3626159.69640  24244892.51440
 96  9  7 22 40  0.0020000  0  7  1  3 15 21 23 25 31
 -16075095.36100  21323117.01000                 -12387612.10940  21323122.00240
  10818024.59700  24964330.14300                   8314542.35840  24964336.10740
  -9653103.63800  23268407.76800                  -7314785.36440  23268413.65040
  -1702160.37700  21941921.59600                    370740.48340  21941927.11540
  21041386.28900  24853263.36900                  16395087.05140  24853270.06140
  -4801964.83700  22974608.84600                  -3606585.86040  22974614.37740
  -3579390.30200  24257169.55700                   3676455.13940  24257175.08840
 96  9  7 22 40 30.0020000  0  7  1  3 15 21 23 25 31
 -16033737.41500  21330986.94700                 -12355385.14340  21330992.10440
  10911412.47400  24982101.53300                   8387312.10440  24982109.26040
  -9743338.07700  23251236.71300                  -7385097.88240  23251241.99840
  -1662009.75700  21949561.86100                    402026.67040  21949567.14640
  21113886.04200  24867059.20500                  16451580.31740  24867066.40440
  -4885819.77000  22958651.64300                  -3671927.32540  22958657.46740
  -3514549.92200  24269507.97900                   3726980.05740  24269514.14340
 96  9  7 22 41  0.0020000  0  7  1  3 15 21 23 25 31
 -15992063.15100  21338917.29900                 -12322911.69140  21338922.57240
  11004791.43800  24999871.10400                   8460074.80840  24999877.32640
  -9833289.56700  23234119.74400                  -7455189.92540  23234125.43940
  -1621624.65400  21957246.88500                    433495.57740  21957252.26440
  21186495.18000  24880876.86900                  16508158.81440  24880883.29140
  -4969421.70000  22942742.41600                  -3737071.63940  22942747.59640
  -3449425.81100  24281901.31400                   3777726.09840  24281906.41240
 96  9  7 22 41 30.0020000  0  7  1  3 15 21 23 25 31
 -15950054.00600  21346911.44700                 -12290177.29840  21346916.56840
  11098168.93000  25017640.40000                   8532836.39940  25017646.01440
  -9922950.54500  23217057.95500                  -7525055.59140  23217063.41640
  -1581000.33000  21964977.51000                    465150.87840  21964982.80740
  21259224.83400  24894716.35400                  16564831.17840  24894722.37740
  -5052737.18200  22926888.51800                  -3801992.74940  22926893.61540
  -3384021.74900  24294346.88500                   3828690.26140  24294352.29940
 96  9  7 22 42  0.0020000  0  7  1  3 15 21 23 25 31
 -15907708.90000  21354969.62700                 -12257181.11540  21354974.64340
  11191525.90600  25035405.75200                   8605582.03240  25035414.58040
 -10012319.92800  23200051.43900                  -7594694.05740  23200056.98240
  -1540130.30000  21972754.97900                    496997.64340  21972760.32240
  21332084.60300  24908581.28300                  16621604.96640  24908586.76840
  -5135759.06700  22911090.11100                  -3866685.08540  22911095.20940
  -3318334.59600  24306847.08000                   3879875.04340  24306851.86140
 96  9  7 22 42 30.0020000  0  7  1  3 15 21 23 25 31
 -15865028.94200  21363091.26800                 -12223924.00640  21363096.22540
  11284866.39100  25053167.33800                   8678314.80040  25053175.33440
 -10101390.81600  23183101.76000                  -7664099.93340  23183107.50240
  -1499012.41100  21980579.28300                    529037.54640  21980584.73240
  21405081.82300  24922472.93200                  16678485.86840  24922478.96740
  -5218467.11400  22895351.11900                  -3931132.86840  22895356.36940
  -3252361.05300  24319401.43900                   3931282.93940  24319406.79540
 96  9  7 22 43  0.0020000  0  7  1  3 15 21 23 25 31
 -15822017.45900  21371276.15800                 -12190408.56840  21371281.13940
  11378202.08900  25070928.84600                   8751043.80240  25070934.18940
 -10190162.29700  23166209.10400                  -7733272.49240  23166214.57640
  -1457625.63800  21988455.00200                    561286.96240  21988460.58040
  21478205.19600  24936384.64300                  16735465.02840  24936389.56440
  -5300861.27800  22879671.85400                  -3995336.06540  22879676.85740
  -3186101.37000  24332009.64300                   3982913.85740  24332015.64340
 96  9  7 22 43 30.0020000  0  7  1  3 15 21 23 25 31
 -15778672.91500  21379524.36100                 -12156633.60340  21379529.31840
  11471520.21700  25088686.79900                   8823759.09640  25088694.04540
 -10278634.78100  23149373.22100                  -7802212.06440  23149378.89340
  -1415969.14400  21996381.79100                    593746.55640  21996387.33440
  21551431.32900  24950321.47100                  16792524.31640  24950327.78740
  -5382951.34300  22864050.49400                  -4059302.30540  22864055.66240
  -3119550.65500  24344674.10400                   4034771.49840  24344680.53740
 96  9  7 22 44  0.0020000  0  7  1  3 15 21 23 25 31
 -15735005.10300  21387834.11900                 -12122606.74140  21387839.05340
  11564811.92900  25106439.42400                   8896453.85540  25106444.26440
 -10366809.54300  23132593.77500                  -7870919.65840  23132599.54140
  -1374053.84000  22004358.13500                    626407.81340  22004363.77140
  21624747.52900  24964273.72100                  16849653.70240  24964278.44340
  -5464758.09200  22848483.10400                  -4123047.78940  22848487.97940
  -3052710.20400  24357393.51000                   4086854.93940  24357398.92440
 96  9  7 22 44 30.0020000  0  7  1  3 15 21 23 25 31
 -15691006.04900  21396206.83800                 -12088321.76640  21396211.73640
  11658099.21100  25124191.96300                   8969145.18640  25124198.85740
 -10454672.29500  23115873.83000                  -7939384.13540  23115879.64340
  -1331870.20500  22012385.61100                    659278.16440  22012391.04940
  21698156.72900  24978242.98600                  16906855.59940  24978249.15040
  -5546274.13800  22832971.43900                  -4186566.74740  22832976.30340
  -2985579.46100  24370168.61900                   4139164.55440  24370175.08840
 96  9  7 22 45  0.0020000  0  7  1  3 15 21 23 25 31
 -15646690.61500  21404639.69700                 -12053790.26040  21404644.78340
  11751365.49800  25141939.47100                   9041820.08340  25141946.52940
 -10542223.83400  23099213.53300                  -8007606.07240  23099219.32240
  -1289422.32100  22020463.19700                    692354.42140  22020468.49440
  21771651.26700  24992228.82200                  16964124.00740  24992234.89340
  -5627513.05100  22817512.21300                  -4249869.74540  22817517.15840
  -2918156.76700  24382998.42400                   4191701.69740  24383003.96740
 96  9  7 22 45 30.0020000  0  7  1  3 15 21 23 25 31
 -15602077.54800  21413129.20500                 -12019026.82940  21413134.23240
  11844595.30700  25159680.68200                   9114466.58040  25159688.46740
 -10629462.13900  23082612.79100                  -8075583.95040  23082618.89640
  -1246725.74900  22028588.10400                    725624.46440  22028593.21340
  21845243.89900  25006232.71300                  17021468.84940  25006238.58440
  -5708467.08200  22802106.86100                  -4312950.77840  22802111.76040
  -2850452.65600  24395881.99400                   4244458.10240  24395887.36140
 96  9  7 22 46  0.0020000  0  7  1  3 15 21 23 25 31
 -15557195.38300  21421669.96300                 -11984053.72140  21421675.06140
  11937788.04300  25177414.90000                   9187084.19840  25177421.15840
 -10716388.38400  23066070.52500                  -8143318.65140  23066076.51440
  -1203784.99800  22036759.53300                    759084.77140  22036764.85440
  21918957.83800  25020260.14300                  17078908.21140  25020267.28340
  -5789126.18500  22786758.11100                  -4375801.98940  22786762.99840
  -2782476.12700  24408817.28300                   4297426.78140  24408823.31840
 96  9  7 22 46 30.0020000  0  7  1  3 15 21 23 25 31
 -15512046.97800  21430261.50200                 -11948873.15140  21430266.62340
  12030939.30100  25195141.49400                   9259669.48640  25195147.77540
 -10803001.49100  23049589.16600                  -8210809.35740  23049595.17840
  -1160597.14400  22044977.60400                    792737.62440  22044982.99440
  21992793.87000  25034311.01800                  17136442.70740  25034317.61540
  -5869475.07700  22771468.07200                  -4438411.48040  22771472.80740
  -2714223.97300  24421805.27500                   4350610.22640  24421811.34640
 96  9  7 22 47  0.0020000  0  7  1  3 15 21 23 25 31
 -15466629.24900  21438904.29100                 -11913482.71640  21438909.44740
  12124033.53800  25212856.45500                   9332210.39840  25212864.80340
 -10889302.23000  23033166.77500                  -8278056.65640  23033172.61140
  -1117168.11900  22053242.04100                    826578.40740  22053247.56140
  22066746.90500  25048383.28300                  17194068.38040  25048389.83440
  -5949505.93600  22756238.39300                  -4500773.15140  22756243.57240
  -2645701.34500  24434844.58000                   4404004.46240  24434850.72140
 96  9  7 22 47 30.0020000  0  7  1  3 15 21 23 25 31
 -15420924.22000  21447601.58000                 -11877868.41540  21447606.64340
  12217079.83700  25230562.68900                   9404713.88240  25230568.60740
 -10975282.70900  23016805.31400                  -8345054.41940  23016810.98640
  -1073494.70800  22061552.65800                    860609.62040  22061558.08440
  22140830.81800  25062481.08000                  17251796.02640  25062487.36140
  -6029203.80600  22741072.78300                  -4562875.33940  22741077.54140
  -2576906.40900  24447936.18200                   4457610.85440  24447941.80740
 96  9  7 22 48  0.0020000  0  7  1  3 15 21 23 25 31
 -15374902.15500  21456359.35400                 -11842007.07940  21456364.40440
  12310081.18000  25248260.56400                   9477182.34940  25248268.02140
 -11060933.14200  23000506.88500                  -8411794.98740  23000513.20140
  -1029563.76400  22069912.54100                    894841.50940  22069917.95540
  22215042.29800  25076603.04900                  17309623.04940  25076611.09240
  -6108563.24200  22725971.14300                  -4624713.82240  22725976.20540
  -2507829.11100  24461081.35400                   4511437.27540  24461086.05340
 96  9  7 22 48 30.0020000  0  7  1  3 15 21 23 25 31
 -15328550.52600  21465179.64300                 -11805888.93140  21465184.76440
  12403029.17300  25265948.03300                   9549609.25640  25265954.30340
 -11146250.33400  22984271.26800                  -8478275.90740  22984276.74040
   -985375.91500  22078321.01000                    929273.57940  22078326.60040
  22289365.93000  25090746.70500                  17367537.53440  25090753.69340
  -6187601.14600  22710930.56400                  -4686301.75840  22710935.46340
  -2438483.31700  24474277.43900                   4565472.89840  24474282.92440
 96  9  7 22 49  0.0020000  0  7  1  3 15 21 23 25 31
 -15281871.35100  21474062.44700                 -11769515.55340  21474067.49840
  12495928.86000  25283625.68200                   9621998.49940  25283634.59240
 -11231229.71300  22968099.97100                  -8544493.58840  22968106.04140
   -940925.28900  22086779.88500                    963910.41340  22086785.67440
  22363807.38900  25104912.91600                  17425543.81040  25104921.04140
  -6266319.95800  22695950.63500                  -4747641.05940  22695955.73240
  -2368879.91100  24487523.13500                   4619709.29540  24487528.03340
 96  9  7 22 49 30.0020000  0  7  1  3 15 21 23 25 31
 -15234886.67000  21483003.23600                 -11732904.12340  21483008.22940
  12588767.94400  25301292.70500                   9694340.52140  25301301.77940
 -11315871.77200  22951993.29100                  -8610448.42840  22951999.04540
   -896208.38300  22095289.38500                    998754.74340  22095295.05740
  22438364.46300  25119100.09600                  17483640.20640  25119109.49840
  -6344735.71000  22681028.62700                  -4808744.20040  22681033.70140
  -2299024.85400  24500815.67400                   4674141.78040  24500822.69740
 96  9  7 22 50  0.0020000  0  7  1  3 15 21 23 25 31
 -15187601.89400  21492001.18900                 -11696058.84340  21492006.15840
  12681553.39900  25318949.40800                   9766640.79640  25318955.99440
 -11400165.39000  22935952.84600                  -8676131.75740  22935958.63540
   -851207.87100  22103852.39300                   1033820.06840  22103857.95940
  22513037.19400  25133310.42400                  17541826.64640  25133316.27140
  -6422840.95700  22666165.94700                  -4869605.38840  22666171.02140
  -2228914.72000  24514157.07200                   4728772.98940  24514162.94340
 96  9  7 22 50 30.0020000  0  7  1  3 15 21 23 25 31
 -15140032.82100  21501053.37700                 -11658992.04240  21501058.35740
  12774284.16600  25336595.72100                   9838898.45840  25336604.45540
 -11484117.10700  22919977.23600                  -8741548.65940  22919982.90840
   -805932.46400  22112467.99400                   1069099.59440  22112473.73640
  22587826.49900  25147542.23600                  17600104.00740  25147548.85740
  -6500642.31800  22651360.72900                  -4930229.79040  22651366.09640
  -2158554.58900  24527546.32200                   4783599.04040  24527552.89640
 96  9  7 22 51  0.0020000  0  7  1  3 15 21 23 25 31
 -15092174.20900  21510160.61100                 -11621699.62140  21510165.73240
  12866957.19900  25354231.09600                   9911111.12440  25354237.99040
 -11567720.01600  22904068.13500                  -8806693.76540  22904073.93640
   -760366.67600  22121139.03300                   1104605.38540  22121144.48240
  22662737.29700  25161797.47900                  17658475.99540  25161803.11540
  -6578117.22200  22636617.93900                  -4990599.80840  22636622.73240
  -2087930.26900  24540985.34600                   4838630.94140  24540991.17040
 96  9  7 22 51 30.0020000  0  7  1  3 15 21 23 25 31
 -15044017.07100  21519324.84600                 -11584174.57940  21519329.99040
  12959558.06300  25371852.10400                   9983267.53440  25371860.29940
 -11650970.62800  22888226.02500                  -8871564.35040  22888231.24040
   -714518.55800  22129863.73600                   1140331.19040  22129869.08040
  22737767.20700  25176074.88500                  17716940.80140  25176080.99040
  -6655258.08800  22621937.98600                  -5050709.53740  22621943.13140
  -2017035.80300  24554476.75200                   4893873.36040  24554482.21340
 96  9  7 22 52  0.0020000  0  5  1 15 21 25 31
 -14995553.07500  21528547.07200                 -11546410.43240  21528552.14640
 -11733873.62700  22872450.22900                  -8936164.06140  22872456.11140
   -668395.61400  22138640.55700                   1176271.12840  22138646.31140
  -6732056.61900  22607323.68200                  -5110552.51040  22607328.77940
  -1945887.52900  24568016.11900                   4949313.54040  24568022.21340
